[[{"header":{"parameterUnit":"m.s-1","parameterCategory":1,"la1":30.6,"la2":29.2853,"lo1":-89.7004,"lo2":-87.6739,"dy":0.0162,"dx":0.0183,"nx":112,"ny":82,"refTime":"2026-05-21T12:00:00:Z","depth":0,"parameterNumber":2,"parameterNumberName":"U-component_of_WINDS"},"data":[0.0,0.0,0.0,0.0,0.0,0.0,0.0,0.0,0.0,0.0,0.0,0.0,0.0,0.0,0.0,0.0,0.0,0.0,0.0,0.0,0.0,0.0,0.0,0.0,0.0,0.0,0.0,0.0,0.0,0.0,0.0,0.0,0.0,0.0,0.0,0.0,0.0,0.0,0.0,0.0,0.0,0.0,0.0,0.0,0.0,0.0,0.0,0.0,0.0,0.0,0.0,0.0,0.0,0.0,0.0,0.0,0.0,0.0,0.0,0.0,0.0,0.0,0.0,0.0,0.0,0.0,0.0,0.0,0.0,0.0,0.0,0.0,0.0,0.0,0.0,0.0,0.0,0.0,0.0,0.0,0.0,0.0,0.0,0.0,0.0,0.0,0.0,0.0,0.0,0.0,-3.959,-4.045,-4.2185,-4.3095,-4.2596,-4.2474,-4.1647,-3.9825,0.0,0.0,0.0,0.0,0.0,0.0,0.0,0.0,0.0,0.0,0.0,0.0,0.0,0.0,0.0,0.0,0.0,0.0,0.0,0.0,0.0,0.0,0.0,0.0,0.0,0.0,0.0,0.0,0.0,0.0,0.0,0.0,0.0,0.0,0.0,0.0,0.0,0.0,0.0,0.0,0.0,0.0,0.0,0.0,0.0,0.0,0.0,0.0,0.0,0.0,0.0,0.0,0.0,0.0,0.0,0.0,0.0,0.0,0.0,0.0,0.0,0.0,0.0,0.0,0.0,0.0,0.0,0.0,0.0,0.0,0.0,0.0,0.0,0.0,0.0,0.0,0.0,0.0,0.0,0.0,0.0,0.0,0.0,0.0,0.0,0.0,0.0,0.0,0.0,0.0,0.0,0.0,0.0,0.0,0.0,0.0,0.0,0.0,0.0,0.0,0.0,0.0,0.0,0.0,-4.0245,-4.1888,-4.3051,-4.3715,-4.3724,-4.2467,-4.1253,-4.0262,0.0,0.0,0.0,0.0,0.0,0.0,0.0,0.0,0.0,0.0,0.0,0.0,0.0,0.0,0.0,0.0,0.0,0.0,0.0,0.0,0.0,0.0,0.0,0.0,0.0,0.0,0.0,0.0,0.0,0.0,0.0,0.0,0.0,0.0,0.0,0.0,0.0,0.0,0.0,0.0,0.0,0.0,0.0,0.0,0.0,0.0,0.0,0.0,0.0,0.0,0.0,0.0,0.0,0.0,0.0,0.0,0.0,0.0,0.0,0.0,0.0,0.0,0.0,0.0,0.0,0.0,0.0,0.0,0.0,0.0,0.0,0.0,0.0,0.0,0.0,0.0,0.0,0.0,0.0,0.0,0.0,0.0,0.0,0.0,0.0,0.0,0.0,0.0,0.0,0.0,0.0,0.0,0.0,0.0,0.0,0.0,0.0,0.0,0.0,0.0,0.0,0.0,0.0,-4.0043,-4.1443,-4.2736,-4.3801,-4.4049,-4.3185,-4.2859,-4.178,-3.963,-3.8412,0.0,0.0,0.0,0.0,0.0,0.0,0.0,0.0,0.0,0.0,0.0,0.0,0.0,0.0,0.0,0.0,0.0,0.0,0.0,0.0,0.0,0.0,0.0,0.0,0.0,0.0,0.0,0.0,0.0,0.0,0.0,0.0,0.0,0.0,0.0,0.0,0.0,0.0,0.0,0.0,0.0,0.0,0.0,0.0,0.0,0.0,0.0,0.0,0.0,0.0,0.0,0.0,0.0,0.0,0.0,0.0,0.0,0.0,0.0,0.0,0.0,0.0,0.0,0.0,0.0,0.0,0.0,0.0,0.0,0.0,0.0,0.0,0.0,0.0,0.0,0.0,0.0,0.0,0.0,0.0,0.0,0.0,0.0,0.0,0.0,0.0,0.0,0.0,0.0,0.0,0.0,0.0,0.0,0.0,0.0,0.0,0.0,0.0,0.0,0.0,0.0,0.0,-4.1981,-4.28,-4.3462,-4.4431,-4.4418,-4.2982,-4.313,-4.2062,-3.92,-3.8592,0.0,0.0,0.0,0.0,0.0,0.0,0.0,0.0,0.0,0.0,0.0,0.0,0.0,0.0,0.0,0.0,0.0,0.0,0.0,0.0,0.0,0.0,0.0,0.0,0.0,0.0,0.0,0.0,0.0,0.0,0.0,0.0,0.0,0.0,0.0,0.0,0.0,0.0,0.0,0.0,0.0,0.0,0.0,0.0,0.0,0.0,0.0,0.0,0.0,0.0,0.0,0.0,0.0,0.0,0.0,0.0,0.0,0.0,0.0,0.0,0.0,0.0,0.0,0.0,0.0,0.0,0.0,0.0,0.0,0.0,0.0,0.0,0.0,0.0,0.0,0.0,0.0,0.0,0.0,0.0,0.0,0.0,0.0,0.0,0.0,0.0,0.0,0.0,0.0,0.0,0.0,0.0,0.0,0.0,0.0,0.0,0.0,0.0,0.0,0.0,0.0,0.0,-4.3224,-4.4156,-4.4207,-4.4915,-4.5036,-4.4233,-4.2904,-4.1419,-3.9738,-3.8341,0.0,0.0,0.0,0.0,0.0,0.0,0.0,0.0,0.0,0.0,0.0,0.0,0.0,0.0,0.0,0.0,0.0,0.0,0.0,0.0,0.0,0.0,0.0,0.0,0.0,0.0,0.0,0.0,0.0,0.0,0.0,0.0,0.0,0.0,0.0,0.0,0.0,0.0,0.0,0.0,0.0,0.0,0.0,0.0,0.0,0.0,0.0,0.0,0.0,0.0,0.0,0.0,0.0,0.0,0.0,0.0,0.0,0.0,0.0,0.0,0.0,0.0,0.0,0.0,0.0,0.0,0.0,0.0,0.0,0.0,0.0,0.0,0.0,0.0,0.0,0.0,0.0,0.0,0.0,0.0,0.0,0.0,0.0,0.0,0.0,0.0,0.0,0.0,0.0,0.0,0.0,0.0,0.0,0.0,0.0,0.0,0.0,0.0,0.0,0.0,0.0,0.0,-4.3655,-4.4483,-4.4941,-4.5225,-4.4923,-4.3724,-4.3086,-4.1688,-3.9163,0.0,0.0,0.0,0.0,0.0,0.0,0.0,0.0,0.0,0.0,0.0,0.0,0.0,0.0,0.0,0.0,0.0,0.0,0.0,0.0,0.0,0.0,0.0,0.0,0.0,0.0,0.0,0.0,0.0,0.0,0.0,0.0,0.0,0.0,0.0,0.0,0.0,0.0,0.0,0.0,0.0,0.0,0.0,0.0,0.0,0.0,0.0,0.0,0.0,0.0,0.0,0.0,0.0,0.0,0.0,0.0,0.0,0.0,0.0,0.0,0.0,0.0,0.0,0.0,0.0,0.0,0.0,0.0,0.0,0.0,0.0,0.0,0.0,0.0,0.0,0.0,0.0,0.0,0.0,0.0,0.0,0.0,0.0,0.0,0.0,0.0,0.0,0.0,0.0,0.0,0.0,0.0,0.0,0.0,0.0,0.0,0.0,0.0,0.0,0.0,0.0,0.0,-4.2839,-4.3933,-4.4733,-4.5275,-4.5344,-4.4854,-4.3655,-4.3103,-4.1826,-3.9497,0.0,0.0,0.0,0.0,0.0,0.0,0.0,0.0,0.0,0.0,0.0,0.0,0.0,0.0,0.0,0.0,0.0,0.0,0.0,0.0,0.0,0.0,0.0,0.0,0.0,0.0,0.0,0.0,0.0,0.0,0.0,0.0,0.0,0.0,0.0,0.0,0.0,0.0,0.0,0.0,0.0,0.0,0.0,0.0,0.0,0.0,0.0,0.0,0.0,0.0,0.0,0.0,0.0,0.0,0.0,0.0,0.0,0.0,0.0,0.0,0.0,0.0,0.0,0.0,0.0,0.0,0.0,0.0,0.0,0.0,0.0,0.0,0.0,0.0,0.0,0.0,0.0,0.0,0.0,0.0,0.0,0.0,0.0,0.0,0.0,0.0,0.0,0.0,0.0,0.0,0.0,0.0,0.0,0.0,0.0,0.0,0.0,0.0,0.0,0.0,0.0,0.0,-4.2722,-4.4144,-4.5059,-4.5194,-4.5203,-4.4964,-4.4337,-4.2896,-4.1705,0.0,0.0,0.0,0.0,0.0,0.0,0.0,0.0,0.0,0.0,0.0,0.0,0.0,0.0,0.0,0.0,0.0,0.0,0.0,0.0,0.0,0.0,0.0,0.0,0.0,0.0,0.0,0.0,0.0,0.0,0.0,0.0,0.0,0.0,0.0,0.0,0.0,0.0,0.0,0.0,0.0,0.0,0.0,0.0,0.0,0.0,0.0,0.0,0.0,0.0,0.0,0.0,0.0,0.0,0.0,0.0,0.0,0.0,0.0,0.0,0.0,0.0,0.0,0.0,0.0,0.0,0.0,0.0,0.0,0.0,0.0,0.0,0.0,0.0,0.0,0.0,0.0,0.0,0.0,0.0,0.0,0.0,0.0,0.0,0.0,0.0,0.0,0.0,0.0,0.0,0.0,0.0,0.0,0.0,0.0,0.0,0.0,0.0,0.0,0.0,0.0,0.0,0.0,-4.3417,-4.4443,-4.521,-4.5768,-4.5449,-4.4911,-4.4225,-4.3363,-4.205,-4.0164,0.0,0.0,0.0,0.0,0.0,0.0,0.0,0.0,0.0,0.0,0.0,0.0,0.0,0.0,0.0,0.0,0.0,0.0,0.0,0.0,0.0,0.0,0.0,0.0,0.0,0.0,0.0,0.0,0.0,0.0,0.0,0.0,0.0,0.0,0.0,0.0,0.0,0.0,0.0,0.0,0.0,0.0,0.0,0.0,0.0,0.0,0.0,0.0,0.0,0.0,0.0,0.0,0.0,0.0,0.0,0.0,0.0,0.0,0.0,0.0,0.0,0.0,0.0,0.0,0.0,0.0,0.0,0.0,0.0,0.0,0.0,0.0,0.0,0.0,0.0,0.0,0.0,0.0,0.0,0.0,0.0,0.0,0.0,0.0,0.0,0.0,0.0,0.0,0.0,0.0,0.0,0.0,0.0,0.0,0.0,0.0,0.0,0.0,0.0,0.0,0.0,0.0,-4.3639,-4.4463,-4.5148,-4.5942,-4.5712,-4.5213,-4.4514,-4.3864,-4.2601,-4.059,0.0,0.0,0.0,0.0,0.0,0.0,0.0,0.0,0.0,0.0,0.0,0.0,0.0,0.0,0.0,0.0,0.0,0.0,0.0,0.0,0.0,0.0,0.0,0.0,0.0,0.0,0.0,0.0,0.0,0.0,0.0,0.0,0.0,0.0,0.0,0.0,0.0,0.0,0.0,0.0,0.0,0.0,0.0,0.0,0.0,0.0,0.0,0.0,0.0,0.0,0.0,0.0,0.0,0.0,0.0,0.0,0.0,0.0,0.0,0.0,0.0,0.0,0.0,0.0,0.0,0.0,0.0,0.0,0.0,0.0,0.0,0.0,0.0,0.0,0.0,0.0,0.0,0.0,0.0,0.0,0.0,0.0,0.0,0.0,0.0,0.0,0.0,0.0,0.0,0.0,0.0,0.0,0.0,0.0,0.0,0.0,0.0,0.0,0.0,0.0,0.0,0.0,-4.3583,-4.4364,-4.5015,-4.5875,-4.592,-4.5648,-4.5019,-4.4312,-4.321,-4.1604,0.0,0.0,0.0,0.0,0.0,0.0,0.0,0.0,0.0,0.0,0.0,0.0,0.0,0.0,0.0,0.0,0.0,0.0,0.0,0.0,0.0,0.0,0.0,0.0,0.0,0.0,0.0,0.0,0.0,0.0,0.0,0.0,0.0,0.0,0.0,0.0,0.0,0.0,0.0,0.0,0.0,0.0,0.0,0.0,0.0,0.0,0.0,0.0,0.0,0.0,0.0,0.0,0.0,0.0,0.0,0.0,0.0,0.0,0.0,0.0,-4.0509,-3.9457,0.0,0.0,0.0,0.0,0.0,0.0,0.0,0.0,0.0,0.0,0.0,0.0,0.0,0.0,0.0,0.0,0.0,0.0,0.0,0.0,0.0,0.0,0.0,0.0,0.0,0.0,0.0,0.0,0.0,0.0,0.0,0.0,0.0,0.0,0.0,0.0,0.0,0.0,0.0,0.0,-4.4232,-4.506,-4.5754,-4.654,-4.6169,-4.5609,-4.4899,-4.4258,-4.3005,-4.0869,-3.8452,0.0,0.0,0.0,0.0,0.0,0.0,0.0,0.0,0.0,0.0,0.0,0.0,0.0,0.0,0.0,0.0,0.0,0.0,0.0,0.0,0.0,0.0,0.0,0.0,0.0,0.0,0.0,0.0,0.0,0.0,0.0,0.0,0.0,0.0,0.0,0.0,0.0,0.0,0.0,0.0,0.0,0.0,0.0,0.0,0.0,0.0,0.0,0.0,0.0,0.0,0.0,0.0,0.0,0.0,0.0,0.0,0.0,0.0,0.0,-4.3061,-4.1912,0.0,0.0,0.0,0.0,0.0,0.0,0.0,0.0,0.0,0.0,0.0,0.0,0.0,0.0,0.0,0.0,0.0,0.0,0.0,0.0,0.0,0.0,0.0,0.0,0.0,0.0,0.0,0.0,0.0,0.0,0.0,0.0,0.0,0.0,0.0,0.0,0.0,0.0,0.0,0.0,-4.4391,-4.4993,-4.5585,-4.6667,-4.6506,-4.5733,-4.4241,-4.4187,-4.3119,-4.0458,-3.8197,0.0,0.0,0.0,0.0,0.0,0.0,0.0,0.0,0.0,0.0,0.0,0.0,0.0,0.0,0.0,0.0,0.0,0.0,0.0,0.0,0.0,0.0,0.0,0.0,0.0,0.0,0.0,0.0,0.0,0.0,0.0,0.0,0.0,0.0,0.0,0.0,0.0,0.0,0.0,0.0,0.0,0.0,0.0,0.0,0.0,0.0,0.0,0.0,0.0,0.0,0.0,0.0,0.0,-4.5303,-4.6259,-4.6803,-4.6803,-4.72,-4.7775,-4.5889,-4.4949,-4.4656,-4.4052,0.0,0.0,0.0,0.0,0.0,0.0,0.0,0.0,0.0,0.0,0.0,0.0,0.0,0.0,0.0,0.0,0.0,0.0,0.0,0.0,0.0,0.0,-4.3237,0.0,-4.256,-4.1733,-4.1086,0.0,0.0,0.0,0.0,0.0,0.0,0.0,0.0,0.0,0.0,0.0,-4.4347,-4.4755,-4.5246,-4.6481,-4.6599,-4.5737,-4.3534,-4.3967,-4.3172,-4.04,-3.8138,-3.6551,0.0,0.0,0.0,0.0,0.0,0.0,0.0,0.0,0.0,0.0,0.0,0.0,0.0,0.0,0.0,0.0,0.0,0.0,0.0,0.0,0.0,0.0,0.0,0.0,0.0,0.0,0.0,0.0,0.0,0.0,0.0,0.0,-3.1282,-3.1472,0.0,0.0,0.0,0.0,0.0,0.0,0.0,0.0,0.0,0.0,0.0,0.0,0.0,-4.3103,-4.3845,-4.601,-4.6803,-4.6182,-4.7638,-4.8068,-4.7534,-4.7534,-4.7948,-4.8637,-4.8327,0.0,-4.6286,-4.6199,0.0,0.0,0.0,0.0,0.0,0.0,0.0,0.0,0.0,0.0,0.0,0.0,0.0,0.0,0.0,0.0,0.0,0.0,0.0,0.0,0.0,0.0,-4.4695,-4.5331,-4.4302,-4.3125,0.0,-4.152,-4.0195,-4.0188,-3.9529,-3.8897,0.0,0.0,0.0,0.0,0.0,0.0,-4.4406,-4.5173,-4.5635,-4.5821,-4.5855,-4.5122,-4.3373,-4.3322,-4.2627,-4.0802,-3.8623,-3.7047,-3.6229,-3.4745,0.0,0.0,0.0,0.0,0.0,0.0,0.0,0.0,0.0,0.0,0.0,0.0,0.0,0.0,0.0,0.0,0.0,0.0,0.0,0.0,0.0,0.0,0.0,0.0,0.0,0.0,0.0,0.0,0.0,-3.1058,-3.2731,-3.3611,-3.43,-3.4869,0.0,0.0,0.0,0.0,0.0,0.0,0.0,0.0,0.0,-4.2137,-4.3258,-4.4397,-4.5579,-4.7424,-4.8155,-4.7844,-4.8959,-4.9528,-4.9631,-4.9631,-4.9999,-5.0705,-5.0705,-4.9861,-4.8424,-4.7131,-4.6268,-4.5596,0.0,0.0,0.0,0.0,-4.4119,-4.4014,-4.396,-4.4224,-4.4695,-4.5094,0.0,0.0,0.0,0.0,0.0,0.0,0.0,-4.34,0.0,0.0,-4.4861,-4.5089,-4.4242,-4.3392,-4.3392,-4.2426,-4.1384,-4.0951,-3.9957,-3.9159,-3.9134,-3.8846,0.0,0.0,0.0,-4.2773,-4.3792,-4.4604,-4.5229,-4.5669,-4.5331,-4.4395,-4.2722,-4.2323,-4.1494,-3.9893,-3.8605,-3.7744,-3.7373,-3.5987,-3.4849,0.0,0.0,0.0,0.0,0.0,0.0,0.0,0.0,0.0,0.0,0.0,0.0,0.0,0.0,0.0,0.0,0.0,0.0,0.0,0.0,0.0,0.0,0.0,0.0,0.0,0.0,0.0,0.0,-3.2714,-3.4266,-3.5628,-3.5956,-3.6353,0.0,0.0,0.0,0.0,0.0,0.0,-4.1705,-4.1964,-4.2664,-4.4035,-4.4794,-4.5803,-4.7165,-4.8637,-4.9275,-4.9103,-5.0114,-5.0752,-5.1114,-5.1114,-5.1407,-5.1895,-5.1705,-5.1132,-5.0149,-4.8252,-4.7458,-4.7258,-4.5725,-4.5257,-4.551,-4.5617,-4.5678,-4.5704,-4.5693,-4.6187,-4.6953,-4.769,-4.7357,-4.6459,-4.5658,0.0,0.0,0.0,0.0,-4.4211,-4.5297,-4.5173,-4.4771,-4.488,-4.4282,-4.3656,-4.3426,-4.298,-4.2354,-4.1627,-4.0443,-3.9563,-3.9563,-3.9563,0.0,-3.9817,-4.1407,-4.2834,-4.3551,-4.4159,-4.4716,-4.5233,-4.4626,-4.3547,-4.2015,-4.1366,-4.0517,-3.9362,-3.8549,-3.8245,-3.8615,-3.7058,-3.5921,-3.5374,0.0,0.0,0.0,0.0,0.0,0.0,0.0,0.0,0.0,0.0,0.0,0.0,0.0,0.0,0.0,0.0,0.0,0.0,0.0,0.0,0.0,0.0,0.0,0.0,0.0,0.0,0.0,0.0,0.0,-3.7288,-3.7991,0.0,0.0,0.0,0.0,-4.1698,-4.2534,-4.331,-4.4087,-4.4803,-4.5552,-4.6406,-4.7148,-4.7896,-4.8672,-5.0206,-5.0649,-4.9959,-5.1407,-5.1722,-5.1114,-5.1114,-5.1132,-5.1132,-5.0424,-5.0476,-5.0994,-5.0183,-4.8596,-4.669,-4.7155,-4.6893,-4.6306,-4.6743,-4.7342,-4.7912,-4.781,-4.8223,-4.8981,-4.9709,-4.9073,-4.775,-4.6459,-4.4951,0.0,0.0,-4.3761,-4.3807,-4.4578,-4.4699,-4.4784,-4.5483,-4.5077,-4.4316,-4.3589,-4.3358,-4.3149,0.0,-4.1627,-4.1085,-4.1085,0.0,-4.1322,-4.2016,-4.2828,-4.3584,-4.4187,-4.4276,-4.427,-4.4176,-4.3523,-4.2567,-4.1361,-4.0466,-4.0022,-4.0139,-3.8665,-3.8403,-3.9745,-3.7796,-3.6649,-3.6602,-3.4558,0.0,0.0,0.0,0.0,0.0,0.0,0.0,0.0,0.0,0.0,0.0,0.0,0.0,0.0,0.0,0.0,0.0,0.0,0.0,0.0,0.0,0.0,0.0,0.0,0.0,0.0,0.0,0.0,-3.9549,-4.0808,0.0,-4.2603,-4.2672,-4.3285,-4.4837,-4.5234,-4.5717,-4.6458,-4.7172,-4.7948,-4.8769,-4.951,-5.0223,-5.0964,-5.105,-5.1476,-5.2201,-5.2218,-5.2339,-5.258,-5.258,-5.2304,-5.1787,-5.1045,-5.0873,-5.1045,-5.0304,-4.9528,-4.8769,-4.8443,-4.8128,-4.7912,-4.9076,-4.9547,-4.9556,-4.9542,-4.9602,-4.9661,-4.9458,-4.9128,-4.8621,-4.7678,-4.6726,-4.6067,-4.6448,-4.617,-4.5937,-4.6603,-4.6392,-4.5957,-4.5754,-4.55,-4.5094,-4.4333,-4.4164,-4.3944,-4.3166,-4.2405,-4.1914,-4.1914,-4.2303,-4.254,-4.232,-4.3369,-4.4024,-4.3637,-4.3717,-4.3722,-4.3608,-4.2222,-4.1138,-4.0612,-3.9159,-3.8453,-3.8868,-3.8513,-3.8684,-3.962,-3.8917,-3.8107,-3.7218,-3.5628,-3.412,0.0,0.0,0.0,0.0,0.0,0.0,0.0,0.0,0.0,0.0,0.0,0.0,0.0,0.0,0.0,0.0,0.0,0.0,0.0,0.0,0.0,0.0,0.0,0.0,0.0,-3.7806,-4.0049,-4.1843,-4.2948,-4.3966,-4.4984,-4.5061,-4.5596,-4.6889,-4.7189,-4.7655,-4.8441,-4.9172,-4.9913,-5.0735,-5.1235,-5.1718,-5.2188,-5.1994,-5.2252,-5.2994,-5.2994,-5.3132,-5.3408,-5.3408,-5.3115,-5.258,-5.1791,-5.1476,-5.1442,-5.0942,-5.0752,-5.0619,-4.951,-4.9229,-4.9502,-5.0438,-5.0817,-5.0819,-5.0518,-5.0275,-4.9965,-4.9238,-4.9232,-4.9376,-4.8616,-4.7959,-4.7525,-4.7916,-4.7509,-4.7005,-4.7441,-4.7175,-4.6667,-4.6194,-4.5889,-4.5568,-4.506,-4.4784,-4.4445,-4.391,-4.32,-4.2591,-4.2337,-4.2912,-4.3223,-4.2662,-4.3703,-4.4215,-4.337,-4.3322,-4.3276,-4.3019,-4.1351,-4.0162,-3.9996,-3.8358,-3.7647,-3.8372,-3.8441,-3.8908,-3.9782,-3.9613,-3.9059,-3.82,-3.663,-3.4691,-3.2398,0.0,0.0,0.0,0.0,0.0,0.0,0.0,0.0,0.0,0.0,0.0,0.0,0.0,0.0,0.0,0.0,0.0,0.0,0.0,0.0,0.0,0.0,0.0,-3.8629,-4.0014,-4.1843,-4.4069,-4.4397,-4.5036,-4.6527,-4.67,-4.7027,-4.7741,-4.8465,-4.9206,-5.0045,-5.0787,-5.1481,-5.2205,-5.2239,-5.2257,-5.2257,-5.3028,-5.3046,-5.2308,-5.3804,-5.4149,-5.3477,-5.3477,-5.346,-5.3391,-5.2597,-5.2222,-5.2222,-5.2205,-5.2188,-5.205,-5.0403,-5.024,-5.0909,-5.0741,-5.1158,-5.1705,-5.0754,-5.0292,-4.9965,-4.9238,-4.9475,-4.9915,-4.9221,-4.8511,-4.7922,-4.7922,-4.7428,-4.6853,-4.6853,-4.6853,-4.6853,-4.6836,-4.6261,-4.5737,-4.5703,-4.5111,-4.4615,-4.4615,-4.3978,-4.3217,-4.2489,-4.2963,-4.3371,-4.325,-4.3827,0.0,-4.3462,-4.3204,-4.2851,-4.2413,-4.0908,-3.9813,-3.9503,-3.8087,-3.7669,-3.8722,-3.8621,-3.9108,-4.0443,-3.9844,-3.9474,-3.9459,-3.7507,-3.5168,-3.2459,0.0,0.0,0.0,0.0,0.0,0.0,0.0,0.0,0.0,0.0,0.0,0.0,0.0,0.0,0.0,0.0,0.0,0.0,0.0,0.0,0.0,-3.8651,-4.0066,-3.9474,-4.1705,-4.381,-4.4975,-4.6562,-4.7751,-4.8137,-4.8734,-4.9373,-5.0114,-5.0343,-5.0792,-5.1533,-5.2356,-5.2873,-5.3063,-5.3598,-5.3873,-5.3873,-5.3563,-5.3839,-5.4667,-5.4563,-5.4684,-5.5012,-5.5012,-5.4718,-5.4167,-5.3408,-5.308,-5.3028,-5.2429,-5.2188,-5.2153,-5.1692,-5.1645,-5.1903,-5.244,-5.2612,-5.246,-5.152,-5.0716,-4.9965,-4.9238,-4.9137,-4.9255,-4.9069,-4.8866,-4.8714,-4.8714,-4.8562,-4.8392,-4.8392,-4.8392,-4.8257,-4.7733,-4.7039,-4.6346,-4.5821,-4.5111,-4.4615,-4.4615,-4.4429,-4.4225,-4.4005,-4.4158,-4.4193,-4.4035,-4.3839,0.0,-4.3235,-4.2443,-4.1835,-4.1621,-3.9986,-3.8883,-3.8786,-3.7931,-3.7744,-3.8527,-3.8508,-3.9108,-4.0443,-3.9844,-3.9259,-3.88,-3.7277,-3.5645,0.0,0.0,0.0,0.0,0.0,0.0,0.0,0.0,0.0,0.0,0.0,0.0,0.0,0.0,0.0,0.0,0.0,0.0,0.0,0.0,0.0,0.0,-4.1095,-4.263,-4.2164,-4.363,-4.5268,-4.6655,-4.8275,-4.9413,-4.9723,-5.0476,-5.1114,-5.1545,-5.158,-5.1877,-5.2666,-5.3149,-5.3546,-5.3856,-5.4287,-5.4512,-5.4512,-5.4391,-5.4615,-5.515,-5.5029,-5.5029,-5.515,-5.515,-5.4925,-5.4494,-5.4046,-5.3873,-5.3822,-5.3373,-5.3166,0.0,0.0,0.0,0.0,0.0,-5.3447,-5.2819,-5.2279,-5.1221,-5.0016,-4.9593,-4.9255,-4.9001,-4.9001,-4.9001,-4.9001,-4.9001,-4.9001,-4.9001,-4.9001,-4.9001,-4.89,-4.8477,-4.7564,-4.6667,-4.6244,-4.5331,-4.4615,-4.4615,-4.4615,0.0,-4.4615,-4.4615,-4.4514,-4.4253,-4.3768,-4.3276,-4.2867,-4.1981,-4.1325,-4.1122,-3.9541,-3.8508,-3.8508,-3.7631,0.0,0.0,0.0,-3.8985,-4.0028,-3.9705,0.0,0.0,0.0,0.0,0.0,0.0,0.0,0.0,-3.4091,-3.4706,0.0,0.0,0.0,0.0,0.0,0.0,0.0,0.0,0.0,0.0,0.0,0.0,0.0,0.0,0.0,0.0,-4.3492,-4.5466,-4.5621,-4.5725,-4.6535,-4.8551,-4.9568,-5.039,-5.1045,-5.1787,-5.2222,-5.2339,-5.2326,-5.2684,-5.3494,-5.3529,0.0,0.0,0.0,-5.4512,-5.4512,-5.5167,-5.5167,-5.4512,-5.5167,-5.515,-5.4512,-5.4512,-5.4512,-5.4512,-5.4512,-5.4512,-5.4512,-5.4512,-5.4512,-5.4374,-5.3011,-5.2908,-5.3615,-5.4221,-5.3859,-5.3007,-5.2921,0.0,0.0,-5.0118,-4.9593,-4.9001,-4.9001,-4.9001,-4.9001,-4.9001,-4.9001,-4.9001,-4.9001,-4.9001,-4.9001,-4.9001,-4.7868,-4.6802,-4.6904,-4.5783,-4.475,-4.4835,-4.4784,-4.4733,-4.4733,-4.4666,-4.4485,-4.4155,-4.3608,-4.3019,-4.2429,-4.1687,-4.1088,-4.0799,0.0,0.0,-3.8583,-3.7429,-3.6953,-3.7537,-3.8152,-3.8739,-3.9228,-3.9336,-3.9059,-3.8415,-3.78,-3.7169,-3.6492,-3.6569,-3.6261,-3.5629,-3.5629,-3.566,0.0,0.0,0.0,0.0,0.0,0.0,0.0,0.0,0.0,0.0,0.0,0.0,0.0,0.0,0.0,-4.1516,-4.3837,-4.5828,-4.7069,-4.7758,-4.831,-4.8741,-5.0045,-5.0942,-5.1097,-5.1787,-5.2477,-5.3132,-5.3166,-5.3511,-5.4253,-5.4287,-5.4356,-5.4512,-5.4512,-5.4512,-5.4512,-5.4649,-5.4649,-5.4512,-5.4649,0.0,-5.4512,-5.4512,-5.4512,-5.4512,-5.4512,-5.4512,-5.4512,-5.4512,-5.4512,-5.4477,-5.4184,-5.4167,-5.4273,-5.4284,-5.4057,-5.369,-5.2931,-5.1921,-5.0896,-5.0287,-4.9593,-4.9001,-4.9001,-4.9001,0.0,-4.9001,-4.9001,-4.9001,-4.9001,-4.9001,-4.9001,-4.9001,-4.7868,-4.6955,-4.7564,-4.6532,-4.5652,-4.6244,-4.5889,-4.5483,-4.5483,-4.4976,-4.4485,-4.4155,-4.3276,-4.2537,-4.2206,-4.129,-4.0627,-4.0558,-3.9649,-3.9057,-3.9057,-3.822,-3.7824,-3.8047,-3.8332,-3.8323,-3.7908,-3.8415,-3.8385,-3.7707,-3.7569,-3.7169,-3.6492,-3.703,-3.6953,-3.6307,-3.6307,-3.6599,0.0,0.0,0.0,0.0,0.0,0.0,0.0,0.0,0.0,0.0,0.0,-3.668,-3.7801,0.0,-4.1826,-4.2982,-4.5061,-4.681,-4.7569,-4.8672,-4.9407,-4.9407,-5.0723,-5.1636,-5.1636,-5.267,-5.3529,-5.3925,-5.396,-5.4115,-5.4494,-5.4512,-5.4512,-5.4512,-5.4512,-5.4512,-5.4512,-5.4512,-5.4512,-5.4512,-5.4512,-5.4512,-5.4512,-5.4512,-5.4512,-5.4512,-5.4512,-5.4512,-5.4512,-5.4512,-5.4512,-5.448,-5.4399,-5.4335,-5.4335,-5.4239,-5.4045,-5.3798,-5.3325,-5.2295,-5.115,-5.0777,-4.9898,-4.9001,-4.9001,-4.9001,-4.9001,-4.9001,-4.9001,-4.9001,-4.9001,-4.9001,-4.9001,-4.9001,-4.7868,-4.7005,-4.772,-4.6722,-4.5923,-4.665,-4.621,-4.5703,-4.5703,-4.5077,-4.4485,-4.4155,-4.3185,-4.2411,-4.2126,-4.1156,-4.0489,-4.0489,-3.9722,-3.9207,-3.9207,-3.8205,-3.7626,-3.7709,-3.7887,-3.7861,-3.7507,-3.7831,-3.7846,-3.7507,-3.7169,-3.6999,-3.6999,-3.6999,-3.683,-3.6492,-3.6492,-3.6676,0.0,0.0,0.0,0.0,0.0,0.0,0.0,-3.3437,-3.3835,-3.4766,-3.715,-3.9267,-4.0008,-4.1947,-4.3655,-4.4397,-4.632,-4.7741,-4.7879,-4.9131,-5.0011,-5.0011,-5.1321,-5.2188,-5.2188,-5.3598,-5.4512,-5.4512,-5.4512,-5.4512,-5.4512,-5.4512,-5.4512,-5.4512,-5.4512,-5.4512,-5.4512,-5.4512,-5.4512,-5.4512,-5.4512,-5.4512,-5.4512,-5.4512,-5.4512,-5.4512,-5.4512,-5.4512,-5.4512,-5.4512,-5.448,-5.4448,-5.4254,-5.4158,-5.4093,-5.4093,-5.3931,-5.3717,-5.3684,-5.2568,-5.1185,-5.1185,-5.0219,-4.9001,-4.9001,-4.9001,-4.9001,-4.9001,-4.9001,-4.9001,-4.9001,-4.9001,-4.9001,-4.9001,-4.7986,-4.7225,-4.7939,-4.7073,-4.6346,-4.7073,-4.6515,-4.5923,-4.5923,-4.5162,-4.4485,-4.4155,-4.3185,-4.2411,-4.2126,-4.1156,-4.0489,-4.0489,-3.9811,-3.9211,-3.8869,-3.7915,-3.7231,-3.6972,-3.7164,-3.7307,-3.7307,-3.7307,-3.7307,-3.726,-3.6769,-3.6753,-3.726,-3.6753,-3.6492,-3.6492,-3.6492,-3.6492,-3.161,-3.243,-3.3693,-3.4363,-3.4666,-3.4974,0.0,-3.5811,-3.6335,-3.7806,-3.9462,-4.0877,-4.1619,-4.3086,-4.4432,-4.5156,-4.6638,-4.7913,-4.8568,-4.9459,-5.0011,-5.0011,-5.1321,-5.2188,-5.2188,-5.3598,-5.4512,-5.4512,-5.4512,-5.4512,-5.4512,-5.4512,-5.4512,-5.4512,-5.4512,-5.4512,-5.4512,-5.4512,-5.4512,-5.4512,-5.4512,-5.4512,-5.4512,-5.4512,-5.4512,-5.4512,-5.4512,-5.4512,-5.4512,-5.4512,-5.4399,-5.4239,-5.4207,-5.3996,-5.375,-5.375,-5.3733,-5.3684,-5.3551,-5.2503,-5.1185,-5.1185,-5.0219,-4.9001,-4.9001,-4.9001,-4.9001,-4.9001,-4.9001,-4.9001,-4.9001,-4.9001,-4.9001,-4.9001,-4.8376,-4.7986,-4.8731,-4.824,-4.7885,-4.8612,-4.7631,-4.6667,-4.6667,-4.55,-4.4485,-4.4155,-4.3185,-4.2411,-4.2126,-4.1156,-4.0489,-4.0489,-4.0165,-3.9284,-3.7717,-3.7729,-3.7339,-3.6219,-3.6443,-3.6599,-3.6599,-3.6599,-3.6537,-3.6349,-3.646,-3.646,-3.6349,-3.646,-3.6492,-3.6492,-3.6492,-3.6492,-3.3445,-3.4357,-3.5508,-3.6626,-3.6722,-3.6827,-3.7901,-3.8203,-3.8594,-3.9721,-4.1516,-4.2982,-4.3293,-4.4596,-4.5734,-4.6035,-4.7345,-4.8448,-4.8758,-4.9482,-5.0011,-5.0011,-5.0925,-5.1752,-5.2153,-5.3218,-5.4046,-5.4477,-5.4512,-5.4512,-5.4512,-5.4512,-5.4512,-5.4512,-5.4512,-5.4512,-5.4512,-5.4512,-5.4512,-5.4512,-5.4512,-5.4512,-5.4512,-5.4512,-5.4512,-5.4512,-5.4512,-5.4512,-5.4512,-5.4512,-5.4448,-5.4367,-5.4239,-5.4093,-5.3963,-5.3766,-5.3651,-5.3517,-5.2993,-5.2114,-5.115,-5.071,-4.9847,-4.9001,-4.9001,-4.9001,-4.9001,-4.9001,-4.9001,-4.9001,-4.9001,-4.9001,-4.9001,-4.9001,-4.8443,-4.8091,-4.8849,-4.8426,-4.8108,-4.8866,-4.78,-4.6786,-4.6786,-4.5596,-4.4485,-4.4155,-4.3185,-4.2411,-4.2126,-4.1156,-4.0455,-4.0401,-4.0277,-3.9519,-3.7896,-3.7962,-3.7501,-3.6208,-3.6352,-3.6492,-3.6492,-3.6383,-3.6274,-3.6196,-3.6274,-3.6274,-3.6196,-3.6383,-3.6492,-3.6492,-3.6492,-3.6492,-3.4839,-3.5807,-3.6846,-3.7831,-3.782,-3.7933,-3.9323,-3.9542,-3.9876,-4.1317,-4.2926,-4.4205,-4.4638,-4.5641,-4.6514,-4.6892,-4.782,-4.8637,-4.9051,-4.9648,-5.0011,-5.0011,-5.0476,-5.1097,-5.1808,-5.2822,-5.3632,-5.4167,-5.4391,-5.4512,-5.4512,-5.4512,-5.4512,-5.4512,-5.4512,-5.4512,-5.4512,-5.4512,-5.4512,-5.4512,-5.4512,-5.4512,-5.4512,-5.4512,-5.4512,-5.4512,-5.4512,-5.4512,-5.4512,-5.4512,-5.448,-5.4399,-5.4271,-5.4175,-5.411,-5.3865,-5.3701,-5.3432,-5.257,-5.1826,-5.1099,-5.0338,-4.9593,-4.9001,-4.9001,-4.9001,-4.9001,-4.9001,-4.9001,-4.9001,-4.9001,-4.9001,-4.9001,-4.9001,-4.8595,-4.8359,-4.8883,-4.8595,-4.8376,-4.89,-4.78,-4.6786,-4.6786,-4.5596,-4.4485,-4.4155,-4.3185,-4.2411,-4.2126,-4.1156,-4.0359,-4.0036,-4.0021,-3.9367,-3.7855,-3.7854,-3.7434,-3.6272,-3.6383,-3.6492,-3.6414,-3.6274,-3.6164,-3.607,-3.6133,-3.6179,-3.6148,-3.6383,-3.6492,-3.6492,-3.6492,-3.6492,-3.5004,-3.6211,-3.7429,-3.728,-3.7523,-3.8133,-3.9404,-3.929,-3.9772,-4.2804,-4.3489,-4.3976,-4.5482,-4.5778,-4.6274,-4.7642,-4.78,-4.8269,-4.9752,-4.9993,-5.0011,-5.0011,-5.0028,-5.0338,-5.108,-5.2511,-5.3408,-5.3442,-5.4098,-5.4512,-5.4512,-5.4512,-5.4512,-5.4512,-5.4512,-5.4512,-5.4512,-5.4512,-5.4512,-5.4512,-5.4512,-5.4512,-5.4512,-5.4512,-5.4512,-5.4512,-5.4512,-5.4512,-5.4512,-5.4512,-5.4367,-5.4207,-5.419,-5.411,-5.4013,-5.398,-5.3849,-5.3565,-5.2636,-5.1826,-5.1099,-5.0338,-4.9593,-4.9001,-4.9001,-4.9001,-4.9001,-4.9001,-4.9001,-4.9001,-4.9001,-4.9001,-4.9001,-4.9001,-4.8984,-4.8984,-4.9001,-4.8984,-4.8984,-4.9001,-4.78,-4.6786,-4.6786,-4.5596,-4.4485,-4.4155,-4.3185,-4.2411,-4.2126,-4.1156,-4.0159,-3.9314,-3.9237,-3.865,-3.7157,-3.7168,-3.6945,-3.6241,-3.6383,-3.6414,-3.6211,-3.6196,-3.6038,-3.572,-3.6038,-3.6148,-3.6005,-3.6336,-3.6492,-3.6492,-3.6492,-3.6492,-3.6358,-3.707,-3.7719,-3.864,-3.8782,-3.9103,-4.0518,-4.0728,-4.1103,-4.2752,-4.3425,-4.4067,-4.5172,-4.5712,-4.6469,-4.7936,-4.8308,-4.8792,-4.9855,-5.0011,-5.0011,-5.0011,-5.0011,-5.0097,-5.0355,-5.1735,-5.2839,-5.3356,-5.408,-5.4512,-5.4512,-5.4512,-5.4512,-5.4512,-5.4977,-5.4994,-5.4512,-5.4994,-5.4994,-5.4512,-5.4512,-5.4512,-5.4512,-5.4512,-5.4512,-5.4512,-5.4512,-5.4512,-5.4512,-5.4512,-5.448,-5.4399,-5.4399,-5.4367,-5.4321,-5.4175,-5.3785,-5.3141,-5.2134,-5.1195,-5.0355,-4.961,-4.9204,-4.9001,-4.9001,-4.9001,-4.9001,-4.9001,-4.9001,-4.9001,-4.9001,-4.9001,-4.9001,-4.9001,-4.9001,-4.9001,-4.9001,-4.9001,-4.9001,-4.9001,-4.78,-4.6786,-4.6786,-4.5596,-4.4253,-4.3199,-4.2569,-4.1948,-4.1156,-4.0715,-4.0228,-3.9484,-3.9407,-3.8836,-3.747,-3.7364,-3.7104,-3.646,-3.646,-3.646,-3.6383,-3.6195,-3.6022,-3.5894,-3.6005,-3.6068,-3.6005,-3.6336,-3.6492,-3.6507,-3.6953,-3.7153,-3.7125,-3.7713,-3.8141,-3.9056,-3.9081,-3.9278,-4.0688,-4.0897,-4.12,-4.2732,-4.3313,-4.392,-4.5117,-4.567,-4.6509,-4.8171,-4.8491,-4.8899,-4.9925,-5.0022,-5.0011,-5.0011,-5.0011,-5.0114,-5.0373,-5.1511,-5.2394,-5.2942,-5.3684,-5.4236,-5.4494,-5.4512,-5.4512,-5.4512,-5.5236,-5.527,-5.4512,-5.5236,-5.5236,-5.4512,-5.4512,-5.4512,-5.4512,-5.4512,-5.4512,-5.4512,-5.4512,-5.4512,-5.4512,-5.4512,-5.4512,-5.4512,-5.4512,-5.4512,-5.448,-5.4367,-5.3619,-5.2629,-5.2077,-5.1325,-5.0466,-4.9658,-4.939,-4.934,-4.9086,-4.9001,-4.9001,-4.9001,-4.9001,-4.9001,-4.9001,-4.9001,-4.9001,-4.9001,-4.9001,-4.9001,-4.9001,-4.9001,-4.9001,-4.9001,-4.78,-4.6786,-4.6786,-4.5464,-4.4035,-4.2894,-4.2428,-4.1785,-4.0662,-4.0489,-4.0136,-3.9262,-3.9154,-3.8616,-3.7261,-3.7138,-3.6953,-3.6522,-3.6492,-3.646,-3.6383,-3.6195,-3.6037,-3.5894,-3.6005,-3.6068,-3.6005,-3.6336,-3.6492,-3.6507,-3.7184,-3.7507,-3.7345,-3.812,-3.8658,-3.8525,-3.8499,-3.8808,-4.0041,-3.9953,-4.027,-4.2704,-4.3083,-4.3505,-4.5143,-4.5535,-4.629,-4.8342,-4.8347,-4.862,-5.002,-5.0092,-5.0011,-5.0011,-5.0045,-5.0338,-5.1045,-5.1787,-5.2205,-5.2239,-5.3011,-5.377,-5.4477,-5.4512,-5.4512,-5.4512,-5.5236,-5.527,-5.4512,-5.5201,-5.5201,-5.4512,-5.4512,-5.4512,-5.4512,-5.4512,-5.4512,-5.4512,-5.4512,-5.4512,-5.4512,-5.4512,-5.4512,-5.4512,-5.4512,-5.4512,-5.448,-5.4512,-5.3452,-5.2063,-5.2486,-5.2102,-5.1303,-5.0466,-5.0149,-4.9965,-4.9272,-4.9035,-4.9001,-4.9001,-4.9001,-4.9001,-4.9001,-4.9001,-4.9001,-4.9001,-4.9001,-4.9001,-4.9001,-4.9001,-4.8984,-4.8951,-4.775,-4.6718,-4.6684,-4.5269,-4.3894,-4.3218,-4.2743,-4.198,-4.0696,-4.0524,-4.0016,-3.8708,-3.8554,-3.8031,-3.6707,-3.6569,-3.6538,-3.6538,-3.6507,-3.6414,-3.6211,-3.6211,-3.6038,-3.572,-3.6068,-3.6194,-3.6051,-3.6412,-3.6599,-3.6615,-3.7292,-3.76,-3.8175,-3.8542,-3.8692,-3.8658,-3.9082,-3.9715,-4.0502,-4.065,-4.0853,-4.1713,-4.1703,-4.1948,-4.3268,-4.4018,-4.5327,-4.8041,-4.8385,-4.8828,-5.0292,-5.0206,-5.0011,-5.0011,-5.0493,-5.0907,-5.1097,-5.1787,-5.2459,-5.3063,-5.3804,-5.4305,-5.4494,-5.4512,-5.4512,-5.4512,-5.5236,-5.527,-5.4512,-5.4701,-5.4701,-5.4512,-5.4512,-5.4512,-5.4512,-5.4512,-5.4512,-5.4512,-5.4512,-5.4512,-5.4512,-5.4512,-5.4512,-5.4512,-5.4512,-5.4399,-5.4303,-5.4431,-5.3452,-5.2094,-5.2755,-5.1967,-5.0725,-5.1051,-5.0684,-5.005,-4.9864,-4.9441,-4.9001,-4.9001,-4.9001,-4.9001,-4.9001,-4.9001,-4.9001,-4.9001,-4.9001,-4.9001,-4.9001,-4.9001,-4.8849,-4.8308,-4.7005,-4.5805,-4.5275,-4.4665,-4.4064,-4.3469,-4.3141,-4.2444,-4.1122,-4.0833,-4.0337,-3.9354,-3.9228,-3.8908,-3.8061,-3.7538,-3.7246,-3.7246,-3.6769,-3.6492,-3.6414,-3.6274,-3.6164,-3.607,-3.6668,-3.6912,-3.6896,-3.7642,-3.8,-3.8015,-3.8692,-3.9,-3.8487,-3.8707,-3.8707,-3.8707,-3.9294,-3.9978,-4.0221,-4.0474,-4.0714,-4.092,-4.0789,-4.1111,-4.2568,-4.3281,-4.4603,-4.7493,-4.7998,-4.8555,-4.9958,-5.0066,-5.0011,-5.0011,-5.0666,-5.1235,-5.1533,-5.2287,-5.3063,-5.3822,-5.3977,-5.4167,-5.4494,-5.4512,-5.4512,-5.4512,-5.5236,-5.5408,-5.4994,-5.4667,-5.4512,-5.4512,-5.4512,-5.4512,-5.4512,-5.4512,-5.4512,-5.4512,-5.4512,-5.4512,-5.4512,-5.4512,-5.4512,-5.4512,-5.4399,-5.4207,-5.3996,-5.411,-5.312,-5.1859,-5.2689,-5.1893,-5.0598,-5.1284,-5.1089,-5.0524,-5.0185,-4.9576,-4.9001,-4.9001,-4.9001,-4.9001,-4.9001,-4.9001,-4.9001,-4.9001,-4.9001,-4.9001,-4.9001,-4.9001,-4.8697,-4.7631,-4.6498,-4.5466,-4.4733,-4.444,-4.4179,-4.3827,-4.3459,-4.2881,-4.19,-4.1307,-4.0637,-3.9619,-3.949,-3.9247,-3.8569,-3.8169,-3.7815,-3.7523,-3.7153,-3.6799,-3.6507,-3.6659,-3.6718,-3.6639,-3.7376,-3.7728,-3.7663,-3.8225,-3.8508,-3.8523,-3.92,-3.949,-3.867,-3.8781,-3.8707,-3.8707,-3.9294,-3.985,-3.9654,-3.984,-4.0094,-4.0113,-3.9932,-4.0275,-4.1977,-4.2559,-4.3723,-4.669,-4.7265,-4.7876,-4.9433,-4.974,-4.989,-4.9993,-5.0752,-5.1481,-5.2136,-5.3028,-5.3822,-5.446,-5.3908,-5.3839,-5.4477,-5.4512,-5.4512,-5.4512,-5.5132,-5.546,-5.546,-5.4822,-5.4512,-5.4512,-5.4512,-5.4512,-5.4512,-5.4512,-5.4512,-5.4512,-5.4512,-5.4512,-5.4512,-5.4512,-5.448,-5.4448,-5.4239,-5.3931,-5.3634,-5.36,-5.2617,-5.1446,-5.2284,-5.1714,-5.069,-5.133,-5.131,-5.0947,-5.0287,-4.9576,-4.9001,-4.9001,-4.9001,-4.9001,-4.9001,-4.9001,-4.9001,-4.9001,-4.9001,-4.9001,-4.9001,-4.8849,-4.8308,-4.6921,-4.6058,-4.5348,-4.4716,-4.4468,-4.4281,-4.4184,-4.3805,-4.3325,-4.2803,-4.1932,-4.097,-3.9843,-3.968,-3.9416,-3.8831,-3.8692,-3.8354,-3.7677,-3.7631,-3.7338,-3.6661,-3.7277,-3.7566,-3.7374,-3.8194,-3.858,-3.8463,-3.8673,-3.8785,-3.8785,-3.9351,-3.9613,-3.9643,-3.9203,-3.8707,-3.8707,-3.9294,-3.9866,-3.9719,-3.9524,-3.9227,-3.875,-3.7977,-3.7761,-3.8957,-3.9886,-4.1656,-4.5326,-4.5946,-4.6867,-4.9558,-4.9391,-4.924,-4.9924,-5.12,-5.205,-5.217,-5.3494,-5.4374,-5.4494,-5.4391,-5.4374,-5.4494,-5.4512,-5.4512,-5.4512,-5.4632,-5.4701,-5.4701,-5.4563,-5.4512,-5.4512,-5.4512,-5.4512,-5.4512,-5.4512,-5.4512,-5.4512,-5.4512,0.0,-5.4512,-5.4512,-5.4399,-5.4239,-5.3915,-5.3567,-5.3247,-5.3025,-5.2118,-5.1023,-5.1352,-5.1004,-5.0567,-5.1393,-5.1048,-5.027,-5.0135,-4.9576,-4.9001,-4.9001,-4.9001,-4.9001,-4.9001,-4.9001,-4.9001,-4.9001,-4.9001,-4.9001,-4.9001,-4.8037,-4.6921,-4.6058,-4.5297,-4.4767,-4.4632,-4.457,-4.4542,-4.4514,-4.4298,-4.396,-4.3393,-4.2444,-4.154,-4.0899,-4.0681,-4.0464,-4.0185,-3.9644,-3.9046,-3.8385,-3.8338,-3.8031,-3.7353,-3.7984,-3.8306,-3.8258,-3.8967,-3.9321,-3.9272,-3.9874,-4.0136,-4.0151,-4.0259,-4.032,-4.001,-3.9625,-3.9221,-3.8799,-3.9294,-3.9756,-3.9202,-3.8913,-3.858,-3.7865,-3.6999,-3.6799,-3.8211,-3.8905,-4.0386,-4.3798,-4.4816,-4.606,-4.854,-4.8968,-4.9422,-5.0524,-5.1575,-5.2343,-5.2787,-5.3856,-5.4512,-5.4512,-5.4512,-5.4512,-5.4512,-5.4512,-5.4512,-5.4512,-5.4512,-5.4512,-5.4512,-5.4512,-5.4512,-5.4512,-5.4512,-5.4512,-5.4512,-5.4512,-5.4512,-5.4512,-5.4512,-5.4512,-5.4512,-5.4367,-5.4175,-5.3915,-5.3567,-5.3093,-5.2505,-5.2053,-5.1222,-5.0309,-5.0225,-4.9912,-4.9608,-5.0136,-5.021,-5.0084,-5.0084,-4.9576,-4.9001,-4.9001,-4.9001,-4.9001,-4.9001,-4.9001,-4.9001,-4.9001,-4.9001,-4.89,-4.8528,-4.7581,-4.6583,-4.5838,-4.5094,-4.4615,-4.4615,-4.4615,-4.4615,-4.4615,-4.444,-4.4179,-4.3856,-4.3143,-4.2333,-4.1392,-4.114,-4.0779,-4.0031,-3.9674,-3.9077,-3.8046,-3.8323,-3.82,-3.7523,-3.8492,-3.9031,-3.9031,-3.9659,-4.0013,-4.0013,-4.0336,-4.0489,-4.0489,-4.0489,-4.0489,-4.0543,-4.0157,-3.9753,-3.9129,-3.9294,-3.9389,-3.8502,-3.811,-3.7716,-3.6897,-3.6079,-3.5966,-3.7467,-3.7854,-3.8957,-4.2174,-4.3493,-4.4979,-4.7404,-4.8484,-4.9562,-5.0979,-5.1751,-5.2528,-5.3322,-5.408,-5.4512,-5.4512,-5.4512,-5.4512,-5.4512,-5.4512,-5.4512,-5.4512,-5.4512,-5.4512,-5.4512,-5.4512,-5.4512,-5.4512,-5.4512,-5.4512,-5.4512,-5.4512,-5.4512,-5.4512,-5.4512,-5.4512,-5.448,-5.4335,-5.4028,-5.3667,-5.3264,-5.2661,-5.1905,-5.1106,-5.0383,-4.9696,-4.9326,-4.8957,-4.8688,-4.8829,-4.9328,-4.9847,-4.9847,-4.9458,-4.9001,-4.9001,-4.9001,-4.9001,-4.9001,-4.9001,-4.9001,-4.9001,-4.9001,-4.8748,-4.7868,-4.7208,-4.6532,-4.5635,-4.4993,-4.4615,-4.4615,-4.4615,-4.4615,-4.4615,-4.4468,-4.4327,-4.4212,-4.3818,-4.3066,-4.1836,-4.1491,-4.0903,-3.9819,-3.9705,-3.9216,-3.8,-3.8569,-3.8646,-3.7954,-3.9093,-3.9705,-3.9705,-4.0228,-4.0489,-4.0489,-4.0489,-4.0489,-4.0489,-4.0489,-4.0489,-4.1901,-4.1001,-3.9879,-3.9808,-3.9294,-3.8597,-3.7771,-3.7022,-3.6252,-3.538,-3.4568,-3.4275,-3.5155,-3.532,-3.6611,-4.0471,-4.1542,-4.3141,-4.6747,-4.797,-4.9004,-5.0425,-5.154,-5.2528,-5.3322,-5.408,-5.4512,-5.4512,-5.4512,-5.4512,-5.4512,-5.4512,-5.4512,-5.4512,-5.4512,-5.4512,-5.4512,-5.4512,-5.4512,-5.4512,-5.4512,-5.4512,-5.4512,-5.4512,-5.4512,-5.4512,-5.4512,-5.4512,0.0,-5.448,-5.4175,-5.3634,-5.306,-5.2503,-5.1865,-5.0652,-4.9935,-4.9555,-4.9021,-4.8712,-4.8515,-4.8547,-4.8786,-4.9103,-4.9103,-4.9052,-4.9001,-4.9001,-4.9001,-4.9001,-4.9001,-4.9001,-4.9001,-4.9001,-4.9001,-4.8612,-4.7208,-4.6836,-4.6363,-4.4987,-4.4649,-4.4615,-4.4615,-4.4615,-4.4615,-4.4615,-4.457,-4.457,-4.4559,-4.4258,-4.3608,-4.252,-4.19,-4.1258,-4.0466,-4.0397,-4.009,-3.9351,-3.9936,-4.0013,-3.9321,-4.0013,-4.0397,-4.0397,-4.0459,-4.0489,-4.0489,-4.0489,-4.0489,-4.0489,-4.0489,-4.0489,-4.1625,-4.1111,-4.0506,-4.001,-3.9294,-3.8487,-3.7676,-3.6886,-3.6046,-3.5188,-3.4362,-3.4045,-3.4857,-3.5426,-3.6736,-3.9701,-4.1119,-4.2956,-4.6146,-4.7346,-4.8598,-5.0466,-5.1211,-5.2046,-5.3287,-5.3667,-5.4029,-5.4477,-5.4512,-5.4512,-5.4512,-5.4512,-5.4512,-5.4512,-5.4512,-5.4512,-5.4512,-5.4512,-5.4512,-5.4512,-5.4512,-5.4512,-5.4512,-5.4512,-5.4512,-5.4512,-5.4512,-5.4512,0.0,-5.4367,-5.3787,-5.2938,-5.2489,-5.1641,-5.0549,-4.9526,-4.8926,-4.86,-4.8142,-4.8101,-4.8212,-4.8292,-4.8339,-4.837,-4.8642,-4.8784,-4.8894,-4.8894,-4.8956,-4.9001,-4.9001,-4.9001,-4.9001,-4.9001,-4.9001,-4.8731,-4.7682,-4.7462,-4.7039,-4.5551,-4.5263,-4.5111,-4.4682,-4.4615,-4.4615,-4.4615,-4.4615,-4.4615,-4.4615,-4.4315,-4.3684,-4.2614,-4.2126,-4.1349,-4.0023,-3.989,-3.9598,-3.8954,-3.9521,-3.9767,-3.949,-4.0136,-4.0489,-4.0489,-4.0489,-4.0489,-4.0489,-4.0489,-4.0489,-4.0489,-4.0489,-4.0489,-4.1479,-4.1444,-4.1258,-4.0469,-3.9643,-3.8726,-3.7437,-3.6707,-3.5991,-3.4876,-3.4192,-3.4045,-3.4857,-3.55,-3.6751,-3.9328,-4.0873,-4.2741,-4.5612,-4.6816,-4.8074,-4.9996,-5.055,-5.1304,-5.2597,-5.3132,-5.3718,-5.4443,-5.4512,-5.4512,-5.4512,-5.4512,-5.4512,-5.4512,-5.4512,-5.4512,-5.4512,-5.4512,-5.4512,-5.4512,-5.4512,-5.4512,-5.4512,-5.4512,-5.4512,-5.4512,-5.4512,-5.4512,0.0,-5.4335,-5.3753,-5.2917,-5.2555,-5.1512,-5.0095,-4.911,-4.8402,-4.7826,-4.7409,-4.7487,-4.782,-4.7836,-4.7803,-4.7787,-4.7967,-4.8243,-4.8547,-4.8675,-4.8846,-4.9001,-4.9001,-4.9001,-4.9001,-4.9001,-4.9001,-4.8798,-4.8041,-4.7889,-4.7449,-4.5991,-4.5703,-4.5466,-4.4733,-4.4615,-4.4615,-4.4615,-4.4615,-4.4615,-4.4615,-4.4315,-4.3684,-4.2614,-4.2253,-4.1481,-3.9915,-3.9782,-3.9582,-3.9105,-3.9521,-3.9782,-3.9782,-4.0243,-4.0489,-4.0489,-4.0489,-4.0489,-4.0489,-4.0489,-4.0489,-4.0489,-4.0489,-4.0489,-4.1864,-4.2286,-4.2084,-4.1279,-4.0487,-3.9258,-3.6853,-3.6303,-3.5826,-3.4156,-3.3807,-3.4045,-3.4857,-3.5023,-3.6087,-3.9368,-4.0579,-4.2165,-4.5184,-4.6298,-4.7299,-4.8671,-4.953,-5.0304,-5.1063,-5.2511,-5.3718,-5.4443,-5.4512,-5.4512,-5.4512,-5.4512,-5.4512,-5.4512,-5.4512,-5.4512,-5.4512,-5.4512,-5.4512,-5.4512,-5.4512,-5.4512,-5.4512,-5.4512,-5.4512,-5.4512,-5.4512,-5.4512,0.0,-5.4512,-5.4303,-5.3931,-5.355,-5.247,-5.1028,-4.9742,-4.8596,-4.7596,-4.684,-4.6963,-4.7337,-4.7014,-4.715,-4.7337,-4.7014,-4.7388,-4.7999,-4.8403,-4.8736,-4.9001,-4.9001,-4.9001,-4.9001,-4.9001,-4.9001,-4.8798,-4.8041,-4.7889,-4.7449,-4.5991,-4.5703,-4.5466,-4.4733,-4.4615,-4.4615,-4.4615,-4.4615,-4.4615,-4.4615,-4.4315,-4.3684,-4.2614,-4.2253,-4.1671,-4.0578,-4.0489,-4.0489,-4.0474,-4.0489,-4.0489,-4.0489,-4.0489,-4.0489,-4.0489,-4.0489,-4.0489,-4.0489,-4.0489,-4.0489,-4.0489,-4.0489,-4.0489,-3.9698,-4.0249,-4.0598,-4.0341,-3.9258,-3.7915,-3.6597,-3.5844,-3.5096,-3.4027,-3.3807,-3.4045,-3.4857,-3.5481,-3.678,-3.946,-4.0579,-4.2147,-4.5184,-4.6259,-4.7252,-4.8654,-5.0391,-5.1614,-5.1808,-5.3253,-5.4253,-5.4494,-5.4512,-5.4512,-5.4512,-5.4512,-5.4512,-5.4512,-5.4512,-5.4512,-5.4512,-5.4512,-5.4253,-5.3753,-5.3753,-5.3477,-5.2942,-5.2942,-5.2942,-5.2946,-5.3511,-5.3753,-5.3787,-5.4305,-5.4138,-5.3547,-5.3196,-5.1861,-5.0026,-4.9255,-4.8025,-4.6712,-4.6487,-4.6512,-4.6636,-4.6512,-4.6391,-4.6234,-4.6285,-4.6878,-4.7737,-4.85,-4.8769,-4.8894,-4.8987,-4.9001,-4.9001,-4.9001,-4.9001,-4.8951,-4.8714,-4.8663,-4.8223,-4.6735,-4.6447,-4.6058,-4.4818,-4.4615,-4.4615,-4.4615,-4.4615,-4.4615,-4.4615,-4.4315,-4.3684,-4.2614,-4.2253,-4.1687,-4.0593,-4.0489,-4.0489,-4.0489,-4.0489,-4.0489,-4.0489,-4.0489,-4.0489,-4.0489,-4.0489,-4.0489,-4.0489,-4.0489,-4.0489,-4.0489,-4.0489,-4.0489,-3.8006,-3.8836,-3.9368,-3.9071,-3.8245,-3.7199,-3.6064,-3.5389,-3.4766,-3.3972,-3.3807,-3.4156,-3.5279,-3.5936,-3.7184,-3.9918,-4.0781,-4.2147,-4.5184,-4.6007,-4.7027,-4.9013,-5.076,-5.2028,-5.2615,-5.3529,-5.4201,-5.4494,-5.4512,-5.4512,-5.4512,-5.4512,-5.4512,-5.4512,-5.4512,-5.4512,-5.4512,-5.4236,-5.3856,-5.3408,-5.3097,-5.2684,-5.2188,-5.2188,-5.2188,-5.2222,-5.2735,-5.2959,0.0,-5.377,-5.3773,-5.3283,-5.3128,-5.1777,-4.9825,-4.917,-4.7807,-4.6282,-4.614,-4.6124,-4.6179,-4.6032,-4.578,-4.5546,-4.5713,-4.6461,-4.7387,-4.8211,-4.8564,-4.8738,-4.8956,-4.9001,-4.9001,-4.9001,-4.9001,-4.9001,-4.9001,-4.8781,-4.824,-4.7022,-4.6583,-4.5991,-4.4818,-4.4615,-4.4615,-4.4615,-4.4615,-4.4615,-4.4615,-4.4315,-4.3684,-4.2614,-4.2253,-4.1687,-4.0593,-4.0489,-4.0489,-4.0489,-4.0489,-4.0489,-4.0489,-4.0489,-4.0489,-4.0489,-4.0489,-4.0489,-4.0489,-4.0489,-4.0489,-4.0505,-4.0782,-4.094,0.0,-3.7841,-3.8358,-3.7603,-3.7364,-3.6923,-3.5353,-3.4968,0.0,-3.3954,-3.3844,-3.4376,-3.5991,-3.6395,-3.7463,-4.0565,-4.117,-4.2294,-4.5256,-4.5842,-4.7011,-4.9746,-5.0787,-5.1839,-5.327,-5.346,-5.377,-5.446,-5.4512,-5.4512,-5.4512,-5.4512,-5.4512,-5.4512,-5.4512,-5.4477,-5.4425,-5.3753,-5.3339,-5.3235,-5.2494,-5.2084,-5.2033,-5.2033,-5.2033,0.0,-5.2084,-5.2101,-5.217,-5.2963,-5.318,-5.3009,-5.3175,-5.2001,-5.0191,-4.9341,-4.7877,-4.6262,-4.5916,-4.5868,-4.5893,-4.5557,-4.5331,-4.5167,-4.5326,-4.6036,-4.6963,-4.7671,-4.8145,-4.8515,-4.8877,-4.897,-4.897,-4.897,-4.897,-4.9001,-4.9001,-4.8426,-4.7699,-4.6938,-4.621,-4.5466,-4.4733,-4.4615,-4.4615,-4.4615,-4.4615,-4.4615,-4.4615,-4.4315,-4.3684,-4.2614,-4.2253,-4.1687,-4.0593,-4.0489,-4.0489,-4.0489,-4.0489,-4.0489,-4.0489,-4.0489,-4.0489,-4.0489,-4.0489,-4.0489,-4.0489,-4.0489,-4.052,-4.0582,-4.1294,-4.1632,-3.3425,0.0,-3.6817,-3.6615,-3.6083,-3.5481,0.0,-3.4509,-3.4027,-3.3844,-3.4302,-3.5009,-3.5959,-3.7153,-3.8622,-4.0565,-4.1987,-4.3706,-4.6107,-4.8427,-5.0119,-5.0754,-5.2046,-5.3011,-5.3356,-5.3908,-5.4322,-5.4494,-5.4512,-5.4512,-5.4512,-5.4512,-5.4512,-5.4512,-5.4512,-5.4236,-5.3667,-5.3494,-5.2822,-5.1649,-5.1459,-5.108,-5.0528,-5.0528,-5.0528,-5.0562,-5.1132,-5.1373,-5.1395,-5.2079,-5.2155,-5.1855,-5.164,-5.0576,-4.9107,-4.8676,-4.7548,-4.623,-4.59,-4.563,-4.5305,-4.4949,-4.4776,-4.4739,-4.4799,-4.5458,-4.6391,-4.7287,-4.7721,-4.8,-4.8483,-4.861,-4.8658,-4.8801,-4.8849,-4.8863,-4.897,-4.8426,-4.7699,-4.6938,-4.621,-4.5466,-4.4733,-4.4615,-4.4615,-4.4615,-4.4615,-4.4615,-4.4615,-4.4315,-4.3684,-4.2614,-4.2253,-4.1687,-4.0593,-4.0489,-4.0489,-4.0489,-4.0489,-4.0489,-4.0489,-4.0489,-4.0489,-4.0489,-4.0489,-4.0489,-4.0489,-4.0489,-4.0782,-4.1355,-4.1524,-4.1878,-3.1923,-3.3403,-3.4688,-3.5055,-3.4798,-3.4454,-3.4454,-3.4119,-3.3807,-3.3807,-3.4435,-3.5343,-3.6442,-3.7544,-3.9049,-4.1413,-4.2595,-4.4139,-4.687,-4.9209,-5.0892,-5.1531,-5.2684,-5.3529,-5.3873,-5.427,-5.4512,-5.4512,-5.4512,-5.4512,-5.4512,-5.4512,-5.4512,-5.4512,-5.4512,-5.4149,-5.3408,-5.3046,-5.227,-5.1114,-5.0769,-5.039,-5.0011,-5.0011,-5.0011,-5.0028,-5.0424,-5.0614,-5.0636,-5.1318,-5.1336,-5.0932,-5.0837,-4.9909,-4.8606,-4.8067,-4.7155,-4.6156,-4.59,-4.5552,-4.5114,-4.4739,-4.461,-4.461,-4.461,-4.5008,-4.564,-4.641,-4.6844,-4.7168,-4.7622,-4.7869,-4.8081,-4.8339,-4.8515,-4.8721,-4.894,-4.8156,-4.7276,-4.687,-4.5923,-4.506,-4.4682,-4.4615,-4.4615,-4.4615,-4.4615,-4.4615,-4.4615,-4.4315,-4.3684,-4.2614,-4.2253,-4.1687,-4.0593,-4.0489,-4.0489,-4.0489,-4.0489,-4.0489,-4.0489,-4.0489,-4.0489,-4.0489,-4.0489,-4.0489,-4.0489,-4.0828,-4.1217,-4.1617,-4.2217,-4.2694,-3.1362,-3.2078,-3.2821,-3.3752,-3.4082,-3.4174,-3.4174,-3.4174,-3.4174,-3.4174,-3.4821,-3.5819,-3.7214,-3.8089,-3.9551,-4.2504,-4.3389,-4.4795,-4.7825,-4.9454,-5.0785,-5.2067,-5.2925,-5.3701,-5.4443,-5.4512,-5.4512,-5.4512,-5.4512,-5.4512,-5.4512,-5.4512,-5.4512,-5.4512,-5.4512,-5.4098,-5.3235,-5.2546,-5.1757,-5.0925,-5.0304,-5.0011,-5.0011,-5.0011,-5.0011,-5.0011,-5.0011,0.0,-5.0062,-5.0654,-5.0579,-5.0136,-5.0236,-4.946,-4.8186,-4.7535,-4.6769,-4.6024,-4.5807,-4.5478,-4.5092,-4.4739,-4.461,-4.461,-4.461,-4.4723,-4.4949,-4.5384,-4.5857,-4.6285,-4.6655,-4.7015,-4.7354,-4.7737,-4.8129,-4.8483,-4.8877,-4.7889,-4.6891,-4.6819,-4.5715,-4.4733,-4.4632,-4.4615,-4.4615,-4.4615,-4.4615,-4.4615,-4.4615,-4.4315,-4.3713,-4.2693,-4.2333,-4.172,-4.0696,-4.0558,-4.0524,-4.0489,-4.0489,-4.0489,-4.0489,-4.0489,-4.0489,-4.0489,-4.0489,-4.0489,-4.0489,-4.1247,-4.1648,-4.1786,-4.3039,-4.3655,-3.1214,-3.2078,-3.2949,-3.4435,-3.5367,-3.5917,-3.5917,-3.5917,-3.5917,-3.5917,-3.6574,-3.7341,-3.8086,-3.9869,-4.156,-4.2641,-4.5432,-4.8023,-4.9628,-5.0911,-5.1819,-5.2158,-5.2925,-5.3701,-5.4443,-5.4512,-5.4512,-5.4512,-5.4512,-5.4512,-5.4512,-5.4512,-5.4512,-5.4512,-5.4512,-5.3822,-5.2377,-5.2239,-5.1498,-5.0183,-5.0062,-5.0011,-5.0011,-5.0011,-5.0011,-5.0011,0.0,-5.0011,-5.0011,-4.9951,-4.9684,-4.9335,-4.8974,-4.8183,-4.7281,-4.6883,-4.6342,-4.5796,-4.5431,-4.5151,-4.4911,-4.4685,-4.461,-4.461,-4.461,-4.461,-4.4648,-4.4761,-4.5237,-4.5877,-4.6285,-4.6547,-4.686,-4.7371,-4.7655,-4.8,-4.8675,-4.811,-4.7349,-4.6874,-4.6109,-4.5331,-4.4716,-4.4615,-4.4615,-4.4615,-4.4615,-4.4615,-4.4615,-4.4315,-4.3818,-4.3096,-4.2618,-4.198,-4.1104,-4.0867,-4.0696,-4.0489,-4.0489,-4.0489,-4.0489,-4.0489,-4.0489,-4.0489,-4.0489,-4.0489,-4.0489,-4.1247,-4.1894,-4.2479,-4.3254,-4.3917,-3.1137,-3.2384,-3.3642,-3.5279,-3.6321,-3.707,-3.7496,-3.7606,-3.7606,-3.7606,-3.7881,-3.8493,-3.954,-4.0796,-4.2427,-4.4647,-4.7187,-4.9061,-4.978,-5.0285,-5.0858,-5.1536,-5.1942,-5.2459,-5.3201,-5.3667,-5.3908,-5.3908,-5.4287,-5.4512,-5.4512,-5.4512,-5.4512,-5.4512,-5.4512,-5.377,-5.2205,-5.2188,-5.1447,-5.0011,-5.0011,-5.0011,-5.0011,-5.0011,-5.0011,-5.0011,0.0,-5.0011,-5.0011,-4.9889,-4.9666,-4.9303,-4.8813,-4.7983,-4.7015,-4.614,-4.5703,-4.541,-4.5136,-4.4986,-4.4874,-4.4648,-4.461,-4.461,-4.461,-4.461,-4.461,-4.461,-4.4858,-4.5142,-4.5326,-4.5619,-4.5945,-4.6375,-4.6878,-4.7454,-4.8162,-4.7897,-4.7362,-4.6908,-4.621,-4.5466,-4.4733,-4.4615,-4.4615,-4.4615,-4.4615,-4.4615,-4.4615,-4.4355,-4.3977,-4.3366,-4.2988,-4.2381,-4.1392,-4.1174,-4.0919,-4.0524,-4.0489,-4.0489,-4.0489,-4.0489,-4.0489,-4.0489,-4.0489,-4.0489,-4.0489,-4.1617,-4.2309,-4.2633,-4.3648,-4.4317,-3.1047,-3.2487,-3.4009,-3.6064,-3.7199,-3.7988,-3.8799,-3.8982,-3.9038,-3.9221,-3.9258,-3.9722,-4.1216,-4.2177,-4.3794,-4.6963,-4.8449,-4.9345,-4.9785,-4.9684,-4.9959,-5.0971,-5.1114,-5.1407,-5.2119,-5.277,-5.3132,-5.3132,-5.3822,-5.4253,-5.4253,-5.4425,-5.4512,-5.4512,-5.4339,-5.3598,-5.2205,-5.2015,-5.1304,-5.0011,-5.0011,-5.0011,-5.0011,-5.0011,-5.0011,-5.0011,-5.0011,-5.0011,-5.0011,-5.0011,-4.9848,-4.9547,-4.8998,-4.8016,-4.6775,-4.5505,-4.5055,-4.5017,-4.4874,-4.4836,-4.4799,-4.4648,-4.461,-4.461,-4.461,-4.461,-4.461,-4.461,-4.461,-4.461,-4.461,-4.4874,-4.5194,-4.5567,-4.6179,-4.6894,-4.7638,-4.7633,-4.7366,-4.7042,-4.6541,-4.5865,-4.501,-4.5004,-4.5072,-4.4874,-4.5004,-4.5055,-4.4874,-4.4665,-4.4335,-4.371,-4.3369,-4.2741,-4.1672,-4.1374,-4.1055,-4.0593,-4.0539,-4.0489,-4.0489,-4.0489,-4.0489,-4.0489,-4.0489,-4.0489,-4.0489,-4.1925,-4.2602,-4.2633,-4.3972,-4.461,-3.0974,-3.2027,-3.3458,-3.6629,-3.801,-3.8817,-3.9625,-3.9808,-4.0029,-4.0765,-4.093,-4.1409,-4.2936,-4.4815,-4.6832,-4.888,-4.9059,-4.9288,-5.0387,-5.031,-5.0385,-5.1011,-5.1114,-5.1407,-5.2119,-5.2239,-5.2274,-5.2274,-5.3046,-5.3477,-5.3477,-5.4132,-5.4512,-5.4512,-5.3839,-5.308,-5.2188,-5.1498,-5.0787,-5.0011,-5.0011,-5.0011,-5.0011,-5.0011,-5.0011,-5.0011,-5.0011,-5.0011,-5.0011,-5.0011,-4.9982,-4.9906,-4.9246,-4.7918,-4.6214,-4.5083,-4.4648,-4.4648,-4.4625,-4.461,-4.461,-4.461,-4.461,-4.461,-4.461,-4.461,-4.461,-4.461,-4.461,-4.461,-4.461,-4.4761,-4.5024,-4.5332,-4.5733,-4.6321,-4.7236,-4.7555,-4.7637,-4.7569,-4.7507,-4.7066,-4.5843,-4.6194,-4.6397,-4.572,-4.6194,-4.638,-4.572,-4.5457,-4.4997,-4.4164,-4.3641,-4.2976,-4.1963,-4.1421,-4.1037,-4.0799,-4.0593,-4.0489,-4.0489,-4.0489,-4.0489,-4.0489,-4.0489,-4.0489,-4.0489,-4.1925,-4.2602,-4.2633,-4.3972,-4.461,-3.1103,-3.2357,-3.3899,-3.6174,-3.7364,-3.8576,-4.0873,-4.1772,-4.2359,-4.3168,-4.3333,-4.3664,-4.4765,-4.6316,-4.7844,-4.9078,-4.9874,-5.0462,-5.0858,-5.0812,-5.0845,-5.108,-5.0718,-5.0545,-5.0804,-5.1269,-5.1498,-5.1498,-5.2235,-5.2666,-5.2666,-5.2925,-5.308,-5.308,-5.2822,-5.2304,-5.1498,-5.1252,-5.0735,-5.0011,-5.0011,-5.0011,-5.0011,-5.0011,-5.0011,-5.0011,-5.0011,-5.0011,-5.0011,-5.0011,-5.0011,-4.9877,-4.8765,-4.7638,-4.648,-4.5363,-4.4874,-4.4761,-4.4648,-4.461,-4.461,-4.461,-4.461,-4.461,-4.461,-4.461,-4.461,-4.461,-4.461,-4.461,-4.461,-4.4648,-4.4761,-4.488,-4.5216,-4.5656,-4.6234,-4.6791,-4.7174,-4.7118,-4.7316,-4.7231,-4.649,-4.6616,-4.6701,-4.643,-4.6616,-4.6701,-4.6413,-4.6304,-4.5959,-4.5175,-4.4127,-4.3232,-4.268,-4.1851,-4.1292,-4.1122,-4.073,-4.0489,-4.0489,-4.0489,-4.0489,-4.0489,-4.0489,-4.072,-4.1201,-4.2155,-4.2817,-4.3217,-4.4194,-4.461,-3.1842,-3.291,-3.4197,-3.6102,-3.7029,-3.8236,-4.1157,-4.2255,-4.3042,-4.4345,-4.5004,-4.5517,-4.6085,-4.7098,-4.8124,-4.899,-5.0014,-5.0706,-5.0737,-5.0959,-5.1028,-5.0787,-5.0321,-5.0011,-5.0011,-5.0476,-5.0752,-5.0752,-5.1459,-5.1843,-5.1843,-5.205,-5.2188,-5.2188,-5.1964,-5.1602,-5.1114,-5.0873,-5.0511,-5.0011,-5.0011,-5.0011,-5.0011,-5.0011,-5.0011,-5.0011,-5.0011,-5.0011,-5.0011,-5.0011,-4.9906,-4.9637,-4.8431,-4.7556,-4.6862,-4.5749,-4.5231,-4.5008,-4.4723,-4.461,-4.461,-4.461,-4.461,-4.461,-4.461,-4.461,-4.461,-4.461,-4.461,-4.461,-4.461,-4.461,-4.461,-4.461,-4.4874,-4.5194,-4.5515,-4.6143,-4.668,-4.6947,-4.727,-4.7387,-4.711,-4.7267,-4.7352,-4.7192,-4.7344,-4.7411,-4.7175,-4.7141,-4.6824,-4.6022,-4.4804,-4.3893,-4.358,-4.2382,-4.1623,-4.1423,-4.0833,-4.0489,-4.0489,-4.0489,-4.0489,-4.0489,-4.0489,-4.0843,-4.1601,-4.2279,-4.294,-4.3624,-4.4302,-4.461,-3.3255,-3.3665,-3.4207,-3.6614,-3.7311,-3.8016,-4.0296,-4.0859,-4.1586,-4.3944,-4.5693,-4.6787,-4.6805,-4.7179,-4.7801,-4.8828,-4.9342,-4.9701,-4.9976,-5.0649,-5.0856,-5.0097,-5.0011,-5.0011,-5.0011,-5.0011,-5.0011,-5.0011,-5.0683,-5.1097,-5.1097,-5.1774,-5.217,-5.217,-5.1476,-5.1097,-5.1097,-5.0373,-5.0011,-5.0011,-5.0011,-5.0011,-5.0011,-5.0011,-5.0011,-5.0011,-5.0011,-5.0011,-5.0011,-5.0011,-4.9683,-4.9121,-4.8383,-4.7819,-4.727,-4.6127,-4.5588,-4.5332,-4.4783,-4.461,-4.461,-4.461,-4.461,-4.461,-4.461,-4.461,-4.461,-4.461,-4.461,-4.461,-4.461,-4.461,-4.461,-4.461,-4.4761,-4.4971,-4.5311,-4.5697,-4.6285,-4.7202,-4.7555,-4.7671,-4.7606,-4.8265,-4.8596,-4.8007,-4.8545,-4.8748,-4.799,-4.7889,-4.7554,-4.6628,-4.574,-4.5007,-4.4537,-4.3039,-4.1948,-4.1621,-4.0919,-4.0489,-4.0489,-4.0489,-4.0489,-4.0505,-4.0505,-4.0893,-4.1617,-4.2294,-4.294,-4.3639,-4.4302,-4.461,-3.3373,-3.4444,-3.5742,-3.7583,-3.8118,-3.8755,-4.0942,-4.1905,-4.2884,-4.4895,-4.5677,-4.6219,-4.6773,-4.6923,-4.7132,-4.771,-4.9153,-5.0185,-5.0017,-5.1097,-5.1614,-5.0873,-5.0321,-5.0011,-5.0011,-5.0011,-5.0011,-5.0011,-5.02,-5.0338,-5.0338,-5.0545,-5.0666,-5.0666,-5.0442,-5.0338,-5.0338,-5.0114,-5.0011,-5.0011,-5.0011,-5.0011,-5.0011,-5.0011,-5.0011,-5.0011,-5.0011,-5.0011,-5.0011,-4.986,-4.9637,-4.935,-4.8748,-4.821,-4.7622,-4.6515,-4.5929,-4.5515,-4.4821,-4.461,-4.461,-4.461,-4.461,-4.461,-4.461,-4.461,-4.461,-4.461,-4.461,-4.461,-4.461,-4.461,-4.461,-4.461,-4.4663,-4.4723,-4.4821,-4.5142,-4.5583,-4.6092,-4.6705,-4.7272,-4.7717,-4.8253,-4.8623,-4.8652,-4.8866,-4.8934,-4.8714,-4.821,-4.7804,-4.7507,-4.633,-4.5408,-4.5037,-4.3381,-4.2253,-4.198,-4.1055,-4.0489,-4.0489,-4.0489,-4.0735,-4.1278,-4.1278,-4.1848,-4.3023,-4.3223,-4.367,-4.4317,-4.4533,-4.461,-3.4601,-3.5918,-3.7235,-3.8834,-3.9536,-4.0358,-4.2327,-4.3187,-4.3863,-4.4902,-4.5596,-4.6201,-4.6699,-4.6856,-4.71,-4.761,-4.9193,-5.0285,-5.0022,-5.1028,-5.1511,-5.0752,-5.0287,-5.0011,-5.0011,-5.0011,-5.0011,-5.0011,-5.0011,-5.0011,-5.0011,-5.0011,-5.0011,-5.0011,-5.0011,-5.0011,-5.0011,-5.0011,-5.0011,-5.0011,-5.0011,-5.0011,-5.0011,-5.0011,-5.0011,-5.0011,-5.0011,-5.0011,-4.9982,-4.9725,-4.956,-4.9458,-4.9015,-4.853,-4.8,-4.6896,-4.6269,-4.5821,-4.4896,-4.461,-4.461,-4.461,-4.461,-4.461,-4.461,-4.461,-4.461,-4.461,-4.461,-4.461,-4.461,-4.461,-4.461,-4.461,-4.461,-4.461,-4.461,-4.4836,-4.5194,-4.5531,-4.6108,-4.6775,-4.7572,-4.7967,-4.8324,-4.8753,-4.8815,-4.8815,-4.8815,-4.8397,-4.8127,-4.8127,-4.7066,-4.621,-4.5796,-4.4231,-4.3121,-4.2843,-4.2003,-4.1535,-4.1566,-4.1163,-4.1278,-4.1986,-4.2001,-4.2525,-4.3608,-4.3608,-4.3947,-4.461,-4.461,-4.461,-3.6453,-3.7697,-3.8716,-4.0329,-4.147,-4.2554,-4.405,-4.4533,-4.456,-4.4261,-4.5435,-4.6512,-4.6601,-4.6998,-4.7533,-4.8137,-4.934,-5.012,-4.9907,-5.0597,-5.0838,-5.0097,-5.0011,-5.0011,-5.0011,-5.0011,-5.0011,-5.0011,-5.0011,-5.0011,-5.0011,-5.0011,-5.0011,-5.0011,-5.0011,-5.0011,-5.0011,-5.0011,-5.0011,-5.0011,-5.0011,-5.0011,-5.0011,-5.0011,-5.0011,-5.0011,-5.0011,-5.0011,-4.9964,-4.9654,-4.9488,-4.9458,-4.9124,-4.8736,-4.8307,-4.7203,-4.655,-4.6072,-4.4971,-4.461,-4.461,-4.461,-4.461,-4.461,-4.461,-4.461,-4.461,-4.461,-4.461,-4.461,-4.461,-4.461,-4.461,-4.461,-4.461,-4.461,-4.461,-4.4723,-4.4971,-4.5274,-4.566,-4.6214,-4.7084,-4.7421,-4.7754,-4.8275,-4.8339,-4.8339,-4.8339,-4.8339,-4.8339,-4.8339,-4.7705,-4.7033,-4.6536,-4.5161,-4.4223,-4.3899,-4.3415,-4.3231,-4.3361,-4.2317,-4.2037,-4.273,-4.2694,-4.3017,-4.3701,-4.3701,-4.4009,-4.461,-4.461,-4.4572,-3.6375,-3.8062,-3.9659,-4.1832,-4.3364,-4.4353,-4.4399,-4.4673,-4.4788,-4.4386,-4.5008,-4.5858,-4.6482,-4.7157,-4.7657,-4.782,-4.9078,-4.9815,-4.9137,-5.0223,-5.0838,-5.0097,-5.0011,-5.0011,-5.0011,-5.0011,-5.0011,-5.0011,-5.0011,-5.0011,-5.0011,-5.0011,-5.0011,-5.0011,-5.0011,-5.0011,-5.0011,-5.0011,-5.0011,-5.0011,-5.0011,-5.0011,-5.0011,-5.0011,-5.0011,-5.0011,-5.0011,-5.0011,-4.9964,-4.9654,-4.9428,-4.9229,-4.8956,-4.8436,-4.777,-4.688,-4.6253,-4.5713,-4.4896,-4.461,-4.461,-4.461,-4.461,-4.461,-4.461,-4.461,-4.461,-4.461,-4.461,-4.461,-4.461,-4.461,-4.461,-4.461,-4.461,-4.461,-4.461,-4.4648,-4.4685,-4.4746,-4.5083,-4.551,-4.5985,-4.6356,-4.674,-4.7101,-4.7169,-4.7169,-4.7169,-4.7169,-4.7169,-4.7169,-4.6517,-4.5993,-4.5758,-4.4521,-4.3831,-4.3899,-4.3677,-4.388,-4.4589,-4.3431,-4.3024,-4.3608,-4.3482,-4.3732,-4.4394,-4.4394,-4.4471,-4.461,-4.461,-4.4511,-3.6769,-3.8751,-4.0673,-4.3842,-4.5052,-4.5437,-4.5359,-4.5399,-4.5344,-4.4829,-4.5095,-4.5518,-4.5931,-4.6931,-4.7689,-4.7689,-4.901,-4.9855,-4.9413,-5.008,-5.0442,-5.0045,-5.0011,-5.0011,-5.0011,-5.0011,-5.0011,-5.0011,-5.0011,-5.0011,-5.0011,-5.0011,-5.0011,-5.0011,-5.0011,-5.0011,-5.0011,-5.0011,-5.0011,-5.0011,-5.0011,-5.0011,-5.0011,-5.0011,-5.0011,-5.0011,-5.0011,-5.0011,-4.9964,-4.9654,-4.9381,-4.9121,-4.8593,-4.8049,-4.7454,-4.6464,-4.5861,-4.5442,-4.4821,-4.461,-4.461,-4.461,-4.461,-4.461,-4.461,-4.461,-4.461,-4.461,-4.461,-4.461,-4.461,-4.461,-4.461,-4.461,-4.461,-4.461,-4.461,-4.461,-4.461,-4.461,-4.4836,-4.5157,-4.5478,-4.5965,-4.6356,-4.6515,-4.655,-4.655,-4.655,-4.655,-4.655,-4.655,-4.6212,-4.5899,-4.562,-4.4914,-4.4512,-4.465,-4.476,-4.4989,-4.5385,-4.4808,-4.4542,-4.4627,-4.4273,-4.4255,-4.461,-4.461,-4.461,-4.461,-4.4496,-4.4396,-3.7053,-3.9583,-4.1995,-4.5599,-4.6365,-4.6248,-4.6354,-4.62,-4.5887,-4.5363,-4.5447,-4.5604,-4.5604,-4.6741,-4.7689,-4.7689,-4.8786,-4.9614,-4.9614,-4.9614,-4.9614,-4.9614,-4.9614,-4.9614,-4.9614,-4.9614,-4.9614,-4.9614,-4.9735,-4.9804,-4.9804,-4.9924,-5.0011,-5.0011,-5.0011,-5.0011,-5.0011,-5.0011,-5.0011,-5.0011,-5.0011,-5.0011,-5.0011,-4.9873,-4.9873,-5.0011,-5.0011,-5.0011,-4.9964,-4.9654,-4.935,-4.906,-4.8274,-4.7721,-4.7236,-4.6234,-4.5713,-4.5384,-4.4858,-4.4685,-4.4663,-4.461,-4.461,-4.461,-4.461,-4.461,-4.461,-4.461,-4.461,-4.461,-4.461,-4.461,-4.461,-4.461,-4.461,-4.461,-4.461,-4.461,-4.461,-4.461,-4.4723,-4.4933,-4.52,-4.564,-4.5965,-4.5965,-4.5929,-4.5893,-4.5893,-4.5893,-4.5893,-4.5893,-4.5893,-4.5785,-4.5478,-4.5311,-4.529,-4.5426,-4.578,-4.5909,-4.5828,-4.5925,-4.5769,-4.5405,-4.488,-4.461,-4.461,-4.461,-4.461,-4.4587,-4.4396,-4.4281,-3.6363,-4.0363,-4.4077,-4.6015,-4.6822,-4.7044,-4.6788,-4.6429,-4.6038,-4.5641,-4.6011,-4.6458,-4.6458,-4.7148,-4.7689,-4.7689,-4.7862,-4.8027,-4.8027,-4.8027,-4.8027,-4.8027,-4.8027,-4.8027,-4.8027,-4.8027,-4.8027,-4.8027,-4.8586,-4.8947,-4.8947,-4.9631,-5.0011,-5.0011,-5.0011,-5.0011,-5.0011,-5.0011,-5.0011,-5.0011,-5.0011,-5.0011,-4.9993,-4.9275,-4.9327,-5.0011,-5.0011,-5.0011,-4.9964,-4.9654,-4.9307,-4.897,-4.8388,-4.777,-4.7167,-4.6652,-4.6191,-4.5682,-4.5262,-4.5024,-4.4836,-4.4648,-4.461,-4.461,-4.461,-4.461,-4.461,-4.461,-4.461,-4.461,-4.461,-4.461,-4.461,-4.461,-4.461,-4.461,-4.461,-4.461,-4.461,-4.461,-4.461,-4.4648,-4.4685,-4.4648,-4.4572,-4.4572,-4.4419,-4.4305,-4.4305,-4.4305,-4.4305,-4.4305,-4.4305,-4.4358,-4.4458,-4.4458,-4.4685,-4.521,-4.5531,-4.5805,-4.5965,-4.5821,-4.5624,-4.5405,-4.488,-4.461,-4.461,-4.461,-4.461,-4.4587,-4.4396,-4.4205,-3.7295,-4.118,-4.4476,-4.6106,-4.6894,-4.7214,-4.6903,-4.6572,-4.6161,-4.5701,-4.584,-4.602,-4.5941,-4.6552,-4.7096,-4.7096,-4.7441,-4.7689,-4.7689,-4.7689,-4.7689,-4.7689,-4.7689,-4.7689,-4.7689,-4.7689,-4.7689,-4.7689,-4.8379,-4.8792,-4.8792,-4.9579,-5.0011,-5.0011,-5.0011,-5.0011,-5.0011,-5.0011,-5.0011,-5.0011,-5.0011,-5.0011,-4.9976,-4.9154,-4.8982,-4.9292,-4.8879,-4.8959,-4.9309,-4.902,-4.8963,-4.9046,-4.8322,-4.7787,-4.7371,-4.6878,-4.6496,-4.6124,-4.5656,-4.5363,-4.5104,-4.4723,-4.461,-4.461,-4.461,-4.461,-4.461,-4.461,-4.461,-4.461,-4.461,-4.461,-4.461,-4.461,-4.461,-4.461,-4.461,-4.461,-4.461,-4.461,-4.461,-4.4572,-4.4473,-4.4358,-4.4243,-4.4127,-4.4065,-4.3988,-4.3988,-4.3988,-4.3988,-4.3988,-4.3988,-4.4026,-4.4127,-4.4243,-4.4458,-4.4836,-4.5274,-4.5531,-4.5541,-4.5531,-4.5405,-4.5142,-4.4799,-4.461,-4.461,-4.461,-4.461,-4.4572,-4.4281,-4.4089,-3.8043,-4.1252,-4.3932,-4.5743,-4.663,-4.7028,-4.7008,-4.6719,-4.6308,-4.5811,-4.5624,-4.5511,-4.5353,-4.588,-4.632,-4.632,-4.6741,-4.7103,-4.7103,-4.7103,-4.7103,-4.7103,-4.7103,-4.7103,-4.7103,-4.7103,-4.7103,-4.7103,-4.781,-4.8241,-4.8241,-4.901,-4.9424,-4.9424,-4.9424,-4.9424,-4.9424,-4.9424,-4.9424,-4.9424,-4.9424,-4.9424,-4.939,-4.8586,-4.8241,-4.8206,-4.7844,-4.8103,-4.8735,-4.8419,-4.8626,-4.8998,-4.821,-4.782,-4.7588,-4.7152,-4.6793,-4.6464,-4.5949,-4.5604,-4.5253,-4.4761,-4.461,-4.461,-4.461,-4.461,-4.461,-4.461,-4.461,-4.461,-4.461,-4.4748,-4.4872,-4.4872,-4.4972,-4.4987,-4.4687,-4.461,-4.461,-4.461,-4.4549,-4.4473,-4.432,-4.4205,-4.4104,-4.3949,-4.3871,-4.3817,-4.3817,-4.3817,-4.3817,-4.3817,-4.3817,-4.3871,-4.391,-4.4065,-4.4243,-4.4511,-4.488,-4.512,-4.5055,-4.5157,-4.5067,-4.4836,-4.4685,-4.461,-4.461,-4.461,-4.4572,-4.4511,-4.4166,-4.3988,-3.7825,-4.0003,-4.2393,-4.4765,-4.5861,-4.6513,-4.714,-4.6921,-4.6453,-4.6062,-4.5684,-4.5363,-4.523,-4.5335,-4.5466,-4.5466,-4.5483,-4.5518,-4.5518,-4.5518,-4.5518,-4.5518,-4.5518,-4.5518,-4.5518,-4.5518,-4.5518,-4.5518,-4.6259,-4.6717,-4.6717,-4.7424,-4.781,-4.781,-4.781,-4.781,-4.781,-4.781,-4.781,-4.781,-4.781,-4.781,-4.7775,-4.7034,-4.6717,-4.6751,-4.7424,-4.8064,-4.8563,-4.8255,-4.8352,-4.8688,-4.8179,-4.7886,-4.7671,-4.7521,-4.7098,-4.6547,-4.6143,-4.5635,-4.5129,-4.4739,-4.461,-4.461,-4.461,-4.461,-4.461,-4.461,-4.461,-4.461,-4.461,-4.5049,-4.5541,-4.5541,-4.6018,-4.6142,-4.4849,-4.461,-4.461,-4.461,-4.4435,-4.432,-4.4281,-4.3988,-4.3729,-4.3729,-4.3518,-4.3329,-4.3329,-4.3329,-4.3329,-4.3329,-4.3329,-4.3423,-4.3675,-4.3729,-4.391,-4.4281,-4.4358,-4.4435,-4.461,-4.4648,-4.4648,-4.4625,-4.461,-4.461,-4.461,-4.461,-4.4496,-4.432,-4.4104,-4.391,-3.625,-3.8409,-4.0673,-4.2538,-4.4328,-4.5861,-4.6597,-4.6829,-4.6708,-4.6158,-4.6151,-4.5975,-4.5091,-4.5113,-4.53,-4.5397,-4.5397,-4.5397,-4.5397,-4.5397,-4.5397,-4.5397,-4.5397,-4.5397,-4.5397,-4.5397,-4.5397,-4.5397,-4.6165,-4.6613,-4.6613,-4.732,-4.7689,-4.7689,-4.7689,-4.7689,-4.7689,-4.7689,-4.7689,-4.7689,-4.7689,-4.7689,-4.7655,-4.6941,-4.6525,-4.6391,-4.6103,-4.6638,-4.7654,-4.6958,-4.7266,-4.8129,-4.7489,-4.7186,-4.7118,-4.7066,-4.6844,-4.648,-4.5985,-4.5604,-4.5268,-4.4761,-4.461,-4.461,-4.461,-4.461,-4.461,-4.461,-4.461,-4.461,-4.461,-4.508,-4.5695,-4.6126,-4.6419,-4.6465,-4.5972,-4.5541,-4.5095,-4.4664,-4.4435,-4.4243,-4.4143,-4.3871,-4.3636,-4.3463,-4.3384,-4.329,-4.329,-4.329,-4.329,-4.329,-4.329,-4.3329,-4.3423,-4.3596,-4.3832,-4.4104,-4.4243,-4.4396,-4.4572,-4.4987,-4.5018,-4.4625,-4.5003,-4.5041,-4.461,-4.4473,-4.4358,-4.4281,-4.3949,-4.3769,-3.5144,-3.716,-3.9315,-4.06,-4.2737,-4.4784,-4.5852,-4.6345,-4.6504,-4.6161,-4.6177,-4.6035,-4.5312,-4.5111,-4.5113,-4.53,-4.5371,-4.5397,-4.5397,-4.5397,-4.55,-4.5759,-4.5552,-4.55,-4.5776,-4.5552,-4.5397,-4.5397,-4.5897,-4.619,-4.619,-4.6655,-4.6914,-4.6914,-4.6914,-4.6914,-4.6914,-4.6914,-4.6914,-4.6914,-4.6914,-4.6914,-4.6896,-4.6414,-4.6075,-4.5816,-4.5029,-4.549,-4.6794,-4.6041,-4.6449,-4.7489,-4.688,-4.6689,-4.6724,-4.6809,-4.6655,-4.6359,-4.5949,-4.5604,-4.5253,-4.4761,-4.461,-4.461,-4.461,-4.461,-4.461,-4.461,-4.461,-4.461,-4.461,-4.5249,-4.6157,-4.7065,-4.7281,-4.7219,-4.6988,-4.6219,-4.5449,-4.5003,-4.455,-4.4166,-4.4026,-4.3754,-4.3518,-4.3329,-4.329,-4.329,-4.329,-4.329,-4.329,-4.329,-4.329,-4.329,-4.329,-4.3463,-4.3675,-4.3988,-4.4143,-4.4412,-4.491,-4.5341,-4.548,-4.5264,-4.548,-4.5357,-4.491,-4.4504,-4.4281,-4.4166,-4.3871,-4.3651,0.0,0.0,0.0,-3.9079,-4.1071,-4.3227,-4.4838,-4.5465,-4.5792,-4.5985,-4.5691,-4.548,-4.5767,-4.5286,-4.4903,-4.5167,-4.53,-4.5397,-4.5397,-4.5414,-4.5725,-4.651,-4.5931,-4.5759,-4.6562,-4.5897,-4.5432,-4.5432,-4.5414,-4.5397,-4.5397,-4.5397,-4.5397,-4.5397,-4.5397,-4.5397,-4.5397,-4.5397,-4.5397,-4.5397,-4.5397,-4.5397,-4.5397,-4.5397,-4.5264,-4.4951,-4.4299,-4.4804,-4.6102,-4.5542,-4.5881,-4.6692,-4.6343,-4.6356,-4.6582,-4.6772,-4.6617,-4.625,-4.6072,-4.5635,-4.5129,-4.4739,-4.461,-4.461,-4.461,-4.461,-4.461,-4.461,-4.461,-4.461,-4.4641,-4.5588,-4.6911,-4.8266,-4.8589,-4.8419,-4.7773,-4.6588,-4.5634,-4.5618,-4.4786,-4.4033,-4.4018,-4.3651,-4.3319,-4.329,-4.329,-4.329,-4.329,-4.329,-4.329,-4.329,-4.329,-4.3305,-4.3319,-4.3319,-4.3533,-4.4009,-4.4033,-4.4517,-4.5588,-4.5634,-4.5942,-4.6588,-4.5972,-4.5634,-4.5618,-4.4734,-4.4166,-4.3988,-4.3808,-4.3557,-3.3589,0.0,0.0,0.0,0.0,0.0,-4.232,-4.3414,-4.4134,-4.4384,-4.4953,-4.5117,-4.4234,-4.4913,-4.545,-4.4998,-4.5113,-4.5274,-4.5397,-4.5897,-4.6345,-4.6579,-4.6862,-4.7138,-4.7389,-4.669,-4.6286,0.0,-4.5725,-4.5397,-4.5397,-4.5397,-4.5397,-4.5397,-4.5397,-4.5397,-4.5397,-4.5397,-4.5397,-4.5397,-4.5397,-4.5397,-4.5397,-4.5397,-4.5264,-4.4951,-4.4288,-4.4255,-4.4628,-4.3734,-4.4034,-4.5009,-4.4538,-4.4867,-4.5635,-4.5929,-4.6072,-4.6072,-4.5841,-4.5604,-4.5253,-4.4761,-4.461,-4.461,-4.461,-4.461,-4.461,-4.461,-4.461,-4.4733,-4.5187,-4.5588,-4.6203,-4.7573,-4.7881,-4.7973,-4.8266,-4.765,-4.6896,-4.6419,-4.5856,-4.5303,-4.4792,-4.4328,-4.3843,-4.3364,-4.329,-4.329,-4.329,-4.329,-4.329,-4.329,-4.329,-4.3484,-4.3962,-4.4007,-4.4363,-4.5112,-4.5334,-4.5666,-4.6088,-4.6708,-4.6911,-4.6603,-4.6896,-4.6724,-4.6088,-4.473,-4.4065,-4.3988,-4.3581,-4.3384,-3.3773,-3.4733,-3.5711,-3.6182,0.0,0.0,-4.0908,-4.1833,-4.2604,-4.3183,-4.3902,-4.4318,-4.3986,-4.4406,-4.4828,-4.481,-4.494,-4.5113,-4.5274,-4.606,-4.6717,-4.7027,-4.7431,-4.781,-4.812,-4.7482,-4.6941,-4.6631,-4.6182,-4.5742,-4.5414,-4.5397,-4.5397,-4.5397,-4.5397,-4.5397,-4.5397,-4.5397,-4.5397,-4.5397,-4.5397,-4.5397,-4.5397,-4.5397,-4.5238,-4.4869,-4.4117,-4.3687,-4.3405,-4.2406,-4.2859,-4.4221,-4.3778,-4.4248,-4.5262,-4.5676,-4.5949,-4.6108,-4.6108,-4.5893,-4.5551,-4.5008,-4.4799,-4.4723,-4.4625,-4.461,-4.461,-4.461,-4.461,-4.4764,-4.5418,-4.5588,-4.5926,-4.7281,-4.7604,-4.7788,-4.8466,-4.8296,-4.7835,-4.7157,-4.6483,-4.5895,-4.546,-4.4795,-4.4182,-4.3768,-4.3469,-4.329,-4.329,-4.329,-4.329,-4.329,-4.329,-4.3559,-4.4257,-4.4317,-4.4668,-4.5559,-4.5742,-4.6082,-4.6697,-4.7201,-4.7476,-4.7434,-4.7461,-4.6982,-4.6027,-4.5227,-4.4728,-4.4529,-4.4273,-4.3962,-3.448,-3.5566,-3.6741,-3.6741,-3.7955,0.0,-4.0075,-4.0559,-4.1111,-4.214,-4.2617,-4.31,-4.3936,-4.3572,-4.3413,-4.4255,-4.4402,-4.4562,-4.5013,-4.6075,-4.7034,-4.762,-4.7844,-4.8189,-4.8861,-4.8241,-4.7534,-4.6906,-4.67,-4.6268,-4.5432,-4.5397,-4.5371,-4.5371,-4.5371,-4.5344,-4.5344,-4.5344,-4.5344,-4.5344,-4.5344,-4.5344,-4.5344,-4.5344,-4.513,-4.4692,-4.3869,-4.3169,-4.2522,-4.154,-4.2225,-4.391,-4.3596,-4.4186,-4.5241,-4.5765,-4.6108,-4.6372,-4.6547,-4.6391,-4.6001,-4.5452,-4.512,-4.4896,-4.4685,-4.461,-4.461,-4.461,-4.461,-4.4764,-4.5311,-4.548,-4.5803,-4.708,-4.7388,-4.7588,-4.8343,-4.8455,-4.8301,-4.7778,-4.6885,-4.6173,-4.6097,-4.5157,-4.4407,-4.4332,-4.3708,-4.329,-4.329,-4.329,-4.329,-4.329,-4.329,-4.3589,-4.4362,-4.4421,-4.4817,-4.5744,-4.5789,-4.6267,-4.7287,-4.74,-4.7757,-4.8521,-4.7747,-4.6848,-4.583,-4.5899,-4.5716,-4.5289,-4.5289,-4.4945,-3.3628,-3.4335,-3.5077,-3.5077,-3.6272,0.0,-3.8464,-3.8924,-3.9455,-4.0541,-4.1036,-4.1194,-4.1002,-4.1322,-4.1677,-4.1856,-4.1978,-4.2585,-4.4086,-4.656,-4.8094,-4.7741,-4.8803,-4.9614,-4.9769,-4.9034,-4.8517,-4.8379,-4.7258,-4.6268,-4.5432,-4.53,-4.5247,-4.5247,-4.514,-4.5086,-4.5086,-4.5086,-4.5086,-4.5086,-4.5086,-4.5086,-4.5086,-4.5086,-4.4841,-4.4367,-4.3814,-4.3202,-4.2522,-4.1638,-4.1978,-4.303,-4.2859,-4.3784,-4.5247,-4.5604,-4.6108,-4.6547,-4.6689,-4.674,-4.6582,-4.5857,-4.5458,-4.52,-4.4746,-4.461,-4.461,-4.461,-4.461,-4.4641,-4.4779,-4.4825,-4.4987,-4.5788,-4.5972,-4.6311,-4.7542,-4.7681,-4.7681,-4.8094,-4.7871,-4.7361,-4.6634,-4.571,-4.493,-4.4392,-4.3708,-4.329,-4.329,-4.329,-4.329,-4.329,-4.329,-4.3768,-4.5005,-4.5095,-4.5618,-4.6873,-4.7119,-4.7292,-4.7513,-4.7878,-4.8122,-4.8133,-4.7758,-4.741,-4.7189,-4.6188,-4.5537,-4.5289,-4.5289,-4.4945,-3.5186,-3.5765,-3.6399,-3.6399,-3.6997,0.0,0.0,-3.8169,-3.8461,-3.9484,-3.9676,-3.9753,-4.0035,-4.0087,-4.0248,-4.0671,-4.141,-4.2313,-4.34,-4.5839,-4.7522,-4.7578,-4.9022,-5.0011,-5.0011,-4.9648,-4.9097,-4.8293,-4.7234,-4.6224,-4.5352,-4.5069,-4.4917,-4.4835,-4.4614,-4.4502,-4.4502,-4.4502,-4.4502,-4.4502,-4.4502,-4.4502,-4.4502,-4.4502,-4.4333,-4.4035,-4.3638,-4.3141,-4.2554,-4.1769,-4.1834,-4.247,-4.2572,-4.3401,-4.4647,-4.5295,-4.5877,-4.6356,-4.6705,-4.6756,-4.6512,-4.602,-4.5619,-4.5194,-4.4723,-4.461,-4.461,-4.461,-4.461,-4.461,-4.461,-4.461,-4.4872,-4.5849,-4.6095,-4.6465,-4.7819,-4.7947,-4.7889,-4.8099,-4.7964,-4.7646,-4.7171,-4.6115,-4.5185,-4.4855,-4.3958,-4.329,-4.329,-4.329,-4.329,-4.329,-4.329,-4.3828,-4.5185,-4.5289,-4.5873,-4.7219,-4.7381,-4.751,-4.7596,-4.7837,-4.7922,-4.7794,-4.7666,-4.7553,-4.7467,-4.6791,-4.6376,-4.6307,-4.6307,-4.5948,-3.6777,-3.7484,-3.8172,-3.8009,-3.8209,-3.839,0.0,0.0,0.0,-3.8918,-3.879,-3.8757,-3.9527,-3.908,-3.8875,-3.9744,-4.0891,0.0,0.0,-4.4679,0.0,-4.7213,-4.8649,-4.9614,-4.9769,-4.9769,-4.9269,-4.8027,-4.7069,-4.6195,-4.538,-4.4875,-4.4541,-4.4361,-4.4059,-4.3914,-4.3914,-4.3914,-4.3914,-4.3914,-4.3914,-4.3914,-4.3914,-4.3914,-4.3844,-4.3638,-4.3383,-4.2988,-4.2539,-4.1948,-4.1854,-4.2063,-4.2319,-4.3019,-4.396,-4.4736,-4.5368,-4.5929,-4.6477,-4.6477,-4.6214,-4.6001,-4.5562,-4.5017,-4.4701,-4.461,-4.461,-4.461,-4.461,-4.461,-4.461,-4.461,-4.4918,-4.6111,-4.6403,-4.6773,-4.8127,-4.8228,-4.8023,-4.8034,-4.7752,-4.7553,-4.7553,-4.6419,-4.5484,-4.5484,-4.4362,-4.3484,-4.3484,-4.3364,-4.329,-4.329,-4.3409,-4.3962,-4.52,-4.5424,-4.6007,-4.7234,-4.7309,-4.7381,-4.7553,-4.7553,-4.7538,-4.7581,-4.7538,-4.7467,-4.7309,-4.7309,-4.7309,-4.7309,-4.7309,-4.695,-3.5931,-3.7033,-3.8028,-3.7303,-3.8209,-3.9079,-3.8372,0.0,-3.8673,-3.9024,0.0,-3.8511,-3.8204,0.0,0.0,0.0,0.0,0.0,-4.2347,-4.3657,-4.4938,-4.6507,-4.7448,-4.8206,-4.8861,-4.893,-4.8844,-4.8689,-4.7227,-4.6176,-4.5829,-4.4874,-4.4207,-4.3889,-4.3726,-4.3638,-4.3638,-4.3638,-4.3638,-4.3638,-4.3638,-4.3638,-4.3638,-4.3638,-4.3459,-4.3174,-4.3127,-4.2867,-4.2397,-4.2142,-4.1979,-4.1925,-4.1783,-4.2515,-4.3661,-4.376,-4.4421,-4.5342,-4.5713,-4.5913,-4.6001,-4.5805,-4.5253,-4.4663,-4.461,-4.461,-4.461,-4.461,-4.461,-4.461,-4.461,-4.461,-4.481,-4.5526,-4.5695,-4.6065,-4.7419,-4.743,-4.7338,-4.79,-4.7639,-4.7337,-4.7337,-4.6696,-4.6217,-4.6217,-4.5065,-4.4212,-4.4212,-4.3648,-4.329,-4.329,-4.3813,-4.4496,-4.5229,-4.5858,-4.6516,-4.7249,-4.7309,-4.7309,-4.7352,-4.7337,-4.7424,-4.7581,-4.7424,-4.7309,-4.7309,-4.7309,-4.7309,-4.7309,-4.7309,-4.695,-3.7196,-3.8029,-3.8716,-3.7901,-3.8571,-3.9188,-3.839,-3.8133,-3.8141,-3.8415,0.0,0.0,0.0,0.0,0.0,0.0,-3.8958,0.0,0.0,0.0,-4.4294,-4.6212,0.0,0.0,-4.812,-4.8155,-4.7937,-4.7399,-4.6542,-4.5761,-4.501,-4.4185,-4.3621,-4.3399,-4.3157,-4.3021,-4.3021,-4.3021,-4.3021,-4.3021,-4.3021,-4.3021,-4.3021,-4.3021,-4.2959,-4.2805,-4.2805,-4.268,-4.2508,-4.2412,-4.2349,-4.2302,-4.2169,-4.275,-4.3705,-4.4095,-4.4871,-4.576,-4.6124,-4.6195,-4.614,-4.5868,-4.5395,-4.4911,-4.4799,-4.4685,-4.461,-4.461,-4.461,-4.461,-4.461,-4.461,-4.4887,-4.5911,-4.6172,-4.6502,-4.7732,-4.7764,-4.7604,-4.7749,-4.751,-4.7309,-4.7309,-4.6756,-4.6279,-4.6279,-4.5185,-4.4317,-4.4317,-4.3693,-4.329,-4.329,-4.3888,-4.4586,-4.5229,-4.5918,-4.6606,-4.7264,-4.7309,-4.7309,-4.7309,-4.7309,-4.7352,-4.7424,-4.7337,-4.7309,-4.7309,-4.7309,-4.7309,-4.7309,-4.7309,-4.716,-3.8589,-3.926,-3.9731,-3.8517,-3.8952,-3.9441,-3.8444,-3.8061,-3.7982,-3.8239,-3.7739,0.0,0.0,0.0,0.0,0.0,0.0,-4.0624,0.0,-4.2492,0.0,0.0,0.0,0.0,0.0,-4.7258,-4.7196,-4.668,-4.5936,-4.5207,-4.4514,-4.3707,-4.3141,-4.2959,-4.2728,-4.2602,-4.2602,-4.2602,-4.2602,-4.2602,-4.2602,-4.2602,-4.2602,-4.2602,-4.2602,-4.2602,-4.2665,-4.2696,-4.2743,-4.2789,-4.2834,-4.2865,-4.2833,-4.3411,-4.4303,-4.461,-4.5231,-4.6045,-4.6502,-4.6547,-4.6388,-4.6084,-4.5672,-4.5305,-4.512,-4.4821,-4.461,-4.461,-4.461,-4.461,-4.461,-4.461,-4.4964,-4.6265,-4.6564,-4.6852,-4.8037,-4.8076,-4.7837,-4.7624,-4.7424,-4.7309,-4.7309,-4.692,-4.6591,-4.6591,-4.5603,-4.487,-4.487,-4.4082,-4.3633,-4.3813,-4.4302,-4.4855,-4.5529,-4.6202,-4.68,-4.7279,-4.7309,-4.7309,-4.7309,-4.7309,-4.7309,-4.7309,-4.7309,-4.7309,-4.7309,-4.7309,-4.7309,-4.7309,-4.7309,-4.7309,0.0,0.0,0.0,-3.8771,0.0,0.0,-3.8553,-3.8438,-3.8744,-3.9027,0.0,0.0,0.0,0.0,0.0,0.0,0.0,0.0,0.0,0.0,0.0,0.0,0.0,0.0,0.0,-4.6173,-4.6842,0.0,-4.5637,-4.4658,-4.494,-4.3795,-4.2959,-4.2634,-4.2602,-4.2602,-4.2602,-4.2602,-4.2602,-4.2602,-4.2602,-4.2602,-4.2602,-4.2602,-4.2602,-4.2602,-4.2806,-4.2945,-4.3113,-4.3295,-4.3446,-4.3578,-4.3578,-4.4442,-4.5656,-4.4952,-4.5127,-4.5805,-4.6534,-4.6777,-4.6742,-4.6518,-4.6111,-4.566,-4.5442,-4.503,-4.461,-4.461,-4.461,-4.461,-4.461,-4.461,-4.4964,-4.6265,-4.6444,-4.6691,-4.7996,-4.7922,-4.7639,-4.7581,-4.7424,-4.7309,-4.7309,-4.7294,-4.7279,-4.7279,-4.6696,-4.6219,-4.6219,-4.5053,-4.4526,-4.517,-4.5244,-4.5544,-4.619,-4.689,-4.7279,-4.7309,-4.7309,-4.7309,-4.7309,-4.7309,-4.7309,-4.7309,-4.7309,-4.7309,-4.7309,-4.7309,-4.7309,-4.7309,-4.7309,-4.7309,0.0,0.0,-4.1252,-3.9441,0.0,0.0,0.0,0.0,0.0,0.0,0.0,0.0,0.0,0.0,0.0,0.0,0.0,0.0,0.0,0.0,0.0,0.0,-4.3465,-4.4665,0.0,0.0,0.0,-4.584,-4.479,0.0,-4.4079,-4.3244,-4.2711,-4.2602,-4.2602,-4.2602,-4.2602,-4.2602,-4.2602,-4.2602,-4.2602,-4.2602,-4.2602,-4.2602,-4.2665,-4.2806,-4.2976,-4.3174,-4.3462,-4.373,-4.3935,-4.4093,-4.4196,-4.4846,-4.5697,-4.5489,-4.6174,-4.7259,-4.7506,-4.7588,-4.7555,-4.7186,-4.662,-4.602,-4.5697,-4.5142,-4.461,-4.461,-4.461,-4.461,-4.461,-4.461,-4.4887,-4.6122,-4.6364,-4.657,-4.7634,-4.7709,-4.7538,-4.7424,-4.7352,-4.7309,-4.7309,-4.7309,-4.7309,-4.7309,-4.6741,-4.6279,-4.6279,-4.5529,-4.505,-4.5274,-4.5708,-4.6067,-4.6264,-4.692,-4.7309,-4.7309,-4.7309,-4.7309,-4.7309,-4.7309,-4.7309,-4.7309,-4.7309,-4.7309,-4.7309,-4.7309,-4.7309,-4.7309,-4.7309,-4.7309,-4.0999,-4.1705,0.0,-4.0256,-4.0492,0.0,-3.8958,0.0,-3.8696,0.0,0.0,0.0,0.0,0.0,0.0,0.0,0.0,0.0,0.0,-4.084,0.0,0.0,-4.243,-4.3483,0.0,-4.4406,-4.4896,-4.4612,-4.4238,0.0,0.0,-4.2959,-4.2602,-4.2602,-4.2602,-4.2571,-4.2539,-4.2539,-4.2492,-4.2429,-4.2492,-4.2508,-4.2429,-4.2508,-4.2571,-4.2634,-4.2914,-4.319,-4.3462,-4.3864,-4.4097,-4.4258,-4.4658,-4.526,-4.5938,-4.6093,-4.7104,-4.8357,-4.8357,-4.8357,-4.8308,-4.7918,-4.7186,-4.6426,-4.602,-4.529,-4.461,-4.461,-4.4549,-4.4496,-4.4496,-4.4435,-4.4695,-4.5898,-4.6123,-4.6325,-4.738,-4.7538,-4.7467,-4.7352,-4.7309,-4.7309,-4.7309,-4.7309,-4.7309,-4.7309,-4.695,-4.6681,-4.6681,-4.6082,-4.5753,-4.5978,-4.6202,-4.6384,-4.6651,-4.7055,-4.7309,-4.7309,-4.7309,-4.7309,-4.7309,-4.7309,-4.7309,-4.7309,-4.7309,-4.7309,-4.7309,-4.7309,-4.7309,-4.7309,-4.7309,-4.7309]},{"header":{"parameterUnit":"m.s-1","parameterCategory":1,"la1":30.6,"la2":29.2853,"lo1":-89.7004,"lo2":-87.6739,"dy":0.0162,"dx":0.0183,"nx":112,"ny":82,"refTime":"2026-05-21T12:00:00:Z","depth":0,"parameterNumber":3,"parameterNumberName":"V-component_of_WINDS"},"data":[0.0,0.0,0.0,0.0,0.0,0.0,0.0,0.0,0.0,0.0,0.0,0.0,0.0,0.0,0.0,0.0,0.0,0.0,0.0,0.0,0.0,0.0,0.0,0.0,0.0,0.0,0.0,0.0,0.0,0.0,0.0,0.0,0.0,0.0,0.0,0.0,0.0,0.0,0.0,0.0,0.0,0.0,0.0,0.0,0.0,0.0,0.0,0.0,0.0,0.0,0.0,0.0,0.0,0.0,0.0,0.0,0.0,0.0,0.0,0.0,0.0,0.0,0.0,0.0,0.0,0.0,0.0,0.0,0.0,0.0,0.0,0.0,0.0,0.0,0.0,0.0,0.0,0.0,0.0,0.0,0.0,0.0,0.0,0.0,0.0,0.0,0.0,0.0,0.0,0.0,1.9739,2.0333,2.0121,1.9696,1.9188,1.8744,1.8488,1.8624,0.0,0.0,0.0,0.0,0.0,0.0,0.0,0.0,0.0,0.0,0.0,0.0,0.0,0.0,0.0,0.0,0.0,0.0,0.0,0.0,0.0,0.0,0.0,0.0,0.0,0.0,0.0,0.0,0.0,0.0,0.0,0.0,0.0,0.0,0.0,0.0,0.0,0.0,0.0,0.0,0.0,0.0,0.0,0.0,0.0,0.0,0.0,0.0,0.0,0.0,0.0,0.0,0.0,0.0,0.0,0.0,0.0,0.0,0.0,0.0,0.0,0.0,0.0,0.0,0.0,0.0,0.0,0.0,0.0,0.0,0.0,0.0,0.0,0.0,0.0,0.0,0.0,0.0,0.0,0.0,0.0,0.0,0.0,0.0,0.0,0.0,0.0,0.0,0.0,0.0,0.0,0.0,0.0,0.0,0.0,0.0,0.0,0.0,0.0,0.0,0.0,0.0,0.0,0.0,2.095,2.1343,2.1289,2.1086,2.0797,2.0256,1.9898,1.9746,0.0,0.0,0.0,0.0,0.0,0.0,0.0,0.0,0.0,0.0,0.0,0.0,0.0,0.0,0.0,0.0,0.0,0.0,0.0,0.0,0.0,0.0,0.0,0.0,0.0,0.0,0.0,0.0,0.0,0.0,0.0,0.0,0.0,0.0,0.0,0.0,0.0,0.0,0.0,0.0,0.0,0.0,0.0,0.0,0.0,0.0,0.0,0.0,0.0,0.0,0.0,0.0,0.0,0.0,0.0,0.0,0.0,0.0,0.0,0.0,0.0,0.0,0.0,0.0,0.0,0.0,0.0,0.0,0.0,0.0,0.0,0.0,0.0,0.0,0.0,0.0,0.0,0.0,0.0,0.0,0.0,0.0,0.0,0.0,0.0,0.0,0.0,0.0,0.0,0.0,0.0,0.0,0.0,0.0,0.0,0.0,0.0,0.0,0.0,0.0,0.0,0.0,0.0,2.1291,2.1862,2.2128,2.2018,2.1782,2.1414,2.1194,2.0774,2.0138,1.9731,0.0,0.0,0.0,0.0,0.0,0.0,0.0,0.0,0.0,0.0,0.0,0.0,0.0,0.0,0.0,0.0,0.0,0.0,0.0,0.0,0.0,0.0,0.0,0.0,0.0,0.0,0.0,0.0,0.0,0.0,0.0,0.0,0.0,0.0,0.0,0.0,0.0,0.0,0.0,0.0,0.0,0.0,0.0,0.0,0.0,0.0,0.0,0.0,0.0,0.0,0.0,0.0,0.0,0.0,0.0,0.0,0.0,0.0,0.0,0.0,0.0,0.0,0.0,0.0,0.0,0.0,0.0,0.0,0.0,0.0,0.0,0.0,0.0,0.0,0.0,0.0,0.0,0.0,0.0,0.0,0.0,0.0,0.0,0.0,0.0,0.0,0.0,0.0,0.0,0.0,0.0,0.0,0.0,0.0,0.0,0.0,0.0,0.0,0.0,0.0,0.0,0.0,2.2263,2.2637,2.2806,2.2761,2.2571,2.2078,2.1916,2.1431,2.0461,2.0358,0.0,0.0,0.0,0.0,0.0,0.0,0.0,0.0,0.0,0.0,0.0,0.0,0.0,0.0,0.0,0.0,0.0,0.0,0.0,0.0,0.0,0.0,0.0,0.0,0.0,0.0,0.0,0.0,0.0,0.0,0.0,0.0,0.0,0.0,0.0,0.0,0.0,0.0,0.0,0.0,0.0,0.0,0.0,0.0,0.0,0.0,0.0,0.0,0.0,0.0,0.0,0.0,0.0,0.0,0.0,0.0,0.0,0.0,0.0,0.0,0.0,0.0,0.0,0.0,0.0,0.0,0.0,0.0,0.0,0.0,0.0,0.0,0.0,0.0,0.0,0.0,0.0,0.0,0.0,0.0,0.0,0.0,0.0,0.0,0.0,0.0,0.0,0.0,0.0,0.0,0.0,0.0,0.0,0.0,0.0,0.0,0.0,0.0,0.0,0.0,0.0,0.0,2.2922,2.3416,2.3444,2.3819,2.3883,2.3395,2.2692,2.1907,2.1074,2.0332,0.0,0.0,0.0,0.0,0.0,0.0,0.0,0.0,0.0,0.0,0.0,0.0,0.0,0.0,0.0,0.0,0.0,0.0,0.0,0.0,0.0,0.0,0.0,0.0,0.0,0.0,0.0,0.0,0.0,0.0,0.0,0.0,0.0,0.0,0.0,0.0,0.0,0.0,0.0,0.0,0.0,0.0,0.0,0.0,0.0,0.0,0.0,0.0,0.0,0.0,0.0,0.0,0.0,0.0,0.0,0.0,0.0,0.0,0.0,0.0,0.0,0.0,0.0,0.0,0.0,0.0,0.0,0.0,0.0,0.0,0.0,0.0,0.0,0.0,0.0,0.0,0.0,0.0,0.0,0.0,0.0,0.0,0.0,0.0,0.0,0.0,0.0,0.0,0.0,0.0,0.0,0.0,0.0,0.0,0.0,0.0,0.0,0.0,0.0,0.0,0.0,0.0,2.3151,2.359,2.3895,2.411,2.3886,2.3187,2.2849,2.2108,2.0824,0.0,0.0,0.0,0.0,0.0,0.0,0.0,0.0,0.0,0.0,0.0,0.0,0.0,0.0,0.0,0.0,0.0,0.0,0.0,0.0,0.0,0.0,0.0,0.0,0.0,0.0,0.0,0.0,0.0,0.0,0.0,0.0,0.0,0.0,0.0,0.0,0.0,0.0,0.0,0.0,0.0,0.0,0.0,0.0,0.0,0.0,0.0,0.0,0.0,0.0,0.0,0.0,0.0,0.0,0.0,0.0,0.0,0.0,0.0,0.0,0.0,0.0,0.0,0.0,0.0,0.0,0.0,0.0,0.0,0.0,0.0,0.0,0.0,0.0,0.0,0.0,0.0,0.0,0.0,0.0,0.0,0.0,0.0,0.0,0.0,0.0,0.0,0.0,0.0,0.0,0.0,0.0,0.0,0.0,0.0,0.0,0.0,0.0,0.0,0.0,0.0,0.0,2.2898,2.3544,2.4036,2.4264,2.4301,2.3975,2.3151,2.2858,2.2181,2.0946,0.0,0.0,0.0,0.0,0.0,0.0,0.0,0.0,0.0,0.0,0.0,0.0,0.0,0.0,0.0,0.0,0.0,0.0,0.0,0.0,0.0,0.0,0.0,0.0,0.0,0.0,0.0,0.0,0.0,0.0,0.0,0.0,0.0,0.0,0.0,0.0,0.0,0.0,0.0,0.0,0.0,0.0,0.0,0.0,0.0,0.0,0.0,0.0,0.0,0.0,0.0,0.0,0.0,0.0,0.0,0.0,0.0,0.0,0.0,0.0,0.0,0.0,0.0,0.0,0.0,0.0,0.0,0.0,0.0,0.0,0.0,0.0,0.0,0.0,0.0,0.0,0.0,0.0,0.0,0.0,0.0,0.0,0.0,0.0,0.0,0.0,0.0,0.0,0.0,0.0,0.0,0.0,0.0,0.0,0.0,0.0,0.0,0.0,0.0,0.0,0.0,0.0,2.3196,2.4218,2.4784,2.4538,2.448,2.4223,2.3574,2.2748,2.2117,0.0,0.0,0.0,0.0,0.0,0.0,0.0,0.0,0.0,0.0,0.0,0.0,0.0,0.0,0.0,0.0,0.0,0.0,0.0,0.0,0.0,0.0,0.0,0.0,0.0,0.0,0.0,0.0,0.0,0.0,0.0,0.0,0.0,0.0,0.0,0.0,0.0,0.0,0.0,0.0,0.0,0.0,0.0,0.0,0.0,0.0,0.0,0.0,0.0,0.0,0.0,0.0,0.0,0.0,0.0,0.0,0.0,0.0,0.0,0.0,0.0,0.0,0.0,0.0,0.0,0.0,0.0,0.0,0.0,0.0,0.0,0.0,0.0,0.0,0.0,0.0,0.0,0.0,0.0,0.0,0.0,0.0,0.0,0.0,0.0,0.0,0.0,0.0,0.0,0.0,0.0,0.0,0.0,0.0,0.0,0.0,0.0,0.0,0.0,0.0,0.0,0.0,0.0,2.3635,2.4445,2.4996,2.5239,2.4805,2.4321,2.3825,2.3117,2.23,2.1355,0.0,0.0,0.0,0.0,0.0,0.0,0.0,0.0,0.0,0.0,0.0,0.0,0.0,0.0,0.0,0.0,0.0,0.0,0.0,0.0,0.0,0.0,0.0,0.0,0.0,0.0,0.0,0.0,0.0,0.0,0.0,0.0,0.0,0.0,0.0,0.0,0.0,0.0,0.0,0.0,0.0,0.0,0.0,0.0,0.0,0.0,0.0,0.0,0.0,0.0,0.0,0.0,0.0,0.0,0.0,0.0,0.0,0.0,0.0,0.0,0.0,0.0,0.0,0.0,0.0,0.0,0.0,0.0,0.0,0.0,0.0,0.0,0.0,0.0,0.0,0.0,0.0,0.0,0.0,0.0,0.0,0.0,0.0,0.0,0.0,0.0,0.0,0.0,0.0,0.0,0.0,0.0,0.0,0.0,0.0,0.0,0.0,0.0,0.0,0.0,0.0,0.0,2.4003,2.4773,2.5349,2.5729,2.5339,2.4869,2.4358,2.3754,2.301,2.1924,0.0,0.0,0.0,0.0,0.0,0.0,0.0,0.0,0.0,0.0,0.0,0.0,0.0,0.0,0.0,0.0,0.0,0.0,0.0,0.0,0.0,0.0,0.0,0.0,0.0,0.0,0.0,0.0,0.0,0.0,0.0,0.0,0.0,0.0,0.0,0.0,0.0,0.0,0.0,0.0,0.0,0.0,0.0,0.0,0.0,0.0,0.0,0.0,0.0,0.0,0.0,0.0,0.0,0.0,0.0,0.0,0.0,0.0,0.0,0.0,0.0,0.0,0.0,0.0,0.0,0.0,0.0,0.0,0.0,0.0,0.0,0.0,0.0,0.0,0.0,0.0,0.0,0.0,0.0,0.0,0.0,0.0,0.0,0.0,0.0,0.0,0.0,0.0,0.0,0.0,0.0,0.0,0.0,0.0,0.0,0.0,0.0,0.0,0.0,0.0,0.0,0.0,2.4345,2.5228,2.5859,2.6087,2.6047,2.5695,2.5019,2.4562,2.389,2.3002,0.0,0.0,0.0,0.0,0.0,0.0,0.0,0.0,0.0,0.0,0.0,0.0,0.0,0.0,0.0,0.0,0.0,0.0,0.0,0.0,0.0,0.0,0.0,0.0,0.0,0.0,0.0,0.0,0.0,0.0,0.0,0.0,0.0,0.0,0.0,0.0,0.0,0.0,0.0,0.0,0.0,0.0,0.0,0.0,0.0,0.0,0.0,0.0,0.0,0.0,0.0,0.0,0.0,0.0,0.0,0.0,0.0,0.0,0.0,0.0,2.1539,2.0979,0.0,0.0,0.0,0.0,0.0,0.0,0.0,0.0,0.0,0.0,0.0,0.0,0.0,0.0,0.0,0.0,0.0,0.0,0.0,0.0,0.0,0.0,0.0,0.0,0.0,0.0,0.0,0.0,0.0,0.0,0.0,0.0,0.0,0.0,0.0,0.0,0.0,0.0,0.0,0.0,2.5025,2.5819,2.6416,2.6734,2.6321,2.5804,2.5273,2.4659,2.3777,2.2596,2.1315,0.0,0.0,0.0,0.0,0.0,0.0,0.0,0.0,0.0,0.0,0.0,0.0,0.0,0.0,0.0,0.0,0.0,0.0,0.0,0.0,0.0,0.0,0.0,0.0,0.0,0.0,0.0,0.0,0.0,0.0,0.0,0.0,0.0,0.0,0.0,0.0,0.0,0.0,0.0,0.0,0.0,0.0,0.0,0.0,0.0,0.0,0.0,0.0,0.0,0.0,0.0,0.0,0.0,0.0,0.0,0.0,0.0,0.0,0.0,2.2896,2.2227,0.0,0.0,0.0,0.0,0.0,0.0,0.0,0.0,0.0,0.0,0.0,0.0,0.0,0.0,0.0,0.0,0.0,0.0,0.0,0.0,0.0,0.0,0.0,0.0,0.0,0.0,0.0,0.0,0.0,0.0,0.0,0.0,0.0,0.0,0.0,0.0,0.0,0.0,0.0,0.0,2.5179,2.5781,2.6318,2.6943,2.6715,2.6139,2.5286,2.5064,2.4334,2.289,2.1611,0.0,0.0,0.0,0.0,0.0,0.0,0.0,0.0,0.0,0.0,0.0,0.0,0.0,0.0,0.0,0.0,0.0,0.0,0.0,0.0,0.0,0.0,0.0,0.0,0.0,0.0,0.0,0.0,0.0,0.0,0.0,0.0,0.0,0.0,0.0,0.0,0.0,0.0,0.0,0.0,0.0,0.0,0.0,0.0,0.0,0.0,0.0,0.0,0.0,0.0,0.0,0.0,0.0,2.4088,2.4661,2.4886,2.4886,2.5096,2.547,2.44,2.3837,2.3682,2.3361,0.0,0.0,0.0,0.0,0.0,0.0,0.0,0.0,0.0,0.0,0.0,0.0,0.0,0.0,0.0,0.0,0.0,0.0,0.0,0.0,0.0,0.0,2.3721,0.0,2.3774,2.3372,2.3009,0.0,0.0,0.0,0.0,0.0,0.0,0.0,0.0,0.0,0.0,0.0,2.5218,2.5645,2.6123,2.6836,2.6904,2.6406,2.5261,2.5448,2.4988,2.3501,2.2185,2.1262,0.0,0.0,0.0,0.0,0.0,0.0,0.0,0.0,0.0,0.0,0.0,0.0,0.0,0.0,0.0,0.0,0.0,0.0,0.0,0.0,0.0,0.0,0.0,0.0,0.0,0.0,0.0,0.0,0.0,0.0,0.0,0.0,1.6633,1.6734,0.0,0.0,0.0,0.0,0.0,0.0,0.0,0.0,0.0,0.0,0.0,0.0,0.0,2.2858,2.3251,2.4464,2.4886,2.4556,2.5396,2.5626,2.5341,2.5341,2.5561,2.5929,2.5764,0.0,2.4611,2.4565,0.0,0.0,0.0,0.0,0.0,0.0,0.0,0.0,0.0,0.0,0.0,0.0,0.0,0.0,0.0,0.0,0.0,0.0,0.0,0.0,0.0,0.0,2.5158,2.5582,2.5257,2.4836,0.0,2.3431,2.228,2.2334,2.1911,2.1561,0.0,0.0,0.0,0.0,0.0,0.0,2.5509,2.6015,2.6348,2.6455,2.6475,2.6182,2.5421,2.5391,2.5109,2.4395,2.3092,2.215,2.1768,2.0825,0.0,0.0,0.0,0.0,0.0,0.0,0.0,0.0,0.0,0.0,0.0,0.0,0.0,0.0,0.0,0.0,0.0,0.0,0.0,0.0,0.0,0.0,0.0,0.0,0.0,0.0,0.0,0.0,0.0,1.6514,1.7403,1.7871,1.8238,1.854,0.0,0.0,0.0,0.0,0.0,0.0,0.0,0.0,0.0,2.2346,2.294,2.3544,2.4235,2.5216,2.5672,2.5506,2.6032,2.6334,2.6389,2.6389,2.6655,2.7032,2.7032,2.6581,2.5748,2.506,2.4601,2.4244,0.0,0.0,0.0,0.0,2.4142,2.4334,2.443,2.464,2.4838,2.5125,0.0,0.0,0.0,0.0,0.0,0.0,0.0,2.3626,0.0,0.0,2.5381,2.577,2.5479,2.5116,2.5116,2.4249,2.3474,2.3287,2.2664,2.2211,2.2254,2.209,0.0,0.0,0.0,2.4509,2.5283,2.5752,2.6113,2.6367,2.6172,2.5761,2.5102,2.543,2.5365,2.4687,2.4535,2.4395,2.4213,2.337,2.2685,0.0,0.0,0.0,0.0,0.0,0.0,0.0,0.0,0.0,0.0,0.0,0.0,0.0,0.0,0.0,0.0,0.0,0.0,0.0,0.0,0.0,0.0,0.0,0.0,0.0,0.0,0.0,0.0,1.7394,1.8219,1.8944,1.9118,1.9329,0.0,0.0,0.0,0.0,0.0,0.0,2.2117,2.2254,2.2685,2.3352,2.3755,2.4354,2.5078,2.5929,2.6269,2.6177,2.6646,2.6985,2.7178,2.7178,2.7334,2.7666,2.7564,2.7187,2.6664,2.5656,2.5234,2.5194,2.4376,2.4381,2.4774,2.5026,2.532,2.5595,2.5655,2.5932,2.6362,2.6845,2.6521,2.5885,2.5114,0.0,0.0,0.0,0.0,2.4381,2.5562,2.5623,2.5459,2.5781,2.5566,2.5205,2.5135,2.4814,2.4453,2.4033,2.335,2.2842,2.2842,2.2842,0.0,2.2988,2.3906,2.4793,2.5271,2.5624,2.5947,2.6379,2.6025,2.5587,2.5183,2.5536,2.575,2.5562,2.5941,2.6285,2.6539,2.5529,2.4803,2.4426,0.0,0.0,0.0,0.0,0.0,0.0,0.0,0.0,0.0,0.0,0.0,0.0,0.0,0.0,0.0,0.0,0.0,0.0,0.0,0.0,0.0,0.0,0.0,0.0,0.0,0.0,0.0,0.0,0.0,1.9774,2.02,0.0,0.0,0.0,0.0,2.2171,2.2556,2.2968,2.338,2.3822,2.4284,2.4675,2.5069,2.5534,2.5947,2.6765,2.693,2.6564,2.7334,2.7574,2.7178,2.7178,2.7187,2.7187,2.6811,2.6839,2.7114,2.6683,2.5839,2.4891,2.547,2.5461,2.5273,2.6177,2.6785,2.7246,2.7464,2.7842,2.8208,2.8627,2.8048,2.7016,2.5885,2.4981,0.0,0.0,2.4507,2.4785,2.5285,2.5547,2.5791,2.626,2.6025,2.5586,2.5166,2.5096,2.4912,0.0,2.4033,2.3721,2.3721,0.0,2.3857,2.4258,2.4727,2.529,2.5963,2.6081,2.6207,2.6478,2.6087,2.5894,2.6097,2.5904,2.6302,2.7458,2.6948,2.7015,2.7959,2.6588,2.5841,2.5808,2.4367,0.0,0.0,0.0,0.0,0.0,0.0,0.0,0.0,0.0,0.0,0.0,0.0,0.0,0.0,0.0,0.0,0.0,0.0,0.0,0.0,0.0,0.0,0.0,0.0,0.0,0.0,0.0,0.0,2.0973,2.1641,0.0,2.2593,2.2629,2.3015,2.384,2.4051,2.4308,2.4702,2.5148,2.5561,2.5931,2.6325,2.6774,2.7169,2.7215,2.737,2.7756,2.7765,2.7829,2.7957,2.7957,2.7811,2.7536,2.7141,2.705,2.7141,2.6747,2.6334,2.5931,2.5961,2.5928,2.6082,2.6924,2.7606,2.8109,2.8172,2.8422,2.8672,2.8555,2.815,2.7579,2.6906,2.6168,2.5667,2.6145,2.6121,2.6056,2.6703,2.6717,2.6533,2.6416,2.6269,2.6035,2.5596,2.5498,2.5371,2.4922,2.4482,2.4199,2.4199,2.4424,2.456,2.4434,2.5039,2.5545,2.5704,2.6333,2.6924,2.7183,2.6963,2.6843,2.7072,2.685,2.7113,2.8045,2.8563,2.915,2.9856,2.9393,2.8781,2.811,2.6909,2.5828,0.0,0.0,0.0,0.0,0.0,0.0,0.0,0.0,0.0,0.0,0.0,0.0,0.0,0.0,0.0,0.0,0.0,0.0,0.0,0.0,0.0,0.0,0.0,0.0,0.0,2.0049,2.1238,2.219,2.2776,2.3316,2.3855,2.396,2.4244,2.4931,2.5157,2.5405,2.5757,2.6214,2.6609,2.6976,2.7242,2.7499,2.7822,2.7646,2.7783,2.8177,2.8177,2.8251,2.8397,2.8397,2.8242,2.7957,2.761,2.737,2.7352,2.7086,2.6985,2.6986,2.6533,2.6521,2.6877,2.7528,2.8096,2.8533,2.8509,2.8662,2.8848,2.8428,2.8281,2.8149,2.7786,2.7203,2.682,2.7317,2.7085,2.6865,2.7321,2.7236,2.6943,2.667,2.6494,2.6309,2.6016,2.5791,2.5596,2.5352,2.4941,2.459,2.4443,2.4775,2.5018,2.4817,2.5359,2.5915,2.6189,2.694,2.7636,2.807,2.776,2.7667,2.7941,2.755,2.773,2.8719,2.963,3.0398,3.1151,3.1019,3.0585,2.9845,2.8619,2.7103,2.5312,0.0,0.0,0.0,0.0,0.0,0.0,0.0,0.0,0.0,0.0,0.0,0.0,0.0,0.0,0.0,0.0,0.0,0.0,0.0,0.0,0.0,0.0,0.0,2.0539,2.122,2.219,2.337,2.3544,2.3883,2.4739,2.4831,2.5005,2.5451,2.5837,2.6232,2.6609,2.7004,2.7445,2.7831,2.7849,2.7858,2.7858,2.8196,2.8205,2.7886,2.8608,2.8792,2.8434,2.8434,2.8425,2.8388,2.7967,2.784,2.784,2.7831,2.7822,2.7748,2.7224,2.7278,2.7642,2.7909,2.8285,2.8587,2.8569,2.8671,2.8848,2.8428,2.8564,2.8818,2.8418,2.8008,2.7738,2.7738,2.7383,2.7051,2.7051,2.7051,2.7051,2.7041,2.6709,2.6406,2.6387,2.6045,2.5693,2.5693,2.5391,2.4951,2.4531,2.4805,2.523,2.5476,2.5881,0.0,2.7489,2.7857,2.8362,2.9082,2.8511,2.8268,2.87,2.799,2.8193,2.9713,2.9971,3.0555,3.1669,3.1199,3.091,3.0898,2.9304,2.7476,2.536,0.0,0.0,0.0,0.0,0.0,0.0,0.0,0.0,0.0,0.0,0.0,0.0,0.0,0.0,0.0,0.0,0.0,0.0,0.0,0.0,0.0,2.0497,2.1248,2.0989,2.2117,2.3233,2.3914,2.4757,2.539,2.5663,2.5913,2.6252,2.6646,2.6839,2.7077,2.7473,2.7838,2.8113,2.8214,2.8498,2.8645,2.8645,2.848,2.8627,2.9067,2.9012,2.9076,2.925,2.925,2.9094,2.8801,2.8397,2.8223,2.8196,2.795,2.7822,2.7803,2.763,2.7677,2.7816,2.8177,2.864,2.9079,2.9,2.8913,2.8848,2.8428,2.8369,2.8437,2.833,2.8213,2.8125,2.8125,2.8037,2.7939,2.7939,2.7939,2.7861,2.7559,2.7158,2.6758,2.6455,2.6045,2.5693,2.5693,2.5586,2.5469,2.5343,2.543,2.5643,2.5874,2.6471,0.0,2.7809,2.8899,2.9772,3.017,2.9791,2.9567,2.9694,2.9172,2.9159,2.9966,3.0086,3.0555,3.1669,3.1199,3.0742,3.0314,2.9124,2.7849,0.0,0.0,0.0,0.0,0.0,0.0,0.0,0.0,0.0,0.0,0.0,0.0,0.0,0.0,0.0,0.0,0.0,0.0,0.0,0.0,0.0,0.0,2.1851,2.2667,2.2419,2.3198,2.407,2.4872,2.5736,2.6342,2.6508,2.6839,2.7178,2.7407,2.7426,2.7656,2.8003,2.826,2.8471,2.8636,2.8865,2.8984,2.8984,2.892,2.9039,2.9324,2.9259,2.9259,2.9324,2.9324,2.9204,2.8975,2.8737,2.8645,2.8618,2.8379,2.8269,0.0,0.0,0.0,0.0,0.0,2.8944,2.9278,2.9203,2.9053,2.8877,2.8633,2.8437,2.8291,2.8291,2.8291,2.8291,2.8291,2.8291,2.8291,2.8291,2.8291,2.8232,2.7988,2.7461,2.6943,2.6699,2.6172,2.5693,2.5693,2.5693,0.0,2.5693,2.5693,2.583,2.6197,2.6887,2.7636,2.8373,2.96,3.0509,3.0847,3.041,3.0086,3.0086,2.94,0.0,0.0,0.0,3.0458,3.1344,3.1091,0.0,0.0,0.0,0.0,0.0,0.0,0.0,0.0,2.6635,2.7115,0.0,0.0,0.0,0.0,0.0,0.0,0.0,0.0,0.0,0.0,0.0,0.0,0.0,0.0,0.0,0.0,2.3125,2.4238,2.4321,2.4376,2.4808,2.5883,2.6425,2.6793,2.7141,2.7536,2.784,2.7829,2.7895,2.8012,2.8443,2.8462,0.0,0.0,0.0,2.8984,2.8984,2.9333,2.9333,2.8984,2.9333,2.9324,2.8984,2.8984,2.8984,2.8984,2.8984,2.8984,2.8984,2.8984,2.8984,2.8911,2.8187,2.8132,2.8507,2.8906,2.9167,2.9382,2.9335,0.0,0.0,2.8935,2.8633,2.8291,2.8291,2.8291,2.8291,2.8291,2.8291,2.8291,2.8291,2.8291,2.8291,2.8291,2.7637,2.7021,2.708,2.6366,2.5771,2.582,2.5791,2.5762,2.5762,2.5723,2.5878,2.64,2.7183,2.807,2.9024,3.008,3.0892,3.1306,0.0,0.0,3.0212,2.9309,2.8935,2.9393,2.9875,3.0266,3.0718,3.0802,3.0585,3.0013,2.9532,2.9039,2.851,2.857,2.833,2.7774,2.7774,2.7798,0.0,0.0,0.0,0.0,0.0,0.0,0.0,0.0,0.0,0.0,0.0,0.0,0.0,0.0,0.0,2.2016,2.3308,2.4431,2.5093,2.546,2.5754,2.5984,2.6609,2.7086,2.7169,2.7536,2.7902,2.8251,2.8269,2.8452,2.8847,2.8865,2.8902,2.8984,2.8984,2.8984,2.8984,2.9058,2.9058,2.8984,2.9058,0.0,2.8984,2.8984,2.8984,2.8984,2.8984,2.8984,2.8984,2.8984,2.8984,2.8966,2.881,2.8801,2.8933,2.9244,2.958,2.9761,2.9719,2.96,2.9385,2.9033,2.8633,2.8291,2.8291,2.8291,0.0,2.8291,2.8291,2.8291,2.8291,2.8291,2.8291,2.8291,2.7637,2.7109,2.7461,2.6865,2.6357,2.6699,2.6494,2.626,2.626,2.5967,2.5878,2.64,2.7636,2.8691,2.9347,3.0623,3.1528,3.1617,3.1257,3.0998,3.0998,3.0606,3.0289,3.0197,3.0151,2.9941,2.9617,3.0013,2.9989,2.946,2.9352,2.9039,2.851,2.8931,2.8871,2.8366,2.8366,2.8595,0.0,0.0,0.0,0.0,0.0,0.0,0.0,0.0,0.0,0.0,0.0,1.9503,2.0099,0.0,2.2181,2.2794,2.396,2.4955,2.5359,2.5947,2.627,2.627,2.7041,2.7528,2.7528,2.8079,2.8462,2.8673,2.8691,2.8773,2.8975,2.8984,2.8984,2.8984,2.8984,2.8984,2.8984,2.8984,2.8984,2.8984,2.8984,2.8984,2.8984,2.8984,2.8984,2.8984,2.8984,2.8984,2.8984,2.8984,2.8984,2.9044,2.9153,2.9272,2.9272,2.945,2.9804,3.0128,3.0093,2.9889,2.9531,2.9316,2.8809,2.8291,2.8291,2.8291,2.8291,2.8291,2.8291,2.8291,2.8291,2.8291,2.8291,2.8291,2.7637,2.7139,2.762,2.7043,2.6514,2.6934,2.668,2.6387,2.6387,2.6025,2.5878,2.64,2.7778,2.8877,2.9428,3.0802,3.1705,3.1705,3.1385,3.1186,3.1186,3.0594,3.013,2.9995,2.9801,2.9581,2.9304,2.9556,2.9569,2.9304,2.9039,2.8907,2.8907,2.8907,2.8775,2.851,2.851,2.8655,0.0,0.0,0.0,0.0,0.0,0.0,0.0,1.6717,1.799,1.8485,1.9701,2.0879,2.1273,2.2245,2.3151,2.3544,2.4629,2.5451,2.5525,2.6123,2.6591,2.6591,2.7288,2.7822,2.7822,2.8498,2.8984,2.8984,2.8984,2.8984,2.8984,2.8984,2.8984,2.8984,2.8984,2.8984,2.8984,2.8984,2.8984,2.8984,2.8984,2.8984,2.8984,2.8984,2.8984,2.8984,2.8984,2.8984,2.8984,2.8984,2.9044,2.9103,2.9381,2.9558,2.9677,2.9677,2.9971,3.0392,3.045,3.0121,2.9626,2.9626,2.8994,2.8291,2.8291,2.8291,2.8291,2.8291,2.8291,2.8291,2.8291,2.8291,2.8291,2.8291,2.7705,2.7266,2.7748,2.7178,2.6758,2.7178,2.6855,2.6514,2.6514,2.6074,2.5878,2.64,2.7778,2.8877,2.9428,3.0802,3.1705,3.1705,3.1525,3.14,3.1265,3.0362,2.9748,2.9541,2.9298,2.9148,2.9148,2.9148,2.9148,2.9176,2.8727,2.8715,2.9176,2.8715,2.851,2.851,2.851,2.851,1.1544,1.1804,1.2388,1.3105,1.4403,1.5709,0.0,1.7952,1.932,2.0049,2.0927,2.1678,2.2071,2.2849,2.3563,2.4073,2.4863,2.5543,2.5892,2.6298,2.6591,2.6591,2.7288,2.7822,2.7822,2.8498,2.8984,2.8984,2.8984,2.8984,2.8984,2.8984,2.8984,2.8984,2.8984,2.8984,2.8984,2.8984,2.8984,2.8984,2.8984,2.8984,2.8984,2.8984,2.8984,2.8984,2.8984,2.8984,2.8984,2.8984,2.9153,2.945,2.9509,2.9853,3.0333,3.0333,3.0323,3.045,3.0762,3.0312,2.9626,2.9626,2.8994,2.8291,2.8291,2.8291,2.8291,2.8291,2.8291,2.8291,2.8291,2.8291,2.8291,2.8291,2.793,2.7705,2.8135,2.7851,2.7646,2.8066,2.75,2.6943,2.6943,2.6269,2.5878,2.64,2.7778,2.8877,2.9428,3.0802,3.1705,3.1705,3.2021,3.2025,3.1439,3.0964,3.0237,2.9199,2.8794,2.8595,2.8595,2.8595,2.8674,2.8849,2.8614,2.8614,2.8849,2.8614,2.851,2.851,2.851,2.851,1.2214,1.2505,1.3056,1.3968,1.5258,1.6541,1.7573,1.9151,2.0521,2.1065,2.2016,2.2794,2.2959,2.3712,2.4317,2.4542,2.524,2.5828,2.5993,2.6379,2.6591,2.6591,2.7077,2.7517,2.7803,2.8297,2.8737,2.8966,2.8984,2.8984,2.8984,2.8984,2.8984,2.8984,2.8984,2.8984,2.8984,2.8984,2.8984,2.8984,2.8984,2.8984,2.8984,2.8984,2.8984,2.8984,2.8984,2.8984,2.8984,2.8984,2.9103,2.9213,2.945,2.9677,2.9912,3.0265,3.0509,3.0665,3.0518,3.0088,2.9531,2.9277,2.8779,2.8291,2.8291,2.8291,2.8291,2.8291,2.8291,2.8291,2.8291,2.8291,2.8291,2.8291,2.7969,2.7836,2.8203,2.7959,2.7845,2.8213,2.7598,2.7012,2.7012,2.6259,2.5878,2.64,2.7778,2.8877,2.9428,3.0802,3.1749,3.1849,3.2038,3.1859,3.11,3.0741,3.0098,2.8995,2.8657,2.851,2.851,2.8618,2.8724,2.8791,2.8724,2.8724,2.8791,2.8618,2.851,2.851,2.851,2.851,1.2723,1.3033,1.3548,1.4427,1.5617,1.6889,1.8128,1.9661,2.098,2.1681,2.2525,2.3196,2.3423,2.3949,2.4472,2.4802,2.5427,2.5929,2.6149,2.6399,2.6591,2.6591,2.6839,2.7169,2.762,2.8086,2.8517,2.8801,2.892,2.8984,2.8984,2.8984,2.8984,2.8984,2.8984,2.8984,2.8984,2.8984,2.8984,2.8984,2.8984,2.8984,2.8984,2.8984,2.8984,2.8984,2.8984,2.8984,2.8984,2.8984,2.9044,2.9153,2.939,2.9568,2.9686,3.0089,3.046,3.0694,3.0351,2.9922,2.9502,2.9062,2.8633,2.8291,2.8291,2.8291,2.8291,2.8291,2.8291,2.8291,2.8291,2.8291,2.8291,2.8291,2.8057,2.792,2.8223,2.8057,2.793,2.8232,2.7598,2.7012,2.7012,2.6259,2.5878,2.64,2.7778,2.8877,2.9428,3.0802,3.1745,3.1775,3.1763,3.1455,3.0655,3.0313,2.9776,2.8852,2.8618,2.851,2.8578,2.8724,2.8831,2.8949,2.887,2.8843,2.8882,2.8618,2.851,2.851,2.851,2.851,1.2784,1.318,1.3716,1.4171,1.5208,1.6482,1.7905,1.911,2.0374,2.1868,2.2159,2.2407,2.3237,2.3388,2.3705,2.4801,2.5215,2.5665,2.6454,2.6582,2.6591,2.6591,2.66,2.6765,2.716,2.7921,2.8397,2.8416,2.8764,2.8984,2.8984,2.8984,2.8984,2.8984,2.8984,2.8984,2.8984,2.8984,2.8984,2.8984,2.8984,2.8984,2.8984,2.8984,2.8984,2.8984,2.8984,2.8984,2.8984,2.8984,2.9213,2.9509,2.9499,2.9686,2.9863,2.9922,3.0157,3.0383,3.0237,2.9922,2.9502,2.9062,2.8633,2.8291,2.8291,2.8291,2.8291,2.8291,2.8291,2.8291,2.8291,2.8291,2.8291,2.8291,2.8281,2.8281,2.8291,2.8281,2.8281,2.8291,2.7598,2.7012,2.7012,2.6259,2.5878,2.64,2.7778,2.8877,2.9428,3.0802,3.1588,3.1272,3.1211,3.0882,3.0089,2.9764,2.9387,2.8828,2.8618,2.8578,2.8803,2.8791,2.8988,2.938,2.8988,2.8882,2.9091,2.8709,2.851,2.851,2.851,2.851,1.3233,1.3447,1.3775,1.4495,1.5375,1.6347,1.7513,1.9046,2.0381,2.0967,2.1415,2.1791,2.2154,2.2605,2.3232,2.4227,2.5214,2.6012,2.6509,2.6591,2.6591,2.6591,2.6591,2.6637,2.6774,2.7508,2.8095,2.837,2.8755,2.8984,2.8984,2.8984,2.8984,2.8984,2.9232,2.9241,2.8984,2.9241,2.9241,2.8984,2.8984,2.8984,2.8984,2.8984,2.8984,2.8984,2.8984,2.8984,2.8984,2.8984,2.9044,2.9153,2.9153,2.9213,2.934,2.9568,2.9507,2.9381,2.9421,2.9335,2.9072,2.8643,2.8408,2.8291,2.8291,2.8291,2.8291,2.8291,2.8291,2.8291,2.8291,2.8291,2.8291,2.8291,2.8291,2.8291,2.8291,2.8291,2.8291,2.8291,2.7598,2.7012,2.7012,2.6259,2.6197,2.772,2.8713,2.9646,3.0802,3.1383,3.15,3.1057,3.0996,3.0616,2.9605,2.9455,2.9185,2.8614,2.855,2.855,2.8618,2.8855,2.904,2.9197,2.9091,2.9013,2.9091,2.8709,2.851,2.8522,2.8871,2.9027,1.3467,1.368,1.3929,1.4554,1.5149,1.587,1.7062,1.8584,1.9872,2.0154,2.0659,2.1066,2.1278,2.1661,2.2308,2.3625,2.4774,2.5727,2.6336,2.6527,2.6591,2.6591,2.6591,2.6646,2.6784,2.7389,2.7932,2.815,2.8544,2.8838,2.8975,2.8984,2.8984,2.8984,2.9369,2.9388,2.8984,2.9369,2.9369,2.8984,2.8984,2.8984,2.8984,2.8984,2.8984,2.8984,2.8984,2.8984,2.8984,2.8984,2.8984,2.8984,2.8984,2.8984,2.9044,2.9213,2.9037,2.865,2.9165,2.9186,2.8917,2.8598,2.8516,2.8486,2.834,2.8291,2.8291,2.8291,2.8291,2.8291,2.8291,2.8291,2.8291,2.8291,2.8291,2.8291,2.8291,2.8291,2.8291,2.8291,2.7598,2.7012,2.7012,2.6448,2.6524,2.819,2.8956,2.9943,3.1484,3.1705,3.1428,3.0675,3.0591,3.017,2.9112,2.9015,2.8871,2.8534,2.851,2.855,2.8618,2.8855,2.9052,2.9197,2.9091,2.9013,2.9091,2.8709,2.851,2.8522,2.9051,2.9304,1.3547,1.3874,1.4166,1.4356,1.4538,1.5043,1.6432,1.7684,1.8778,1.9518,1.9862,2.0114,2.0573,2.0512,2.0974,2.2864,2.3974,2.4907,2.59,2.6354,2.6591,2.6591,2.6609,2.6765,2.7141,2.7536,2.7831,2.7849,2.8187,2.859,2.8966,2.8984,2.8984,2.8984,2.9369,2.9388,2.8984,2.9351,2.9351,2.8984,2.8984,2.8984,2.8984,2.8984,2.8984,2.8984,2.8984,2.8984,2.8984,2.8984,2.8984,2.8984,2.8984,2.8984,2.9044,2.8984,2.8646,2.8341,2.9394,2.9478,2.9026,2.8917,2.8881,2.8848,2.8447,2.831,2.8291,2.8291,2.8291,2.8291,2.8291,2.8291,2.8291,2.8291,2.8291,2.8291,2.8291,2.8291,2.8281,2.8262,2.7568,2.6973,2.6953,2.6666,2.6832,2.7799,2.856,2.9669,3.1439,3.1661,3.1264,3.0242,3.0122,2.9713,2.8679,2.857,2.8546,2.8546,2.8522,2.8578,2.8803,2.8803,2.8988,2.938,2.9013,2.8919,2.9128,2.8769,2.8595,2.8607,2.9136,2.9376,1.3895,1.4028,1.413,1.4166,1.437,1.4799,1.575,1.7203,1.835,1.8192,1.8458,1.8676,1.8533,1.8515,1.9182,2.1076,2.282,2.4278,2.5281,2.6136,2.6591,2.6591,2.6848,2.7068,2.7169,2.7536,2.7893,2.8214,2.8608,2.8874,2.8975,2.8984,2.8984,2.8984,2.9369,2.9388,2.8984,2.9085,2.9085,2.8984,2.8984,2.8984,2.8984,2.8984,2.8984,2.8984,2.8984,2.8984,2.8984,2.8984,2.8984,2.8984,2.8984,2.9153,2.9331,2.9094,2.8646,2.8285,2.8867,2.888,2.8699,2.8957,2.8969,2.8896,2.8789,2.8545,2.8291,2.8291,2.8291,2.8291,2.8291,2.8291,2.8291,2.8291,2.8291,2.8291,2.8291,2.8291,2.8203,2.7891,2.7139,2.6445,2.6074,2.6113,2.6476,2.7295,2.7882,2.8967,3.0847,3.1261,3.1233,3.0747,3.0718,3.0398,2.9737,2.9328,2.91,2.91,2.8727,2.851,2.8578,2.8724,2.8831,2.8949,2.9232,2.9427,2.948,2.9608,2.9689,2.9701,3.023,3.047,1.4008,1.4088,1.4088,1.4088,1.4302,1.465,1.5339,1.6662,1.765,1.7317,1.7524,1.7716,1.7578,1.7432,1.8021,1.9976,2.1937,2.3551,2.4637,2.5855,2.6591,2.6591,2.694,2.7242,2.7473,2.7801,2.8214,2.8618,2.87,2.8801,2.8975,2.8984,2.8984,2.8984,2.9369,2.9461,2.9241,2.9067,2.8984,2.8984,2.8984,2.8984,2.8984,2.8984,2.8984,2.8984,2.8984,2.8984,2.8984,2.8984,2.8984,2.8984,2.9153,2.9509,2.9853,2.9686,2.9218,2.8672,2.8906,2.8691,2.8409,2.8941,2.9126,2.917,2.8975,2.8623,2.8291,2.8291,2.8291,2.8291,2.8291,2.8291,2.8291,2.8291,2.8291,2.8291,2.8291,2.8291,2.8115,2.75,2.6846,2.625,2.5762,2.5917,2.6284,2.6791,2.7421,2.8315,2.9749,3.0566,3.0971,3.0884,3.0922,3.0663,3.0134,2.9821,2.9544,2.9316,2.9027,2.8751,2.8522,2.8835,2.9076,2.9144,2.9597,2.9876,2.9958,3.0067,3.0086,3.0098,3.0627,3.0922,1.4075,1.4115,1.4088,1.4088,1.4302,1.4603,1.5073,1.6096,1.6864,1.6615,1.6694,1.6837,1.696,1.6657,1.7113,1.9161,2.1044,2.2708,2.3977,2.5549,2.6527,2.6582,2.6985,2.7445,2.7794,2.8196,2.8618,2.8957,2.8663,2.8627,2.8966,2.8984,2.8984,2.8984,2.9314,2.9489,2.9489,2.9149,2.8984,2.8984,2.8984,2.8984,2.8984,2.8984,2.8984,2.8984,2.8984,2.8984,2.8984,2.8984,2.9044,2.9103,2.945,2.9971,3.0499,3.0558,3.0073,2.9329,2.9355,2.8813,2.8243,2.882,2.9252,2.9414,2.9033,2.8623,2.8291,2.8291,2.8291,2.8291,2.8291,2.8291,2.8291,2.8291,2.8291,2.8291,2.8291,2.8203,2.7891,2.709,2.6592,2.6182,2.5752,2.5868,2.6149,2.6352,2.6976,2.7668,2.8398,2.9703,3.0594,3.085,3.0932,3.0795,3.0338,3.023,2.9965,2.9436,2.94,2.9172,2.8643,2.9124,2.9482,2.9662,3.0042,3.0278,3.0458,3.035,3.0302,3.0302,3.0814,3.1019,1.4429,1.4269,1.4088,1.4088,1.4302,1.4559,1.49,1.5569,1.6048,1.5509,1.544,1.5401,1.5198,1.5012,1.5575,1.7626,1.9622,2.1544,2.3307,2.503,2.6251,2.6545,2.7224,2.7748,2.7813,2.8443,2.8911,2.8975,2.892,2.8911,2.8975,2.8984,2.8984,2.8984,2.9048,2.9085,2.9085,2.9012,2.8984,2.8984,2.8984,2.8984,2.8984,2.8984,2.8984,2.8984,2.8984,0.0,2.8984,2.8984,2.9153,2.945,3.0039,3.0616,3.1208,3.1469,3.0853,2.9905,2.9648,2.9078,2.8464,2.8708,2.8882,2.9023,2.8945,2.8623,2.8291,2.8291,2.8291,2.8291,2.8291,2.8291,2.8291,2.8291,2.8291,2.8291,2.8291,2.7734,2.709,2.6592,2.6152,2.5781,2.5703,2.5732,2.5781,2.583,2.6159,2.661,2.7379,2.8967,3.025,3.0819,3.1075,3.126,3.1396,3.1043,3.0506,2.9989,2.9953,2.9713,2.9184,2.9677,2.9995,3.0025,3.0513,3.079,3.0821,3.1223,3.1428,3.144,3.1524,3.1573,1.4563,1.4422,1.4275,1.4122,1.4302,1.4519,1.4608,1.4986,1.5197,1.4772,1.4574,1.4495,1.4525,1.4401,1.4899,1.6758,1.8735,2.0628,2.2441,2.4348,2.5865,2.6582,2.7351,2.7904,2.8067,2.8636,2.8984,2.8984,2.8984,2.8984,2.8984,2.8984,2.8984,2.8984,2.8984,2.8984,2.8984,2.8984,2.8984,2.8984,2.8984,2.8984,2.8984,2.8984,2.8984,2.8984,2.8984,2.8984,2.8984,2.9213,2.9568,3.0039,3.0616,3.1431,3.2254,3.2133,3.162,3.0905,3.0178,2.9327,2.8569,2.851,2.8697,2.8916,2.8916,2.8623,2.8291,2.8291,2.8291,2.8291,2.8291,2.8291,2.8291,2.8291,2.8291,2.8232,2.8018,2.7471,2.6894,2.6465,2.6035,2.5693,2.5693,2.5693,2.5693,2.5693,2.5917,2.6284,2.6744,2.7951,2.9163,3.0419,3.0791,3.1009,3.1276,3.1067,3.053,2.9725,2.9941,2.9845,2.9316,3.0074,3.0494,3.0494,3.1055,3.1332,3.1332,3.1585,3.1705,3.1705,3.1705,3.1705,1.4756,1.4616,1.4469,1.4242,1.4302,1.4385,1.4252,1.4296,1.4289,1.4025,1.3759,1.3671,1.4008,1.3918,1.4372,1.6084,1.7793,1.9499,2.1354,2.3517,2.5253,2.6256,2.7227,2.793,2.8352,2.8755,2.8984,2.8984,2.8984,2.8984,2.8984,2.8984,2.8984,2.8984,2.8984,2.8984,2.8984,2.8984,2.8984,2.8984,2.8984,2.8984,2.8984,2.8984,2.8984,2.8984,2.8984,2.8984,2.9044,2.9272,2.9795,3.0441,3.1141,3.2113,3.3067,3.2794,3.2329,3.1736,3.0748,2.9708,2.8751,2.8548,2.8623,2.8779,2.8779,2.8555,2.8291,2.8291,2.8291,2.8291,2.8291,2.8291,2.8291,2.8291,2.8291,2.8144,2.7637,2.7256,2.6865,2.6348,2.5977,2.5693,2.5693,2.5693,2.5693,2.5693,2.5868,2.611,2.6304,2.6918,2.8034,2.9704,3.0283,3.0683,3.104,3.1091,3.0639,2.9689,3.0134,3.0194,2.9653,3.0543,3.1091,3.1091,3.15,3.1705,3.1705,3.1705,3.1705,3.1705,3.1705,3.1705,1.5251,1.4923,1.4466,1.4489,1.4302,1.4048,1.3748,1.3521,1.3239,1.3008,1.2667,1.256,1.2882,1.2943,1.3507,1.5232,1.6469,1.798,2.0084,2.2369,2.4232,2.5278,2.683,2.793,2.8352,2.8755,2.8984,2.8984,2.8984,2.8984,2.8984,2.8984,2.8984,2.8984,2.8984,2.8984,2.8984,2.8984,2.8984,2.8984,2.8984,2.8984,2.8984,2.8984,2.8984,2.8984,2.8984,2.8984,0.0,2.9044,2.9568,3.0499,3.1411,3.2332,3.3201,3.3526,3.3051,3.2028,3.1305,3.0144,2.9079,2.9026,2.8737,2.835,2.835,2.832,2.8291,2.8291,2.8291,2.8291,2.8291,2.8291,2.8291,2.8291,2.8291,2.8066,2.7256,2.7041,2.6768,2.5908,2.5713,2.5693,2.5693,2.5693,2.5693,2.5693,2.5732,2.5732,2.5791,2.6265,2.7183,2.868,2.9681,3.0599,3.1545,3.1633,3.1392,3.0814,3.1271,3.1332,3.079,3.1332,3.1633,3.1633,3.1681,3.1705,3.1705,3.1705,3.1705,3.1705,3.1705,3.1705,1.515,1.4963,1.4743,1.4563,1.4302,1.4008,1.3666,1.338,1.312,1.2851,1.2549,1.2392,1.273,1.2938,1.3507,1.4893,1.5887,1.7246,1.9351,2.1577,2.3506,2.4887,2.6446,2.7673,2.8333,2.8535,2.8728,2.8966,2.8984,2.8984,2.8984,2.8984,2.8984,2.8984,2.8984,2.8984,2.8984,2.8984,2.8984,2.8984,2.8984,2.8984,2.8984,2.8984,2.8984,2.8984,2.8984,2.8984,0.0,2.9213,2.9585,3.0103,3.0841,3.1646,3.2359,3.2394,3.2383,3.2168,3.1263,3.0349,2.9617,2.9448,2.9333,2.9207,2.8867,2.8664,2.8514,2.8514,2.8408,2.8291,2.8291,2.8291,2.8291,2.8291,2.8291,2.8135,2.7529,2.7402,2.7158,2.6299,2.6133,2.6045,2.5732,2.5693,2.5693,2.5693,2.5693,2.5693,2.5693,2.6169,2.7098,2.8541,2.936,3.018,3.1129,3.1235,3.1007,3.0434,3.0946,3.1139,3.0922,3.1428,3.1705,3.1705,3.1705,3.1705,3.1705,3.1705,3.1705,3.1705,3.1705,3.1705,1.5097,1.5135,1.5017,1.473,1.4429,1.4095,1.358,1.336,1.31,1.2737,1.2445,1.2392,1.273,1.2965,1.3467,1.4606,1.5383,1.6514,1.8544,2.066,2.2609,2.4115,2.5896,2.7279,2.7967,2.8251,2.8563,2.8948,2.8984,2.8984,2.8984,2.8984,2.8984,2.8984,2.8984,2.8984,2.8984,2.8984,2.8984,2.8984,2.8984,2.8984,2.8984,2.8984,2.8984,2.8984,2.8984,2.8984,0.0,2.9272,2.9566,2.9863,3.0496,3.1182,3.1837,3.1816,3.2113,3.2411,3.1454,3.0765,3.0245,3.0183,3.0162,3.0151,2.99,2.9491,2.9026,2.8887,2.8558,2.8291,2.8291,2.8291,2.8291,2.8291,2.8291,2.8174,2.7806,2.7718,2.7464,2.6553,2.6387,2.625,2.5762,2.5693,2.5693,2.5693,2.5693,2.5693,2.5693,2.6169,2.7098,2.8541,2.9176,2.9931,3.1045,3.1151,3.0995,3.0621,3.0946,3.1151,3.1151,3.1512,3.1705,3.1705,3.1705,3.1705,3.1705,3.1705,3.1705,3.1705,3.1705,3.1705,1.5237,1.5391,1.5317,1.5075,1.4736,1.4289,1.3414,1.3213,1.3039,1.2432,1.2305,1.2392,1.273,1.279,1.3179,1.4329,1.477,1.5608,1.7344,1.9593,2.1493,2.2761,2.5101,2.6747,2.715,2.7921,2.8563,2.8948,2.8984,2.8984,2.8984,2.8984,2.8984,2.8984,2.8984,2.8984,2.8984,2.8984,2.8984,2.8984,2.8984,2.8984,2.8984,2.8984,2.8984,2.8984,2.8984,2.8984,0.0,2.8984,2.9331,2.9971,3.0529,3.1294,3.2041,3.2457,3.2701,3.2712,3.2192,3.1454,3.0888,3.1414,3.1208,3.0888,3.1414,3.0774,2.9775,2.9227,2.8708,2.8291,2.8291,2.8291,2.8291,2.8291,2.8291,2.8174,2.7806,2.7718,2.7464,2.6553,2.6387,2.625,2.5762,2.5693,2.5693,2.5693,2.5693,2.5693,2.5693,2.6169,2.7098,2.8541,2.9176,3.0068,3.156,3.1705,3.1705,3.1693,3.1705,3.1705,3.1705,3.1705,3.1705,3.1705,3.1705,3.1705,3.1705,3.1705,3.1705,3.1705,3.1705,3.1705,1.4449,1.4649,1.4776,1.4683,1.4289,1.3753,1.332,1.3046,1.2817,1.2385,1.2305,1.2392,1.273,1.2958,1.3387,1.4362,1.477,1.5601,1.7344,1.9636,2.1596,2.2752,2.5606,2.7444,2.762,2.8315,2.8847,2.8975,2.8984,2.8984,2.8984,2.8984,2.8984,2.8984,2.8984,2.8984,2.8984,2.8984,2.8847,2.8581,2.8581,2.8434,2.815,2.815,2.815,2.8226,2.8452,2.8581,2.8599,2.8874,2.8937,2.8923,2.9563,3.0017,3.0506,3.1228,3.1938,3.2481,3.2324,3.2117,3.1902,3.2117,3.2258,3.2448,3.2409,3.1545,3.0266,2.9142,2.8727,2.8514,2.8354,2.8291,2.8291,2.8291,2.8291,2.8262,2.8125,2.8096,2.7842,2.6982,2.6816,2.6592,2.581,2.5693,2.5693,2.5693,2.5693,2.5693,2.5693,2.6169,2.7098,2.8541,2.9176,3.008,3.1572,3.1705,3.1705,3.1705,3.1705,3.1705,3.1705,3.1705,3.1705,3.1705,3.1705,3.1705,3.1705,3.1705,3.1705,3.1705,3.1705,3.1705,1.3786,1.4135,1.4329,1.4173,1.3873,1.3493,1.3126,1.2924,1.2697,1.2365,1.2305,1.2432,1.2884,1.308,1.3534,1.4529,1.4843,1.5601,1.7344,1.9529,2.1804,2.4038,2.6213,2.7664,2.7976,2.8462,2.8819,2.8975,2.8984,2.8984,2.8984,2.8984,2.8984,2.8984,2.8984,2.8984,2.8984,2.8838,2.8636,2.8397,2.8232,2.8012,2.7822,2.7822,2.7822,2.784,2.804,2.8159,0.0,2.859,2.8667,2.863,2.9525,2.9969,3.0235,3.1325,3.2019,3.2482,3.2684,3.2672,3.2561,3.2835,3.3185,3.3472,3.3212,3.2156,3.0847,2.9544,2.9036,2.8781,2.8408,2.8291,2.8291,2.8291,2.8291,2.8291,2.8291,2.8164,2.7851,2.7148,2.6894,2.6553,2.581,2.5693,2.5693,2.5693,2.5693,2.5693,2.5693,2.6169,2.7098,2.8541,2.9176,3.008,3.1572,3.1705,3.1705,3.1705,3.1705,3.1705,3.1705,3.1705,3.1705,3.1705,3.1705,3.1705,3.1705,3.1705,3.1705,3.1717,3.1934,3.1985,0.0,1.3726,1.3961,1.364,1.3553,1.3393,1.2911,1.277,0.0,1.2358,1.2318,1.2512,1.31,1.3247,1.3682,1.4865,1.5087,1.5708,1.7429,1.9518,2.2297,2.6173,2.7004,2.7563,2.8324,2.8425,2.859,2.8957,2.8984,2.8984,2.8984,2.8984,2.8984,2.8984,2.8984,2.8966,2.8938,2.8581,2.8361,2.8306,2.7911,2.7767,2.7739,2.7739,2.7739,0.0,2.7767,2.7776,2.7813,2.8235,2.8575,2.8932,3.0238,3.0784,3.0984,3.2427,3.2752,3.2544,3.3131,3.3097,3.2962,3.3557,3.3927,3.4113,3.377,3.2762,3.1454,3.0297,2.9576,2.9079,2.8504,2.8344,2.8344,2.8344,2.8344,2.8291,2.8291,2.7959,2.7539,2.71,2.668,2.625,2.5762,2.5693,2.5693,2.5693,2.5693,2.5693,2.5693,2.6169,2.7098,2.8541,2.9176,3.008,3.1572,3.1705,3.1705,3.1705,3.1705,3.1705,3.1705,3.1705,3.1705,3.1705,3.1705,3.1705,3.1705,3.1705,3.1729,3.1777,3.2262,3.2527,1.1631,0.0,1.34,1.3327,1.3133,1.2958,0.0,1.2603,1.2385,1.2318,1.2485,1.2829,1.3355,1.3845,1.4488,1.5369,1.575,1.645,1.7988,2.112,2.4174,2.6774,2.7673,2.8187,2.837,2.8663,2.8883,2.8975,2.8984,2.8984,2.8984,2.8984,2.8984,2.8984,2.8984,2.8838,2.8535,2.8443,2.8086,2.7462,2.7361,2.716,2.6866,2.6866,2.6866,2.6885,2.7187,2.7315,2.7399,2.7983,2.8539,2.904,2.9814,3.0464,3.1059,3.1838,3.2298,3.2521,3.3119,3.3457,3.3831,3.4335,3.4592,3.464,3.4531,3.356,3.2258,3.0929,3.0328,2.9921,2.9132,2.892,2.8877,2.8674,2.8631,2.8568,2.8344,2.7959,2.7539,2.71,2.668,2.625,2.5762,2.5693,2.5693,2.5693,2.5693,2.5693,2.5693,2.6169,2.7098,2.8541,2.9176,3.008,3.1572,3.1705,3.1705,3.1705,3.1705,3.1705,3.1705,3.1705,3.1705,3.1705,3.1705,3.1705,3.1705,3.1705,3.1934,3.231,3.2442,3.2719,1.0953,1.187,1.2625,1.2759,1.2665,1.2583,1.2583,1.2418,1.2305,1.2305,1.2576,1.2995,1.3625,1.4412,1.5284,1.6157,1.6511,1.7443,1.9594,2.2103,2.4684,2.7184,2.8012,2.8462,2.8645,2.8856,2.8984,2.8984,2.8984,2.8984,2.8984,2.8984,2.8984,2.8984,2.8984,2.8792,2.8397,2.8205,2.7792,2.7178,2.6995,2.6793,2.6591,2.6591,2.6591,2.66,2.6811,2.6912,2.6995,2.7502,2.8164,2.8889,2.9796,3.0584,3.1264,3.2193,3.2561,3.2695,3.3119,3.363,3.415,3.464,3.4775,3.4775,3.4775,3.4225,3.3312,3.2196,3.1597,3.1146,3.0411,3.0057,2.9754,2.9333,2.9079,2.8771,2.8398,2.7803,2.7295,2.706,2.6514,2.6016,2.5732,2.5693,2.5693,2.5693,2.5693,2.5693,2.5693,2.6169,2.7098,2.8541,2.9176,3.008,3.1572,3.1705,3.1705,3.1705,3.1705,3.1705,3.1705,3.1705,3.1705,3.1705,3.1705,3.1705,3.1705,3.197,3.2202,3.2515,3.2984,3.3356,1.0722,1.1399,1.1986,1.2285,1.2405,1.2438,1.2438,1.2438,1.2438,1.2438,1.2717,1.317,1.396,1.5004,1.603,1.6957,1.753,1.8784,2.1418,2.293,2.477,2.7466,2.8141,2.8553,2.8948,2.8984,2.8984,2.8984,2.8984,2.8984,2.8984,2.8984,2.8984,2.8984,2.8984,2.8764,2.8306,2.7939,2.7592,2.7077,2.6747,2.6591,2.6591,2.6591,2.6591,2.6591,2.6591,0.0,2.6619,2.7004,2.7677,2.851,2.9739,3.0681,3.1517,3.2594,3.2977,3.298,3.3281,3.3729,3.4211,3.464,3.4775,3.4775,3.4775,3.4628,3.4335,3.3659,3.3012,3.2409,3.1841,3.1341,3.0826,3.0193,2.9638,2.9132,2.8504,2.7718,2.7141,2.7031,2.6327,2.5762,2.5703,2.5693,2.5693,2.5693,2.5693,2.5693,2.5693,2.6169,2.7051,2.8459,2.9095,3.0034,3.1439,3.1617,3.1661,3.1705,3.1705,3.1705,3.1705,3.1705,3.1705,3.1705,3.1705,3.1705,3.1705,3.2226,3.2539,3.2647,3.355,3.403,1.0672,1.1399,1.2033,1.2576,1.2872,1.3073,1.3073,1.3073,1.3073,1.3073,1.3267,1.373,1.4525,1.5654,1.6739,1.7554,1.9285,2.1068,2.2551,2.4147,2.5765,2.7587,2.8141,2.8553,2.8948,2.8984,2.8984,2.8984,2.8984,2.8984,2.8984,2.8984,2.8984,2.8984,2.8984,2.8618,2.7923,2.7849,2.7454,2.6683,2.6619,2.6591,2.6591,2.6591,2.6591,2.6591,0.0,2.6591,2.6591,2.691,2.7399,2.7983,2.892,3.0108,3.1294,3.1922,3.26,3.3197,3.3694,3.4101,3.4384,3.4677,3.4775,3.4775,3.4775,3.4775,3.4726,3.458,3.3857,3.2951,3.2409,3.2066,3.1607,3.0836,3.0432,2.9921,2.8887,2.8269,2.7752,2.7131,2.6621,2.6172,2.5752,2.5693,2.5693,2.5693,2.5693,2.5693,2.5693,2.6169,2.6918,2.7987,2.8746,2.9669,3.0904,3.1217,3.1439,3.1705,3.1705,3.1705,3.1705,3.1705,3.1705,3.1705,3.1705,3.1705,3.1705,3.2226,3.2731,3.3188,3.3718,3.4234,1.0836,1.1587,1.2245,1.2884,1.322,1.3447,1.3647,1.3687,1.3687,1.3687,1.3788,1.4105,1.4931,1.6019,1.7357,1.9182,2.064,2.21,2.3478,2.4458,2.5634,2.7258,2.7618,2.7893,2.8287,2.8535,2.8663,2.8663,2.8865,2.8984,2.8984,2.8984,2.8984,2.8984,2.8984,2.859,2.7831,2.7822,2.7427,2.6591,2.6591,2.6591,2.6591,2.6591,2.6591,2.6591,0.0,2.6591,2.6591,2.6736,2.7107,2.7682,2.8538,2.9838,3.1341,3.2684,3.3358,3.3755,3.4089,3.4286,3.4433,3.4726,3.4775,3.4775,3.4775,3.4775,3.4775,3.4775,3.4421,3.4017,3.377,3.3373,3.2924,3.2246,3.1545,3.0744,2.9586,2.878,2.8038,2.7151,2.668,2.625,2.5762,2.5693,2.5693,2.5693,2.5693,2.5693,2.5693,2.6062,2.662,2.7494,2.8117,2.9059,3.0419,3.0746,3.1116,3.1661,3.1705,3.1705,3.1705,3.1705,3.1705,3.1705,3.1705,3.1705,3.1705,3.2515,3.3056,3.3308,3.4102,3.4546,1.1033,1.1704,1.2378,1.3126,1.3493,1.378,1.4122,1.4188,1.4208,1.4275,1.4289,1.4556,1.5359,1.6508,1.814,2.0664,2.1698,2.2748,2.4282,2.4839,2.5593,2.7031,2.7178,2.7334,2.7785,2.8058,2.8251,2.8251,2.8618,2.8847,2.8847,2.8938,2.8984,2.8984,2.8893,2.8498,2.7831,2.773,2.7279,2.6591,2.6591,2.6591,2.6591,2.6591,2.6591,2.6591,2.6591,2.6591,2.6591,2.6591,2.6854,2.7323,2.8218,2.9785,3.1699,3.3595,3.4261,3.431,3.4433,3.4482,3.4531,3.4726,3.4775,3.4775,3.4775,3.4775,3.4775,3.4775,3.4775,3.4775,3.4775,3.4433,3.3979,3.3411,3.2561,3.1556,3.0349,2.9476,2.8601,2.7503,2.7006,2.6614,2.5986,2.5918,2.5957,2.5908,2.5918,2.5947,2.5908,2.6113,2.6442,2.6982,2.7563,2.8491,3.0,3.0476,3.0937,3.1572,3.1673,3.1705,3.1705,3.1705,3.1705,3.1705,3.1705,3.1705,3.1705,3.2755,3.3284,3.3308,3.4354,3.4775,1.1235,1.1657,1.2178,1.3287,1.3834,1.4128,1.4422,1.4489,1.4569,1.4888,1.4948,1.5174,1.6,1.754,1.9279,2.1254,2.2293,2.3377,2.4916,2.5634,2.6299,2.7123,2.7178,2.7334,2.7785,2.7849,2.7868,2.7868,2.8205,2.8434,2.8434,2.8783,2.8984,2.8984,2.8627,2.8223,2.7822,2.7454,2.7004,2.6591,2.6591,2.6591,2.6591,2.6591,2.6591,2.6591,2.6591,2.6591,2.6591,2.6591,2.6646,2.6745,2.7862,2.9942,3.251,3.4127,3.4726,3.4726,3.4787,3.4775,3.4775,3.4775,3.4775,3.4775,3.4775,3.4775,3.4775,3.4775,3.4775,3.4775,3.4775,3.458,3.4237,3.3697,3.3151,3.2359,3.1043,3.0515,2.9839,2.8301,2.7984,2.7655,2.6534,2.667,2.6787,2.6396,2.667,2.6777,2.6396,2.6576,2.6704,2.6536,2.7204,2.8243,2.9794,3.051,3.0994,3.1306,3.1572,3.1705,3.1705,3.1705,3.1705,3.1705,3.1705,3.1705,3.1705,3.2755,3.3284,3.3308,3.4354,3.4775,1.1282,1.1777,1.2338,1.3166,1.3553,1.3993,1.4877,1.5204,1.5418,1.5765,1.5826,1.5946,1.6404,1.7663,1.933,2.1531,2.286,2.4272,2.6194,2.6663,2.6893,2.716,2.6967,2.6875,2.7013,2.726,2.7454,2.7454,2.7774,2.8003,2.8003,2.8141,2.8223,2.8223,2.8086,2.7811,2.7454,2.7251,2.6976,2.6591,2.6591,2.6591,2.6591,2.6591,2.6591,2.6591,2.6591,2.6591,2.6591,2.6591,2.6591,2.68,2.8581,3.0349,3.2095,3.372,3.4433,3.458,3.4726,3.4775,3.4775,3.4775,3.4775,3.4775,3.4775,3.4775,3.4775,3.4775,3.4775,3.4775,3.4775,3.4726,3.458,3.436,3.3918,3.3323,3.2448,3.171,3.0709,2.9158,2.8571,2.803,2.6976,2.6914,2.6963,2.6807,2.6914,2.6963,2.6797,2.6869,2.6802,2.6478,2.6975,2.7741,2.8653,2.9783,3.0554,3.0847,3.1395,3.1705,3.1705,3.1705,3.1705,3.1705,3.1705,3.1886,3.219,3.2935,3.3452,3.3765,3.445,3.4775,1.1708,1.2141,1.2658,1.3364,1.3615,1.4011,1.5235,1.5589,1.5826,1.6415,1.6715,1.6905,1.7059,1.8079,1.9627,2.1876,2.3255,2.4799,2.6764,2.7095,2.7132,2.7004,2.6756,2.6591,2.6591,2.6839,2.6985,2.6985,2.7361,2.7638,2.7638,2.7748,2.7822,2.7822,2.7702,2.7509,2.7178,2.705,2.6857,2.6591,2.6591,2.6591,2.6591,2.6591,2.6591,2.6591,2.6591,2.6591,2.6591,2.6591,2.6745,2.7161,2.9029,3.0442,3.1534,3.3162,3.393,3.4225,3.4628,3.4775,3.4775,3.4775,3.4775,3.4775,3.4775,3.4775,3.4775,3.4775,3.4775,3.4775,3.4775,3.4775,3.4775,3.4775,3.4433,3.3979,3.3449,3.2611,3.156,3.0053,2.9394,2.8755,2.7542,2.7427,2.7476,2.7246,2.7334,2.7373,2.7236,2.7217,2.7102,2.6772,2.6988,2.7427,2.8031,2.9265,3.0102,3.0442,3.1261,3.1705,3.1705,3.1705,3.1705,3.1705,3.1705,3.1982,3.2503,3.3032,3.3549,3.4006,3.4534,3.4775,1.2558,1.2797,1.3131,1.4055,1.4089,1.4213,1.5418,1.5531,1.5652,1.6868,1.7597,1.8018,1.8025,1.8942,2.0352,2.2188,2.3535,2.4848,2.6364,2.693,2.704,2.6637,2.6591,2.6591,2.6591,2.6591,2.6591,2.6591,2.6949,2.7169,2.7169,2.7601,2.7813,2.7813,2.737,2.7169,2.7169,2.6784,2.6591,2.6591,2.6591,2.6591,2.6591,2.6591,2.6591,2.6591,2.6591,2.6591,2.6591,2.6591,2.7116,2.8004,2.9071,3.0026,3.0991,3.26,3.335,3.3697,3.4519,3.4775,3.4775,3.4775,3.4775,3.4775,3.4775,3.4775,3.4775,3.4775,3.4775,3.4775,3.4775,3.4775,3.4775,3.4775,3.458,3.4274,3.3758,3.3201,3.2409,3.1094,3.0588,2.9933,2.8393,2.843,2.8483,2.7787,2.8027,2.8144,2.7777,2.7718,2.7594,2.7398,2.7212,2.7445,2.8237,2.903,2.9715,3.017,3.1116,3.1705,3.1705,3.1705,3.1705,3.1717,3.1717,3.1949,3.2515,3.3044,3.3549,3.4018,3.4534,3.4775,1.2686,1.3222,1.3765,1.4474,1.4441,1.4634,1.6179,1.6613,1.7217,1.8999,1.9506,1.9679,1.9974,2.0464,2.1293,2.2693,2.4106,2.5364,2.6455,2.7169,2.7444,2.705,2.6756,2.6591,2.6591,2.6591,2.6591,2.6591,2.6692,2.6765,2.6765,2.6875,2.694,2.694,2.682,2.6765,2.6765,2.6646,2.6591,2.6591,2.6591,2.6591,2.6591,2.6591,2.6591,2.6591,2.6591,2.6591,2.6591,2.6791,2.7161,2.7638,2.8572,2.9471,3.0411,3.2044,3.2912,3.3449,3.447,3.4775,3.4775,3.4775,3.4775,3.4775,3.4775,3.4775,3.4775,3.4775,3.4775,3.4775,3.4775,3.4775,3.4775,3.4775,3.4738,3.4628,3.447,3.4017,3.3423,3.265,3.1801,3.0845,2.96,2.9137,2.8784,2.8231,2.8213,2.8252,2.8125,2.7904,2.7669,2.7636,2.7019,2.6814,2.7396,2.8374,2.9176,2.9669,3.0937,3.1705,3.1705,3.1705,3.1898,3.225,3.225,3.2695,3.3538,3.3694,3.4042,3.4546,3.4715,3.4775,1.3412,1.4013,1.4667,1.5297,1.5325,1.5745,1.7749,1.8276,1.8732,2.0109,2.0659,2.0934,2.1159,2.1663,2.2339,2.335,2.4728,2.5898,2.6527,2.7132,2.7389,2.6985,2.6738,2.6591,2.6591,2.6591,2.6591,2.6591,2.6591,2.6591,2.6591,2.6591,2.6591,2.6591,2.6591,2.6591,2.6591,2.6591,2.6591,2.6591,2.6591,2.6591,2.6591,2.6591,2.6591,2.6591,2.6591,2.6591,2.6646,2.6999,2.726,2.7485,2.8228,2.9016,2.9848,3.1483,3.2398,3.3062,3.4372,3.4775,3.4775,3.4775,3.4775,3.4775,3.4775,3.4775,3.4775,3.4775,3.4775,3.4775,3.4775,3.4775,3.4775,3.4775,3.4775,3.4775,3.4775,3.4482,3.3979,3.3461,3.2661,3.1699,3.0453,2.99,2.9396,2.8717,2.8611,2.8611,2.8611,2.8437,2.8278,2.8278,2.7655,2.7492,2.8064,2.893,2.9706,3.0208,3.1365,3.2015,3.2039,3.2016,3.225,3.2803,3.2815,3.3224,3.3994,3.3994,3.4258,3.4775,3.4775,3.4775,1.4359,1.5039,1.5593,1.6294,1.6597,1.7355,1.967,2.0119,2.0249,2.0757,2.1428,2.1937,2.1978,2.2732,2.3505,2.4132,2.5344,2.63,2.6536,2.6903,2.7031,2.6637,2.6591,2.6591,2.6591,2.6591,2.6591,2.6591,2.6591,2.6591,2.6591,2.6591,2.6591,2.6591,2.6591,2.6591,2.6591,2.6591,2.6591,2.6591,2.6591,2.6591,2.6591,2.6591,2.6591,2.6591,2.6591,2.6591,2.6636,2.7171,2.7431,2.7485,2.8077,2.8708,2.9386,3.1021,3.1993,3.2711,3.4274,3.4775,3.4775,3.4775,3.4775,3.4775,3.4775,3.4775,3.4775,3.4775,3.4775,3.4775,3.4775,3.4775,3.4775,3.4775,3.4775,3.4775,3.4775,3.4628,3.4274,3.3808,3.325,3.251,3.1238,3.0795,3.0276,2.9438,2.9333,2.9333,2.9333,2.9333,2.9333,2.9333,2.8948,2.9034,2.9789,3.039,3.0893,3.1385,3.2052,3.243,3.2453,3.2471,3.2769,3.331,3.3356,3.3609,3.4066,3.4066,3.4306,3.4775,3.4775,3.4823,1.4558,1.5282,1.6023,1.6901,1.7851,1.8827,1.9942,2.0891,2.1784,2.2677,2.3305,2.3745,2.4068,2.4548,2.4941,2.5093,2.589,2.6418,2.6195,2.6774,2.7031,2.6637,2.6591,2.6591,2.6591,2.6591,2.6591,2.6591,2.6591,2.6591,2.6591,2.6591,2.6591,2.6591,2.6591,2.6591,2.6591,2.6591,2.6591,2.6591,2.6591,2.6591,2.6591,2.6591,2.6591,2.6591,2.6591,2.6591,2.6636,2.7171,2.7539,2.7853,2.8408,2.9248,3.0287,3.1472,3.2387,3.3212,3.4372,3.4775,3.4775,3.4775,3.4775,3.4775,3.4775,3.4775,3.4775,3.4775,3.4775,3.4775,3.4775,3.4775,3.4775,3.4775,3.4775,3.4775,3.4775,3.4726,3.4677,3.4568,3.4127,3.3522,3.2801,3.2308,3.175,3.1176,3.1073,3.1073,3.1073,3.1073,3.1073,3.1073,3.0643,3.0514,3.0937,3.1319,3.1481,3.1385,3.1661,3.188,3.2099,3.2358,3.2865,3.3613,3.3743,3.409,3.4607,3.4607,3.4667,3.4775,3.4775,3.4932,1.4623,1.5558,1.6433,1.7713,1.8777,1.9816,2.0851,2.1776,2.2731,2.3773,2.4104,2.4266,2.4486,2.5019,2.5424,2.5424,2.6059,2.6509,2.6342,2.6628,2.682,2.6609,2.6591,2.6591,2.6591,2.6591,2.6591,2.6591,2.6591,2.6591,2.6591,2.6591,2.6591,2.6591,2.6591,2.6591,2.6591,2.6591,2.6591,2.6591,2.6591,2.6591,2.6591,2.6591,2.6591,2.6591,2.6591,2.6591,2.6636,2.7171,2.7584,2.8004,2.891,2.9806,3.0744,3.2083,3.2939,3.3549,3.447,3.4775,3.4775,3.4775,3.4775,3.4775,3.4775,3.4775,3.4775,3.4775,3.4775,3.4775,3.4775,3.4775,3.4775,3.4775,3.4775,3.4775,3.4775,3.4775,3.4775,3.4775,3.4482,3.4028,3.3499,3.2862,3.2308,3.2044,3.1993,3.1993,3.1993,3.1993,3.1993,3.1993,3.1761,3.1767,3.2167,3.2483,3.2637,3.2515,3.2297,3.2313,3.2598,3.263,3.2959,3.3629,3.4125,3.4498,3.4775,3.4775,3.4775,3.4775,3.492,3.5078,1.4596,1.5792,1.6967,1.8423,1.9383,2.035,2.1677,2.2409,2.3129,2.4183,2.4356,2.4312,2.4312,2.4918,2.5424,2.5424,2.594,2.638,2.638,2.638,2.638,2.638,2.638,2.638,2.638,2.638,2.638,2.638,2.6444,2.6481,2.6481,2.6545,2.6591,2.6591,2.6591,2.6591,2.6591,2.6591,2.6591,2.6591,2.6591,2.6591,2.6591,2.6518,2.6518,2.6591,2.6591,2.6591,2.6636,2.7171,2.7638,2.8111,2.9365,3.0255,3.1043,3.2448,3.3212,3.3659,3.4421,3.4677,3.4738,3.4775,3.4775,3.4775,3.4775,3.4775,3.4775,3.4775,3.4775,3.4775,3.4775,3.4775,3.4775,3.4775,3.4775,3.4775,3.4775,3.4775,3.4775,3.4775,3.4628,3.4323,3.3906,3.3312,3.2862,3.2862,3.2912,3.2962,3.2962,3.2962,3.2962,3.2962,3.2962,3.3112,3.3499,3.3758,3.3819,3.3767,3.3185,3.2974,3.322,3.2985,3.3101,3.3598,3.436,3.4775,3.4775,3.4775,3.4775,3.4835,3.5078,3.5223,1.4324,1.6103,1.7808,1.8591,1.9454,2.0333,2.12,2.2021,2.2828,2.3696,2.4336,2.4702,2.4702,2.5069,2.5424,2.5424,2.5515,2.5537,2.5537,2.5537,2.5537,2.5537,2.5537,2.5537,2.5537,2.5537,2.5537,2.5537,2.5901,2.6094,2.6094,2.6389,2.6591,2.6591,2.6591,2.6591,2.6591,2.6591,2.6591,2.6591,2.6591,2.6591,2.6582,2.6269,2.6296,2.6591,2.6591,2.6591,2.6636,2.7171,2.7755,2.8344,2.929,3.0287,3.1219,3.1913,3.2645,3.3419,3.3953,3.4237,3.4482,3.4726,3.4775,3.4775,3.4775,3.4775,3.4775,3.4775,3.4775,3.4775,3.4775,3.4775,3.4775,3.4775,3.4775,3.4775,3.4775,3.4775,3.4775,3.4775,3.4775,3.4726,3.4677,3.4726,3.4823,3.4823,3.5017,3.5163,3.5163,3.5163,3.5163,3.5163,3.5163,3.5126,3.4969,3.4969,3.4677,3.3991,3.3461,3.3051,3.2862,3.3062,3.33,3.3598,3.436,3.4775,3.4775,3.4775,3.4775,3.4835,3.5078,3.532,1.4832,1.6533,1.7969,1.8628,1.9484,2.0285,2.0944,2.1717,2.2577,2.3538,2.399,2.4277,2.4427,2.4817,2.5041,2.5041,2.5225,2.5424,2.5424,2.5424,2.5424,2.5424,2.5424,2.5424,2.5424,2.5424,2.5424,2.5424,2.5791,2.6012,2.6012,2.6362,2.6591,2.6591,2.6591,2.6591,2.6591,2.6591,2.6591,2.6591,2.6591,2.6591,2.6573,2.6205,2.6113,2.6278,2.6058,2.6032,2.6287,2.6824,2.7491,2.8174,2.9323,3.0151,3.0836,3.1545,3.2106,3.2672,3.3323,3.372,3.4066,3.4628,3.4775,3.4775,3.4775,3.4775,3.4775,3.4775,3.4775,3.4775,3.4775,3.4775,3.4775,3.4775,3.4775,3.4775,3.4775,3.4775,3.4775,3.4775,3.4775,3.4823,3.4981,3.5126,3.5271,3.5416,3.5524,3.562,3.562,3.562,3.562,3.562,3.562,3.5572,3.5416,3.5271,3.4969,3.4482,3.3808,3.3461,3.3545,3.3461,3.3598,3.4017,3.4531,3.4775,3.4775,3.4775,3.4775,3.4823,3.5223,3.5464,1.5226,1.6667,1.775,1.8482,1.9255,2.0023,2.0562,2.1353,2.2274,2.3279,2.3687,2.3945,2.4242,2.4459,2.4629,2.4629,2.4918,2.5111,2.5111,2.5111,2.5111,2.5111,2.5111,2.5111,2.5111,2.5111,2.5111,2.5111,2.5488,2.5718,2.5718,2.6059,2.6279,2.6279,2.6279,2.6279,2.6279,2.6279,2.6279,2.6279,2.6279,2.6279,2.6261,2.5901,2.5718,2.5699,2.5506,2.5644,2.6118,2.6701,2.7372,2.8218,2.9471,3.0099,3.0463,3.1135,3.1637,3.2083,3.2851,3.3362,3.3869,3.458,3.4775,3.4775,3.4775,3.4775,3.4775,3.4775,3.4775,3.4775,3.4775,3.4883,3.4979,3.4979,3.5136,3.5148,3.4835,3.4775,3.4775,3.4775,3.4884,3.4981,3.5175,3.532,3.5476,3.5668,3.5764,3.58,3.58,3.58,3.58,3.58,3.58,3.5764,3.5716,3.5524,3.5271,3.4932,3.436,3.4078,3.4261,3.4028,3.4115,3.4482,3.4677,3.4775,3.4775,3.4775,3.4823,3.4932,3.5368,3.562,1.5139,1.6162,1.7182,1.8086,1.8762,1.9385,2.001,2.0952,2.1971,2.2778,2.3529,2.4183,2.443,2.4359,2.4238,2.4238,2.4248,2.4266,2.4266,2.4266,2.4266,2.4266,2.4266,2.4266,2.4266,2.4266,2.4266,2.4266,2.4661,2.484,2.484,2.5216,2.5488,2.5488,2.5488,2.5488,2.5488,2.5488,2.5488,2.5488,2.5488,2.5488,2.547,2.5074,2.484,2.4858,2.5216,2.5758,2.6436,2.6955,2.7775,2.8751,2.9669,3.0141,3.0443,3.0713,3.1322,3.2066,3.2611,3.3385,3.4162,3.464,3.4775,3.4775,3.4775,3.4775,3.4775,3.4775,3.4775,3.4775,3.4775,3.5196,3.5581,3.5581,3.5954,3.605,3.504,3.4775,3.4775,3.4775,3.503,3.5175,3.5223,3.562,3.5968,3.5968,3.6193,3.6358,3.6358,3.6358,3.6358,3.6358,3.6358,3.6275,3.6003,3.5968,3.5716,3.5223,3.5126,3.503,3.4775,3.4726,3.4726,3.4787,3.4775,3.4775,3.4775,3.4775,3.492,3.5175,3.5476,3.5716,1.4554,1.5518,1.6433,1.7186,1.8022,1.8762,1.9182,2.024,2.1471,2.245,2.3515,2.4445,2.493,2.4686,2.4341,2.4202,2.4202,2.4202,2.4202,2.4202,2.4202,2.4202,2.4202,2.4202,2.4202,2.4202,2.4202,2.4202,2.4546,2.4785,2.4785,2.5161,2.5424,2.5424,2.5424,2.5424,2.5424,2.5424,2.5424,2.5424,2.5424,2.5424,2.5405,2.4959,2.4868,2.4992,2.5032,2.552,2.6347,2.7454,2.8541,2.9565,3.0619,3.1084,3.1187,3.13,3.1597,3.2095,3.2801,3.3362,3.388,3.458,3.4775,3.4775,3.4775,3.4775,3.4775,3.4775,3.4775,3.4775,3.4775,3.522,3.5701,3.6038,3.6266,3.6302,3.5918,3.5581,3.5232,3.4895,3.503,3.5271,3.5428,3.5764,3.6051,3.6228,3.6323,3.6405,3.6405,3.6405,3.6405,3.6405,3.6405,3.6358,3.6275,3.6098,3.5812,3.5476,3.5271,3.5078,3.4823,3.5148,3.5172,3.4787,3.516,3.5111,3.4775,3.4981,3.5126,3.5223,3.5668,3.592,1.411,1.5013,1.5884,1.6404,1.7267,1.8094,1.8525,1.9732,2.1071,2.2265,2.3465,2.4542,2.5376,2.5134,2.4686,2.4341,2.4251,2.4202,2.4202,2.4202,2.4257,2.4395,2.4284,2.4257,2.4404,2.4284,2.4202,2.4202,2.4468,2.4624,2.4624,2.4872,2.501,2.501,2.501,2.501,2.501,2.501,2.501,2.501,2.501,2.501,2.5001,2.4744,2.4757,2.507,2.5282,2.5934,2.688,2.8076,2.9307,3.0546,3.1472,3.179,3.1739,3.1648,3.1841,3.2235,3.2851,3.3362,3.3869,3.458,3.4775,3.4775,3.4775,3.4775,3.4775,3.4775,3.4775,3.4775,3.4775,3.5352,3.6062,3.6771,3.694,3.6892,3.6711,3.611,3.5509,3.516,3.5199,3.5368,3.5572,3.5908,3.6193,3.6358,3.6405,3.6405,3.6405,3.6405,3.6405,3.6405,3.6405,3.6405,3.6405,3.6228,3.6003,3.562,3.5428,3.5248,3.5088,3.5425,3.5533,3.5364,3.5533,3.5437,3.5088,3.5163,3.5223,3.5368,3.5764,3.6063,0.0,0.0,0.0,1.5789,1.6542,1.741,1.8116,1.9357,2.0748,2.218,2.3343,2.4501,2.5762,2.5621,2.5147,2.4587,2.4341,2.4202,2.4202,2.4211,2.4376,2.473,2.4486,2.4395,2.4757,2.4468,2.422,2.422,2.4211,2.4202,2.4202,2.4202,2.4202,2.4202,2.4202,2.4202,2.4202,2.4202,2.4202,2.4202,2.4202,2.4202,2.4202,2.4202,2.4449,2.4981,2.5964,2.6988,2.7975,2.8804,3.0153,3.1717,3.2224,3.2308,3.2015,3.1772,3.1964,3.246,3.2711,3.3385,3.4162,3.464,3.4775,3.4775,3.4775,3.4775,3.4775,3.4775,3.4775,3.4775,3.4799,3.5617,3.6651,3.7709,3.7962,3.7829,3.7324,3.6398,3.5653,3.5641,3.5624,3.5657,3.5645,3.6063,3.643,3.6405,3.6405,3.6405,3.6405,3.6405,3.6405,3.6405,3.6405,3.6417,3.643,3.643,3.6206,3.5718,3.5657,3.5649,3.5617,3.5653,3.5893,3.6398,3.5918,3.5653,3.5641,3.5344,3.5368,3.562,3.5872,3.6146,1.3528,0.0,0.0,0.0,0.0,0.0,1.7152,1.854,2.0055,2.1408,2.3028,2.4433,2.5218,2.5605,2.5649,2.5136,2.4686,2.439,2.4202,2.4468,2.4707,2.4766,2.4983,2.513,2.5197,2.4891,2.4611,0.0,2.4376,2.4202,2.4202,2.4202,2.4202,2.4202,2.4202,2.4202,2.4202,2.4202,2.4202,2.4202,2.4202,2.4202,2.4202,2.4202,2.4449,2.4981,2.6022,2.7252,2.8568,2.9917,3.1264,3.2551,3.3258,3.3504,3.3385,3.2912,3.2711,3.2711,3.3001,3.3362,3.3869,3.458,3.4775,3.4775,3.4775,3.4775,3.4775,3.4775,3.4775,3.4871,3.5304,3.5617,3.6098,3.7168,3.7409,3.7481,3.7709,3.7228,3.6639,3.6266,3.6475,3.6604,3.6272,3.6623,3.687,3.6468,3.6405,3.6405,3.6405,3.6405,3.6405,3.6405,3.6405,3.6568,3.6971,3.7008,3.6978,3.7023,3.6875,3.6651,3.6497,3.6657,3.6651,3.6411,3.6639,3.6669,3.6497,3.5819,3.5524,3.562,3.6086,3.6323,1.3645,1.4033,1.4428,1.4618,0.0,0.0,1.658,1.7865,1.936,2.0887,2.2551,2.4063,2.514,2.5509,2.5557,2.5352,2.5039,2.4686,2.439,2.4619,2.484,2.5005,2.5286,2.5488,2.5653,2.5313,2.4959,2.4794,2.4556,2.4385,2.4211,2.4202,2.4202,2.4202,2.4202,2.4202,2.4202,2.4202,2.4202,2.4202,2.4202,2.4202,2.4202,2.4202,2.4498,2.5128,2.6312,2.7498,2.8798,3.0318,3.1786,3.3096,3.3744,3.4029,3.3953,3.3262,3.2851,3.2661,3.2661,3.2962,3.34,3.4225,3.4531,3.4628,3.4787,3.4775,3.4775,3.4775,3.4775,3.4895,3.5485,3.5617,3.5881,3.694,3.7192,3.7336,3.7866,3.7733,3.7372,3.6843,3.6974,3.7082,3.6813,3.7008,3.7073,3.6807,3.6556,3.6405,3.6405,3.6405,3.6405,3.6405,3.6405,3.6631,3.7136,3.7186,3.7315,3.7556,3.7456,3.7317,3.7144,3.7294,3.726,3.706,3.7248,3.7287,3.7106,3.6542,3.6382,3.6625,3.6903,3.6971,1.3931,1.437,1.4798,1.4798,1.5287,0.0,1.6191,1.7268,1.8681,2.044,2.189,2.3401,2.5111,2.5156,2.5001,2.5102,2.5121,2.4956,2.4503,2.4757,2.5074,2.5387,2.5506,2.569,2.6048,2.5718,2.5341,2.4941,2.4831,2.4601,2.422,2.4202,2.4251,2.4251,2.4251,2.4301,2.4301,2.4301,2.4301,2.4301,2.4301,2.4301,2.4301,2.4301,2.4695,2.5479,2.6686,2.7767,2.8817,3.025,3.1819,3.3314,3.3756,3.3982,3.4014,3.3174,3.2661,3.2319,3.2066,3.2258,3.2812,3.3633,3.4078,3.4372,3.4677,3.4775,3.4775,3.4775,3.4775,3.4895,3.54,3.5533,3.5785,3.6783,3.7024,3.718,3.7769,3.7942,3.7822,3.7413,3.7378,3.739,3.7329,3.7307,3.7262,3.7199,3.6757,3.6405,3.6405,3.6405,3.6405,3.6405,3.6405,3.6656,3.7224,3.7274,3.744,3.7792,3.7829,3.7802,3.7782,3.7703,3.7818,3.808,3.7894,3.7768,3.7779,3.7418,3.7518,3.8002,3.8002,3.7713,1.3587,1.3872,1.4172,1.4172,1.4655,0.0,1.554,1.6572,1.7981,1.9664,2.1078,2.2367,2.3435,2.3857,2.4062,2.4105,2.3932,2.3849,2.3999,2.5214,2.5909,2.5451,2.5949,2.638,2.6463,2.614,2.5865,2.5791,2.5194,2.4601,2.422,2.4341,2.444,2.444,2.4637,2.4735,2.4735,2.4735,2.4735,2.4735,2.4735,2.4735,2.4735,2.4735,2.5177,2.6004,2.6849,2.7788,2.8817,3.0114,3.1561,3.3018,3.3335,3.3672,3.3941,3.3362,3.2661,3.2066,3.179,3.175,3.2015,3.3012,3.356,3.3906,3.4568,3.4775,3.4775,3.4775,3.4775,3.4799,3.4907,3.4943,3.5148,3.5773,3.5918,3.6182,3.7144,3.7505,3.7758,3.8085,3.8334,3.8438,3.8186,3.8017,3.7701,3.7249,3.6757,3.6405,3.6405,3.6405,3.6405,3.6405,3.6405,3.6807,3.7764,3.7839,3.8278,3.9244,3.9102,3.8985,3.8993,3.8512,3.8364,3.8631,3.8847,3.8995,3.8986,3.799,3.7705,3.8002,3.8002,3.7713,1.4216,1.445,1.4706,1.4706,1.4948,0.0,0.0,1.6251,1.7477,1.9204,2.0434,2.1584,2.2882,2.3144,2.3179,2.3304,2.3548,2.3696,2.3626,2.4824,2.5735,2.5631,2.6203,2.6591,2.6591,2.6399,2.6105,2.5745,2.5115,2.4643,2.4369,2.4726,2.4962,2.5109,2.5499,2.5693,2.5693,2.5693,2.5693,2.5693,2.5693,2.5693,2.5693,2.5693,2.5984,2.6524,2.7136,2.7882,2.8771,2.9932,3.1168,3.2368,3.3037,3.3529,3.3797,3.3517,3.2951,3.2308,3.1801,3.1761,3.2117,3.275,3.3373,3.3979,3.4628,3.4775,3.4775,3.4775,3.4775,3.4775,3.4775,3.4775,3.4979,3.5821,3.6014,3.6302,3.736,3.7799,3.8092,3.8518,3.8841,3.9015,3.8885,3.8354,3.7914,3.7638,3.6885,3.6405,3.6405,3.6405,3.6405,3.6405,3.6405,3.6857,3.7914,3.8002,3.8492,3.9622,3.9581,3.9426,3.9322,3.8998,3.8893,3.905,3.9206,3.9374,3.9478,3.8916,3.8742,3.8856,3.8856,3.8555,1.4812,1.5097,1.5374,1.5309,1.5389,1.5462,0.0,0.0,0.0,1.8982,1.9978,2.1043,2.2591,2.2506,2.2275,2.2486,2.3076,0.0,0.0,2.4259,0.0,2.5568,2.6072,2.638,2.6463,2.6463,2.6197,2.5537,2.5093,2.4821,2.4768,2.5196,2.5586,2.5936,2.6408,2.6648,2.6648,2.6648,2.6648,2.6648,2.6648,2.6648,2.6648,2.6648,2.6802,2.7136,2.7505,2.8117,2.8828,2.9715,3.0548,3.1481,3.2693,3.3384,3.3731,3.3711,3.3418,3.2912,3.2167,3.2167,3.251,3.2812,3.3484,3.431,3.4689,3.4775,3.4775,3.4775,3.4775,3.4775,3.4775,3.4775,3.5015,3.6026,3.6254,3.6543,3.7601,3.8105,3.8457,3.8724,3.9102,3.9374,3.9374,3.8692,3.8165,3.8165,3.7224,3.6568,3.6568,3.6468,3.6405,3.6405,3.6505,3.6971,3.7927,3.8115,3.8605,3.9634,3.9697,3.9581,3.9374,3.9374,3.9362,3.931,3.9362,3.9478,3.9697,3.9697,3.9697,3.9697,3.9697,3.9396,1.4562,1.4962,1.5316,1.5024,1.5389,1.5789,1.5455,0.0,1.7624,1.9033,0.0,2.0801,2.1835,0.0,0.0,0.0,0.0,0.0,2.3473,2.3889,2.4272,2.4859,2.5295,2.5699,2.6048,2.6085,2.6039,2.5957,2.5376,2.5267,2.5731,2.5908,2.6235,2.6764,2.6993,2.7136,2.7136,2.7136,2.7136,2.7136,2.7136,2.7136,2.7136,2.7136,2.7421,2.7904,2.794,2.8373,2.9071,2.9439,2.9806,3.0251,3.1916,3.3142,3.3959,3.3959,3.3932,3.3782,3.3212,3.2901,3.2812,3.3051,3.3869,3.4738,3.4775,3.4775,3.4775,3.4775,3.4775,3.4775,3.4775,3.4775,3.4931,3.5569,3.5701,3.599,3.7048,3.7728,3.8248,3.8703,3.927,3.9633,3.9633,3.9182,3.8781,3.8781,3.7814,3.7098,3.7098,3.6707,3.6405,3.6405,3.6845,3.7337,3.7952,3.8479,3.9032,3.9647,3.9697,3.9697,3.9645,3.9633,3.953,3.931,3.953,3.9697,3.9697,3.9697,3.9697,3.9697,3.9697,3.9396,1.5028,1.5365,1.5593,1.5265,1.5535,1.5833,1.5462,1.6186,1.7332,1.8633,0.0,0.0,0.0,0.0,0.0,0.0,2.1651,0.0,0.0,0.0,2.3738,2.4831,0.0,0.0,2.5653,2.5672,2.5623,2.5469,2.5534,2.5693,2.5986,2.6615,2.7125,2.7515,2.7893,2.8139,2.8139,2.8139,2.8139,2.8139,2.8139,2.8139,2.8139,2.8139,2.8233,2.8466,2.8466,2.8653,2.8943,2.9013,2.9106,2.9277,3.001,3.1274,3.271,3.3003,3.3203,3.3247,3.2672,3.2572,3.2684,3.3097,3.3744,3.4384,3.4531,3.4677,3.4775,3.4775,3.4775,3.4775,3.4775,3.4775,3.4991,3.5869,3.6074,3.6413,3.7629,3.8249,3.8635,3.9013,3.9426,3.9697,3.9697,3.9233,3.8919,3.8919,3.7914,3.7186,3.7186,3.6744,3.6405,3.6405,3.6908,3.7412,3.7952,3.853,3.9107,3.9659,3.9697,3.9697,3.9697,3.9697,3.9645,3.953,3.9633,3.9697,3.9697,3.9697,3.9697,3.9697,3.9697,3.9572,1.5542,1.5862,1.6052,1.5513,1.5738,1.5935,1.5484,1.6156,1.721,1.8547,1.9333,0.0,0.0,0.0,0.0,0.0,0.0,2.223,0.0,2.2593,0.0,0.0,0.0,0.0,0.0,2.5194,2.5227,2.5279,2.566,2.6035,2.6483,2.7245,2.7882,2.8233,2.8617,2.8803,2.8803,2.8803,2.8803,2.8803,2.8803,2.8803,2.8803,2.8803,2.8803,2.8803,2.871,2.8664,2.856,2.8456,2.8351,2.8305,2.8283,2.935,3.0949,3.16,3.204,3.2241,3.196,3.2066,3.2331,3.2796,3.3335,3.3831,3.4078,3.447,3.4775,3.4775,3.4775,3.4775,3.4775,3.4775,3.5051,3.6146,3.6461,3.6853,3.8125,3.8671,3.8998,3.9258,3.953,3.9697,3.9697,3.9371,3.9094,3.9094,3.8266,3.7651,3.7651,3.7071,3.6694,3.6845,3.7174,3.7638,3.8203,3.8768,3.927,3.9672,3.9697,3.9697,3.9697,3.9697,3.9697,3.9697,3.9697,3.9697,3.9697,3.9697,3.9697,3.9697,3.9697,3.9697,0.0,0.0,0.0,1.5665,0.0,0.0,1.5528,1.6366,1.7657,1.8982,0.0,0.0,0.0,0.0,0.0,0.0,0.0,0.0,0.0,0.0,0.0,0.0,0.0,0.0,0.0,2.4615,2.5103,0.0,2.5754,2.624,2.7405,2.7766,2.8233,2.8757,2.8803,2.8803,2.8803,2.8803,2.8803,2.8803,2.8803,2.8803,2.8803,2.8803,2.8803,2.8803,2.8535,2.829,2.7998,2.7715,2.7478,2.7231,2.7231,2.7838,2.8807,2.9823,3.051,3.1041,3.1462,3.1626,3.1677,3.1971,3.2588,3.325,3.3549,3.4164,3.4775,3.4775,3.4775,3.4775,3.4775,3.4775,3.5051,3.6146,3.6614,3.7057,3.8178,3.8893,3.927,3.931,3.953,3.9697,3.9697,3.9685,3.9672,3.9672,3.9182,3.8869,3.8869,3.7888,3.7362,3.7902,3.7965,3.8216,3.8844,3.9346,3.9672,3.9697,3.9697,3.9697,3.9697,3.9697,3.9697,3.9697,3.9697,3.9697,3.9697,3.9697,3.9697,3.9697,3.9697,3.9697,0.0,0.0,1.6719,1.5935,0.0,0.0,0.0,0.0,0.0,0.0,0.0,0.0,0.0,0.0,0.0,0.0,0.0,0.0,0.0,0.0,0.0,0.0,2.305,2.3749,0.0,0.0,0.0,2.5149,2.5859,0.0,2.7277,2.8083,2.8606,2.8803,2.8803,2.8803,2.8803,2.8803,2.8803,2.8803,2.8803,2.8803,2.8803,2.8803,2.871,2.8535,2.8243,2.7904,2.7489,2.7061,2.6726,2.6428,2.6294,2.6614,2.7322,2.8632,2.9629,3.0325,3.0484,3.0536,3.0588,3.1084,3.1891,3.275,3.3201,3.4017,3.4775,3.4775,3.4775,3.4775,3.4775,3.4775,3.5149,3.636,3.6715,3.7209,3.8659,3.9154,3.9362,3.953,3.9645,3.9697,3.9697,3.9697,3.9697,3.9697,3.922,3.8919,3.8919,3.8203,3.7801,3.799,3.8354,3.8655,3.8906,3.9371,3.9697,3.9697,3.9697,3.9697,3.9697,3.9697,3.9697,3.9697,3.9697,3.9697,3.9697,3.9697,3.9697,3.9697,3.9697,3.9697,1.6617,1.6903,0.0,1.6265,1.6617,0.0,1.6788,0.0,1.8769,0.0,0.0,0.0,0.0,0.0,0.0,0.0,0.0,0.0,0.0,2.183,0.0,0.0,2.2501,2.3059,0.0,2.3611,2.4186,2.4665,2.5799,0.0,0.0,2.8233,2.8803,2.8803,2.8803,2.885,2.8896,2.8896,2.8932,2.9024,2.8932,2.8943,2.9024,2.8943,2.885,2.8757,2.8337,2.7914,2.7489,2.688,2.6496,2.6265,2.624,2.6527,2.6992,2.7764,2.8583,2.9416,2.9416,2.9416,2.9459,3.0015,3.1084,3.2207,3.275,3.3819,3.4775,3.4775,3.4884,3.492,3.492,3.503,3.5393,3.6673,3.7017,3.7513,3.897,3.9362,3.9478,3.9645,3.9697,3.9697,3.9697,3.9697,3.9697,3.9697,3.9396,3.917,3.917,3.8668,3.8391,3.858,3.8768,3.9007,3.9145,3.9484,3.9697,3.9697,3.9697,3.9697,3.9697,3.9697,3.9697,3.9697,3.9697,3.9697,3.9697,3.9697,3.9697,3.9697,3.9697,3.9697]}]]